<?xml version="1.0" encoding="UTF-8" standalone="no" ?>
<gpx xmlns="http://www.topografix.com/GPX/1/1" xmlns:xsi="http://www.w3.org/2001/XMLSchema-instance" xsi:schemaLocation="http://www.topografix.com/GPX/1/1 http://www.topografix.com/GPX/1/1/gpx.xsd" version="1.1" creator="VisuGPX - https://www.visugpx.com">
  <metadata>
    <name>Thézac</name>
    <desc><![CDATA[randonnée autour de Thézac entre le GR et le Verdus]]></desc>
  </metadata>
  <trk>
    <name><![CDATA[Tracé actuel: 08 MARS 2015 08:10]]></name>
    <trkseg>
      <trkpt lat="44.42949" lon="1.0146">
        <ele>212.11</ele>
        <time>2015-03-08T07:10:22Z</time>
      </trkpt>
      <trkpt lat="44.42949" lon="1.01461">
        <ele>214.99</ele>
        <time>2015-03-08T07:10:26Z</time>
      </trkpt>
      <trkpt lat="44.42949" lon="1.01461">
        <ele>217.88</ele>
        <time>2015-03-08T07:10:31Z</time>
      </trkpt>
      <trkpt lat="44.4295" lon="1.01462">
        <ele>221.24</ele>
        <time>2015-03-08T07:10:39Z</time>
      </trkpt>
      <trkpt lat="44.42951" lon="1.01462">
        <ele>224.12</ele>
        <time>2015-03-08T07:10:50Z</time>
      </trkpt>
      <trkpt lat="44.42953" lon="1.01461">
        <ele>225.57</ele>
        <time>2015-03-08T07:10:55Z</time>
      </trkpt>
      <trkpt lat="44.42953" lon="1.01457">
        <ele>226.05</ele>
        <time>2015-03-08T07:10:58Z</time>
      </trkpt>
      <trkpt lat="44.42952" lon="1.01452">
        <ele>226.53</ele>
        <time>2015-03-08T07:11:01Z</time>
      </trkpt>
      <trkpt lat="44.42952" lon="1.01449">
        <ele>226.53</ele>
        <time>2015-03-08T07:11:02Z</time>
      </trkpt>
      <trkpt lat="44.42952" lon="1.01445">
        <ele>227.01</ele>
        <time>2015-03-08T07:11:03Z</time>
      </trkpt>
      <trkpt lat="44.42951" lon="1.01442">
        <ele>227.01</ele>
        <time>2015-03-08T07:11:04Z</time>
      </trkpt>
      <trkpt lat="44.42951" lon="1.01439">
        <ele>227.01</ele>
        <time>2015-03-08T07:11:05Z</time>
      </trkpt>
      <trkpt lat="44.42951" lon="1.01436">
        <ele>227.49</ele>
        <time>2015-03-08T07:11:06Z</time>
      </trkpt>
      <trkpt lat="44.42951" lon="1.01433">
        <ele>227.49</ele>
        <time>2015-03-08T07:11:07Z</time>
      </trkpt>
      <trkpt lat="44.4295" lon="1.0143">
        <ele>227.49</ele>
        <time>2015-03-08T07:11:08Z</time>
      </trkpt>
      <trkpt lat="44.4295" lon="1.01427">
        <ele>227.49</ele>
        <time>2015-03-08T07:11:09Z</time>
      </trkpt>
      <trkpt lat="44.42951" lon="1.01423">
        <ele>228.45</ele>
        <time>2015-03-08T07:11:10Z</time>
      </trkpt>
      <trkpt lat="44.42951" lon="1.0142">
        <ele>228.45</ele>
        <time>2015-03-08T07:11:11Z</time>
      </trkpt>
      <trkpt lat="44.42951" lon="1.01416">
        <ele>228.45</ele>
        <time>2015-03-08T07:11:12Z</time>
      </trkpt>
      <trkpt lat="44.42951" lon="1.01412">
        <ele>228.45</ele>
        <time>2015-03-08T07:11:13Z</time>
      </trkpt>
      <trkpt lat="44.42951" lon="1.01409">
        <ele>228.93</ele>
        <time>2015-03-08T07:11:14Z</time>
      </trkpt>
      <trkpt lat="44.4295" lon="1.01405">
        <ele>229.41</ele>
        <time>2015-03-08T07:11:15Z</time>
      </trkpt>
      <trkpt lat="44.42951" lon="1.01401">
        <ele>229.41</ele>
        <time>2015-03-08T07:11:16Z</time>
      </trkpt>
      <trkpt lat="44.42951" lon="1.01386">
        <ele>229.41</ele>
        <time>2015-03-08T07:11:20Z</time>
      </trkpt>
      <trkpt lat="44.42951" lon="1.01382">
        <ele>229.89</ele>
        <time>2015-03-08T07:11:21Z</time>
      </trkpt>
      <trkpt lat="44.42952" lon="1.01378">
        <ele>229.89</ele>
        <time>2015-03-08T07:11:22Z</time>
      </trkpt>
      <trkpt lat="44.42952" lon="1.01374">
        <ele>229.89</ele>
        <time>2015-03-08T07:11:23Z</time>
      </trkpt>
      <trkpt lat="44.42951" lon="1.01371">
        <ele>230.85</ele>
        <time>2015-03-08T07:11:24Z</time>
      </trkpt>
      <trkpt lat="44.42951" lon="1.01367">
        <ele>230.85</ele>
        <time>2015-03-08T07:11:25Z</time>
      </trkpt>
      <trkpt lat="44.42951" lon="1.01364">
        <ele>230.85</ele>
        <time>2015-03-08T07:11:26Z</time>
      </trkpt>
      <trkpt lat="44.4295" lon="1.01361">
        <ele>231.33</ele>
        <time>2015-03-08T07:11:27Z</time>
      </trkpt>
      <trkpt lat="44.4295" lon="1.01358">
        <ele>231.33</ele>
        <time>2015-03-08T07:11:28Z</time>
      </trkpt>
      <trkpt lat="44.42949" lon="1.01354">
        <ele>231.33</ele>
        <time>2015-03-08T07:11:29Z</time>
      </trkpt>
      <trkpt lat="44.42938" lon="1.01324">
        <ele>232.3</ele>
        <time>2015-03-08T07:11:38Z</time>
      </trkpt>
      <trkpt lat="44.42922" lon="1.01292">
        <ele>233.26</ele>
        <time>2015-03-08T07:11:48Z</time>
      </trkpt>
      <trkpt lat="44.4291" lon="1.01261">
        <ele>233.26</ele>
        <time>2015-03-08T07:11:58Z</time>
      </trkpt>
      <trkpt lat="44.42898" lon="1.01212">
        <ele>230.37</ele>
        <time>2015-03-08T07:12:12Z</time>
      </trkpt>
      <trkpt lat="44.42897" lon="1.01209">
        <ele>230.85</ele>
        <time>2015-03-08T07:12:13Z</time>
      </trkpt>
      <trkpt lat="44.42895" lon="1.01205">
        <ele>230.85</ele>
        <time>2015-03-08T07:12:14Z</time>
      </trkpt>
      <trkpt lat="44.42881" lon="1.01173">
        <ele>229.41</ele>
        <time>2015-03-08T07:12:24Z</time>
      </trkpt>
      <trkpt lat="44.4288" lon="1.0117">
        <ele>229.41</ele>
        <time>2015-03-08T07:12:25Z</time>
      </trkpt>
      <trkpt lat="44.42861" lon="1.01134">
        <ele>227.49</ele>
        <time>2015-03-08T07:12:37Z</time>
      </trkpt>
      <trkpt lat="44.42859" lon="1.01131">
        <ele>225.57</ele>
        <time>2015-03-08T07:12:38Z</time>
      </trkpt>
      <trkpt lat="44.42858" lon="1.01128">
        <ele>225.09</ele>
        <time>2015-03-08T07:12:39Z</time>
      </trkpt>
      <trkpt lat="44.42856" lon="1.01125">
        <ele>224.61</ele>
        <time>2015-03-08T07:12:40Z</time>
      </trkpt>
      <trkpt lat="44.42855" lon="1.01122">
        <ele>224.12</ele>
        <time>2015-03-08T07:12:41Z</time>
      </trkpt>
      <trkpt lat="44.42854" lon="1.01119">
        <ele>224.61</ele>
        <time>2015-03-08T07:12:42Z</time>
      </trkpt>
      <trkpt lat="44.42852" lon="1.01116">
        <ele>223.16</ele>
        <time>2015-03-08T07:12:43Z</time>
      </trkpt>
      <trkpt lat="44.4285" lon="1.01114">
        <ele>223.16</ele>
        <time>2015-03-08T07:12:44Z</time>
      </trkpt>
      <trkpt lat="44.42836" lon="1.01081">
        <ele>222.68</ele>
        <time>2015-03-08T07:12:55Z</time>
      </trkpt>
      <trkpt lat="44.42831" lon="1.01063">
        <ele>222.2</ele>
        <time>2015-03-08T07:13:01Z</time>
      </trkpt>
      <trkpt lat="44.4283" lon="1.0106">
        <ele>222.2</ele>
        <time>2015-03-08T07:13:02Z</time>
      </trkpt>
      <trkpt lat="44.4283" lon="1.01057">
        <ele>222.2</ele>
        <time>2015-03-08T07:13:03Z</time>
      </trkpt>
      <trkpt lat="44.42829" lon="1.01053">
        <ele>222.2</ele>
        <time>2015-03-08T07:13:04Z</time>
      </trkpt>
      <trkpt lat="44.42829" lon="1.0105">
        <ele>221.72</ele>
        <time>2015-03-08T07:13:05Z</time>
      </trkpt>
      <trkpt lat="44.42828" lon="1.01047">
        <ele>221.72</ele>
        <time>2015-03-08T07:13:06Z</time>
      </trkpt>
      <trkpt lat="44.42828" lon="1.01044">
        <ele>221.72</ele>
        <time>2015-03-08T07:13:07Z</time>
      </trkpt>
      <trkpt lat="44.42827" lon="1.0104">
        <ele>221.72</ele>
        <time>2015-03-08T07:13:08Z</time>
      </trkpt>
      <trkpt lat="44.42822" lon="1.01011">
        <ele>220.28</ele>
        <time>2015-03-08T07:13:17Z</time>
      </trkpt>
      <trkpt lat="44.42821" lon="1.00998">
        <ele>219.8</ele>
        <time>2015-03-08T07:13:21Z</time>
      </trkpt>
      <trkpt lat="44.4282" lon="1.00995">
        <ele>219.8</ele>
        <time>2015-03-08T07:13:22Z</time>
      </trkpt>
      <trkpt lat="44.4282" lon="1.00991">
        <ele>219.8</ele>
        <time>2015-03-08T07:13:23Z</time>
      </trkpt>
      <trkpt lat="44.4282" lon="1.00988">
        <ele>218.84</ele>
        <time>2015-03-08T07:13:24Z</time>
      </trkpt>
      <trkpt lat="44.4282" lon="1.00985">
        <ele>219.32</ele>
        <time>2015-03-08T07:13:25Z</time>
      </trkpt>
      <trkpt lat="44.4282" lon="1.00982">
        <ele>219.32</ele>
        <time>2015-03-08T07:13:26Z</time>
      </trkpt>
      <trkpt lat="44.42819" lon="1.00978">
        <ele>219.32</ele>
        <time>2015-03-08T07:13:27Z</time>
      </trkpt>
      <trkpt lat="44.42819" lon="1.00974">
        <ele>219.32</ele>
        <time>2015-03-08T07:13:28Z</time>
      </trkpt>
      <trkpt lat="44.4282" lon="1.0097">
        <ele>218.36</ele>
        <time>2015-03-08T07:13:29Z</time>
      </trkpt>
      <trkpt lat="44.42819" lon="1.00967">
        <ele>218.84</ele>
        <time>2015-03-08T07:13:30Z</time>
      </trkpt>
      <trkpt lat="44.42818" lon="1.00933">
        <ele>217.4</ele>
        <time>2015-03-08T07:13:39Z</time>
      </trkpt>
      <trkpt lat="44.42817" lon="1.00897">
        <ele>216.91</ele>
        <time>2015-03-08T07:13:49Z</time>
      </trkpt>
      <trkpt lat="44.42814" lon="1.00865">
        <ele>216.43</ele>
        <time>2015-03-08T07:13:58Z</time>
      </trkpt>
      <trkpt lat="44.42811" lon="1.00829">
        <ele>215.95</ele>
        <time>2015-03-08T07:14:08Z</time>
      </trkpt>
      <trkpt lat="44.42809" lon="1.00799">
        <ele>215.47</ele>
        <time>2015-03-08T07:14:19Z</time>
      </trkpt>
      <trkpt lat="44.42806" lon="1.00773">
        <ele>215.47</ele>
        <time>2015-03-08T07:14:32Z</time>
      </trkpt>
      <trkpt lat="44.42806" lon="1.00771">
        <ele>215.47</ele>
        <time>2015-03-08T07:14:33Z</time>
      </trkpt>
      <trkpt lat="44.42806" lon="1.00769">
        <ele>215.47</ele>
        <time>2015-03-08T07:14:34Z</time>
      </trkpt>
      <trkpt lat="44.42805" lon="1.00767">
        <ele>215.47</ele>
        <time>2015-03-08T07:14:35Z</time>
      </trkpt>
      <trkpt lat="44.42805" lon="1.00765">
        <ele>215.47</ele>
        <time>2015-03-08T07:14:36Z</time>
      </trkpt>
      <trkpt lat="44.42805" lon="1.00763">
        <ele>215.47</ele>
        <time>2015-03-08T07:14:37Z</time>
      </trkpt>
      <trkpt lat="44.42804" lon="1.00762">
        <ele>215.47</ele>
        <time>2015-03-08T07:14:38Z</time>
      </trkpt>
      <trkpt lat="44.42805" lon="1.0075">
        <ele>215.47</ele>
        <time>2015-03-08T07:14:49Z</time>
      </trkpt>
      <trkpt lat="44.42804" lon="1.00739">
        <ele>216.91</ele>
        <time>2015-03-08T07:14:55Z</time>
      </trkpt>
      <trkpt lat="44.42804" lon="1.00737">
        <ele>216.43</ele>
        <time>2015-03-08T07:14:56Z</time>
      </trkpt>
      <trkpt lat="44.42804" lon="1.00734">
        <ele>216.43</ele>
        <time>2015-03-08T07:14:57Z</time>
      </trkpt>
      <trkpt lat="44.42804" lon="1.00733">
        <ele>216.91</ele>
        <time>2015-03-08T07:14:58Z</time>
      </trkpt>
      <trkpt lat="44.42804" lon="1.00731">
        <ele>216.91</ele>
        <time>2015-03-08T07:14:59Z</time>
      </trkpt>
      <trkpt lat="44.42804" lon="1.00729">
        <ele>216.91</ele>
        <time>2015-03-08T07:15:00Z</time>
      </trkpt>
      <trkpt lat="44.42804" lon="1.00727">
        <ele>216.91</ele>
        <time>2015-03-08T07:15:01Z</time>
      </trkpt>
      <trkpt lat="44.42803" lon="1.00725">
        <ele>216.91</ele>
        <time>2015-03-08T07:15:02Z</time>
      </trkpt>
      <trkpt lat="44.42802" lon="1.00713">
        <ele>217.4</ele>
        <time>2015-03-08T07:15:09Z</time>
      </trkpt>
      <trkpt lat="44.42802" lon="1.00711">
        <ele>217.4</ele>
        <time>2015-03-08T07:15:10Z</time>
      </trkpt>
      <trkpt lat="44.42802" lon="1.00703">
        <ele>217.88</ele>
        <time>2015-03-08T07:15:14Z</time>
      </trkpt>
      <trkpt lat="44.428" lon="1.00693">
        <ele>218.36</ele>
        <time>2015-03-08T07:15:19Z</time>
      </trkpt>
      <trkpt lat="44.428" lon="1.00691">
        <ele>218.36</ele>
        <time>2015-03-08T07:15:20Z</time>
      </trkpt>
      <trkpt lat="44.428" lon="1.00689">
        <ele>218.36</ele>
        <time>2015-03-08T07:15:21Z</time>
      </trkpt>
      <trkpt lat="44.428" lon="1.00687">
        <ele>218.36</ele>
        <time>2015-03-08T07:15:22Z</time>
      </trkpt>
      <trkpt lat="44.428" lon="1.00685">
        <ele>218.36</ele>
        <time>2015-03-08T07:15:23Z</time>
      </trkpt>
      <trkpt lat="44.42799" lon="1.00684">
        <ele>218.36</ele>
        <time>2015-03-08T07:15:24Z</time>
      </trkpt>
      <trkpt lat="44.42799" lon="1.00681">
        <ele>218.36</ele>
        <time>2015-03-08T07:15:25Z</time>
      </trkpt>
      <trkpt lat="44.42799" lon="1.00679">
        <ele>219.32</ele>
        <time>2015-03-08T07:15:26Z</time>
      </trkpt>
      <trkpt lat="44.42799" lon="1.00677">
        <ele>219.32</ele>
        <time>2015-03-08T07:15:27Z</time>
      </trkpt>
      <trkpt lat="44.42799" lon="1.00676">
        <ele>219.32</ele>
        <time>2015-03-08T07:15:28Z</time>
      </trkpt>
      <trkpt lat="44.42799" lon="1.00674">
        <ele>219.32</ele>
        <time>2015-03-08T07:15:29Z</time>
      </trkpt>
      <trkpt lat="44.42798" lon="1.00667">
        <ele>219.8</ele>
        <time>2015-03-08T07:15:33Z</time>
      </trkpt>
      <trkpt lat="44.42797" lon="1.00665">
        <ele>219.8</ele>
        <time>2015-03-08T07:15:34Z</time>
      </trkpt>
      <trkpt lat="44.42795" lon="1.00646">
        <ele>220.76</ele>
        <time>2015-03-08T07:15:44Z</time>
      </trkpt>
      <trkpt lat="44.42795" lon="1.00645">
        <ele>220.76</ele>
        <time>2015-03-08T07:15:45Z</time>
      </trkpt>
      <trkpt lat="44.428" lon="1.0063">
        <ele>222.2</ele>
        <time>2015-03-08T07:16:00Z</time>
      </trkpt>
      <trkpt lat="44.42809" lon="1.00619">
        <ele>223.16</ele>
        <time>2015-03-08T07:16:09Z</time>
      </trkpt>
      <trkpt lat="44.42817" lon="1.00604">
        <ele>223.64</ele>
        <time>2015-03-08T07:16:21Z</time>
      </trkpt>
      <trkpt lat="44.42819" lon="1.00601">
        <ele>223.64</ele>
        <time>2015-03-08T07:16:23Z</time>
      </trkpt>
      <trkpt lat="44.4282" lon="1.00599">
        <ele>223.64</ele>
        <time>2015-03-08T07:16:24Z</time>
      </trkpt>
      <trkpt lat="44.42821" lon="1.00597">
        <ele>223.64</ele>
        <time>2015-03-08T07:16:25Z</time>
      </trkpt>
      <trkpt lat="44.42827" lon="1.0059">
        <ele>223.64</ele>
        <time>2015-03-08T07:16:32Z</time>
      </trkpt>
      <trkpt lat="44.42828" lon="1.00589">
        <ele>223.64</ele>
        <time>2015-03-08T07:16:33Z</time>
      </trkpt>
      <trkpt lat="44.42829" lon="1.00588">
        <ele>223.64</ele>
        <time>2015-03-08T07:16:34Z</time>
      </trkpt>
      <trkpt lat="44.42837" lon="1.00573">
        <ele>223.64</ele>
        <time>2015-03-08T07:16:44Z</time>
      </trkpt>
      <trkpt lat="44.42845" lon="1.00549">
        <ele>222.2</ele>
        <time>2015-03-08T07:16:57Z</time>
      </trkpt>
      <trkpt lat="44.42844" lon="1.00546">
        <ele>222.2</ele>
        <time>2015-03-08T07:16:59Z</time>
      </trkpt>
      <trkpt lat="44.42839" lon="1.00538">
        <ele>221.72</ele>
        <time>2015-03-08T07:17:10Z</time>
      </trkpt>
      <trkpt lat="44.42833" lon="1.00532">
        <ele>218.84</ele>
        <time>2015-03-08T07:17:18Z</time>
      </trkpt>
      <trkpt lat="44.42835" lon="1.00531">
        <ele>215.95</ele>
        <time>2015-03-08T07:17:21Z</time>
      </trkpt>
      <trkpt lat="44.42835" lon="1.00531">
        <ele>221.24</ele>
        <time>2015-03-08T07:17:22Z</time>
      </trkpt>
      <trkpt lat="44.42833" lon="1.00532">
        <ele>218.84</ele>
        <time>2015-03-08T07:17:36Z</time>
      </trkpt>
      <trkpt lat="44.42831" lon="1.00531">
        <ele>218.84</ele>
        <time>2015-03-08T07:18:03Z</time>
      </trkpt>
      <trkpt lat="44.4283" lon="1.00531">
        <ele>218.84</ele>
        <time>2015-03-08T07:18:28Z</time>
      </trkpt>
      <trkpt lat="44.42829" lon="1.00532">
        <ele>219.8</ele>
        <time>2015-03-08T07:18:55Z</time>
      </trkpt>
      <trkpt lat="44.42829" lon="1.00532">
        <ele>220.28</ele>
        <time>2015-03-08T07:19:28Z</time>
      </trkpt>
      <trkpt lat="44.4283" lon="1.00533">
        <ele>219.32</ele>
        <time>2015-03-08T07:19:47Z</time>
      </trkpt>
      <trkpt lat="44.42827" lon="1.00537">
        <ele>219.32</ele>
        <time>2015-03-08T07:20:11Z</time>
      </trkpt>
      <trkpt lat="44.42828" lon="1.00539">
        <ele>221.24</ele>
        <time>2015-03-08T07:20:24Z</time>
      </trkpt>
      <trkpt lat="44.42839" lon="1.00539">
        <ele>220.76</ele>
        <time>2015-03-08T07:20:36Z</time>
      </trkpt>
      <trkpt lat="44.42845" lon="1.00543">
        <ele>219.8</ele>
        <time>2015-03-08T07:20:44Z</time>
      </trkpt>
      <trkpt lat="44.42853" lon="1.00532">
        <ele>219.8</ele>
        <time>2015-03-08T07:20:54Z</time>
      </trkpt>
      <trkpt lat="44.42874" lon="1.00506">
        <ele>218.84</ele>
        <time>2015-03-08T07:21:05Z</time>
      </trkpt>
      <trkpt lat="44.42894" lon="1.00477">
        <ele>216.91</ele>
        <time>2015-03-08T07:21:15Z</time>
      </trkpt>
      <trkpt lat="44.42906" lon="1.0046">
        <ele>213.55</ele>
        <time>2015-03-08T07:21:21Z</time>
      </trkpt>
      <trkpt lat="44.42919" lon="1.00442">
        <ele>210.67</ele>
        <time>2015-03-08T07:21:28Z</time>
      </trkpt>
      <trkpt lat="44.4294" lon="1.00411">
        <ele>211.15</ele>
        <time>2015-03-08T07:21:39Z</time>
      </trkpt>
      <trkpt lat="44.42967" lon="1.00375">
        <ele>209.7</ele>
        <time>2015-03-08T07:21:53Z</time>
      </trkpt>
      <trkpt lat="44.42984" lon="1.0035">
        <ele>207.78</ele>
        <time>2015-03-08T07:22:03Z</time>
      </trkpt>
      <trkpt lat="44.43003" lon="1.00324">
        <ele>203.94</ele>
        <time>2015-03-08T07:22:14Z</time>
      </trkpt>
      <trkpt lat="44.43005" lon="1.00323">
        <ele>203.46</ele>
        <time>2015-03-08T07:22:15Z</time>
      </trkpt>
      <trkpt lat="44.43007" lon="1.00321">
        <ele>202.49</ele>
        <time>2015-03-08T07:22:16Z</time>
      </trkpt>
      <trkpt lat="44.43009" lon="1.0032">
        <ele>202.01</ele>
        <time>2015-03-08T07:22:17Z</time>
      </trkpt>
      <trkpt lat="44.4301" lon="1.00319">
        <ele>201.53</ele>
        <time>2015-03-08T07:22:18Z</time>
      </trkpt>
      <trkpt lat="44.43012" lon="1.0032">
        <ele>201.53</ele>
        <time>2015-03-08T07:22:19Z</time>
      </trkpt>
      <trkpt lat="44.43014" lon="1.0032">
        <ele>201.05</ele>
        <time>2015-03-08T07:22:20Z</time>
      </trkpt>
      <trkpt lat="44.43015" lon="1.00321">
        <ele>201.05</ele>
        <time>2015-03-08T07:22:21Z</time>
      </trkpt>
      <trkpt lat="44.43017" lon="1.00323">
        <ele>201.05</ele>
        <time>2015-03-08T07:22:22Z</time>
      </trkpt>
      <trkpt lat="44.43018" lon="1.00325">
        <ele>201.05</ele>
        <time>2015-03-08T07:22:23Z</time>
      </trkpt>
      <trkpt lat="44.43019" lon="1.00328">
        <ele>202.98</ele>
        <time>2015-03-08T07:22:24Z</time>
      </trkpt>
      <trkpt lat="44.43022" lon="1.00338">
        <ele>205.86</ele>
        <time>2015-03-08T07:22:28Z</time>
      </trkpt>
      <trkpt lat="44.43025" lon="1.00347">
        <ele>209.22</ele>
        <time>2015-03-08T07:22:32Z</time>
      </trkpt>
      <trkpt lat="44.43026" lon="1.0036">
        <ele>211.15</ele>
        <time>2015-03-08T07:22:37Z</time>
      </trkpt>
      <trkpt lat="44.43026" lon="1.00362">
        <ele>211.15</ele>
        <time>2015-03-08T07:22:38Z</time>
      </trkpt>
      <trkpt lat="44.43027" lon="1.00365">
        <ele>211.15</ele>
        <time>2015-03-08T07:22:39Z</time>
      </trkpt>
      <trkpt lat="44.43029" lon="1.00367">
        <ele>211.15</ele>
        <time>2015-03-08T07:22:40Z</time>
      </trkpt>
      <trkpt lat="44.4303" lon="1.00369">
        <ele>211.15</ele>
        <time>2015-03-08T07:22:41Z</time>
      </trkpt>
      <trkpt lat="44.43031" lon="1.00371">
        <ele>211.15</ele>
        <time>2015-03-08T07:22:42Z</time>
      </trkpt>
      <trkpt lat="44.43041" lon="1.00384">
        <ele>210.67</ele>
        <time>2015-03-08T07:22:52Z</time>
      </trkpt>
      <trkpt lat="44.43042" lon="1.00386">
        <ele>210.67</ele>
        <time>2015-03-08T07:22:53Z</time>
      </trkpt>
      <trkpt lat="44.43043" lon="1.00388">
        <ele>211.15</ele>
        <time>2015-03-08T07:22:54Z</time>
      </trkpt>
      <trkpt lat="44.43043" lon="1.0039">
        <ele>210.67</ele>
        <time>2015-03-08T07:22:55Z</time>
      </trkpt>
      <trkpt lat="44.43044" lon="1.00391">
        <ele>211.15</ele>
        <time>2015-03-08T07:22:56Z</time>
      </trkpt>
      <trkpt lat="44.43045" lon="1.00392">
        <ele>211.15</ele>
        <time>2015-03-08T07:22:57Z</time>
      </trkpt>
      <trkpt lat="44.43046" lon="1.00395">
        <ele>211.15</ele>
        <time>2015-03-08T07:22:59Z</time>
      </trkpt>
      <trkpt lat="44.43047" lon="1.00397">
        <ele>211.15</ele>
        <time>2015-03-08T07:23:00Z</time>
      </trkpt>
      <trkpt lat="44.43051" lon="1.00402">
        <ele>212.11</ele>
        <time>2015-03-08T07:23:05Z</time>
      </trkpt>
      <trkpt lat="44.43052" lon="1.00403">
        <ele>212.59</ele>
        <time>2015-03-08T07:23:06Z</time>
      </trkpt>
      <trkpt lat="44.43057" lon="1.00403">
        <ele>212.59</ele>
        <time>2015-03-08T07:23:10Z</time>
      </trkpt>
      <trkpt lat="44.43063" lon="1.00397">
        <ele>213.07</ele>
        <time>2015-03-08T07:23:15Z</time>
      </trkpt>
      <trkpt lat="44.43064" lon="1.00396">
        <ele>213.07</ele>
        <time>2015-03-08T07:23:16Z</time>
      </trkpt>
      <trkpt lat="44.43082" lon="1.00382">
        <ele>213.07</ele>
        <time>2015-03-08T07:23:31Z</time>
      </trkpt>
      <trkpt lat="44.43105" lon="1.00364">
        <ele>213.07</ele>
        <time>2015-03-08T07:23:47Z</time>
      </trkpt>
      <trkpt lat="44.43122" lon="1.00352">
        <ele>211.63</ele>
        <time>2015-03-08T07:23:59Z</time>
      </trkpt>
      <trkpt lat="44.43142" lon="1.00337">
        <ele>210.19</ele>
        <time>2015-03-08T07:24:13Z</time>
      </trkpt>
      <trkpt lat="44.4316" lon="1.00325">
        <ele>208.74</ele>
        <time>2015-03-08T07:24:26Z</time>
      </trkpt>
      <trkpt lat="44.4317" lon="1.00314">
        <ele>207.78</ele>
        <time>2015-03-08T07:24:36Z</time>
      </trkpt>
      <trkpt lat="44.43187" lon="1.00299">
        <ele>206.34</ele>
        <time>2015-03-08T07:24:48Z</time>
      </trkpt>
      <trkpt lat="44.43202" lon="1.00284">
        <ele>203.94</ele>
        <time>2015-03-08T07:25:01Z</time>
      </trkpt>
      <trkpt lat="44.4322" lon="1.0027">
        <ele>203.94</ele>
        <time>2015-03-08T07:25:14Z</time>
      </trkpt>
      <trkpt lat="44.43231" lon="1.00263">
        <ele>202.49</ele>
        <time>2015-03-08T07:25:22Z</time>
      </trkpt>
      <trkpt lat="44.43232" lon="1.00262">
        <ele>202.49</ele>
        <time>2015-03-08T07:25:23Z</time>
      </trkpt>
      <trkpt lat="44.43234" lon="1.00259">
        <ele>202.49</ele>
        <time>2015-03-08T07:25:25Z</time>
      </trkpt>
      <trkpt lat="44.43235" lon="1.00258">
        <ele>202.49</ele>
        <time>2015-03-08T07:25:26Z</time>
      </trkpt>
      <trkpt lat="44.43259" lon="1.00241">
        <ele>201.05</ele>
        <time>2015-03-08T07:25:38Z</time>
      </trkpt>
      <trkpt lat="44.43283" lon="1.00224">
        <ele>198.65</ele>
        <time>2015-03-08T07:25:49Z</time>
      </trkpt>
      <trkpt lat="44.43306" lon="1.00205">
        <ele>196.25</ele>
        <time>2015-03-08T07:26:00Z</time>
      </trkpt>
      <trkpt lat="44.43314" lon="1.00199">
        <ele>194.32</ele>
        <time>2015-03-08T07:26:04Z</time>
      </trkpt>
      <trkpt lat="44.43315" lon="1.00197">
        <ele>193.36</ele>
        <time>2015-03-08T07:26:05Z</time>
      </trkpt>
      <trkpt lat="44.43321" lon="1.00193">
        <ele>190.96</ele>
        <time>2015-03-08T07:26:08Z</time>
      </trkpt>
      <trkpt lat="44.43323" lon="1.00191">
        <ele>190.48</ele>
        <time>2015-03-08T07:26:09Z</time>
      </trkpt>
      <trkpt lat="44.43325" lon="1.0019">
        <ele>190</ele>
        <time>2015-03-08T07:26:10Z</time>
      </trkpt>
      <trkpt lat="44.43327" lon="1.00189">
        <ele>190</ele>
        <time>2015-03-08T07:26:11Z</time>
      </trkpt>
      <trkpt lat="44.4333" lon="1.00188">
        <ele>189.04</ele>
        <time>2015-03-08T07:26:12Z</time>
      </trkpt>
      <trkpt lat="44.43332" lon="1.00187">
        <ele>189.04</ele>
        <time>2015-03-08T07:26:13Z</time>
      </trkpt>
      <trkpt lat="44.43334" lon="1.00187">
        <ele>189.04</ele>
        <time>2015-03-08T07:26:14Z</time>
      </trkpt>
      <trkpt lat="44.43337" lon="1.00186">
        <ele>189.04</ele>
        <time>2015-03-08T07:26:15Z</time>
      </trkpt>
      <trkpt lat="44.43365" lon="1.00174">
        <ele>187.59</ele>
        <time>2015-03-08T07:26:28Z</time>
      </trkpt>
      <trkpt lat="44.43376" lon="1.0017">
        <ele>184.71</ele>
        <time>2015-03-08T07:26:32Z</time>
      </trkpt>
      <trkpt lat="44.43396" lon="1.00163">
        <ele>181.35</ele>
        <time>2015-03-08T07:26:40Z</time>
      </trkpt>
      <trkpt lat="44.43425" lon="1.00157">
        <ele>178.94</ele>
        <time>2015-03-08T07:26:52Z</time>
      </trkpt>
      <trkpt lat="44.43437" lon="1.00153">
        <ele>175.58</ele>
        <time>2015-03-08T07:26:58Z</time>
      </trkpt>
      <trkpt lat="44.43443" lon="1.00152">
        <ele>172.69</ele>
        <time>2015-03-08T07:27:01Z</time>
      </trkpt>
      <trkpt lat="44.43452" lon="1.00151">
        <ele>169.33</ele>
        <time>2015-03-08T07:27:05Z</time>
      </trkpt>
      <trkpt lat="44.4348" lon="1.00146">
        <ele>167.41</ele>
        <time>2015-03-08T07:27:17Z</time>
      </trkpt>
      <trkpt lat="44.43508" lon="1.00144">
        <ele>163.56</ele>
        <time>2015-03-08T07:27:28Z</time>
      </trkpt>
      <trkpt lat="44.43517" lon="1.00142">
        <ele>159.72</ele>
        <time>2015-03-08T07:27:32Z</time>
      </trkpt>
      <trkpt lat="44.4353" lon="1.00139">
        <ele>156.35</ele>
        <time>2015-03-08T07:27:38Z</time>
      </trkpt>
      <trkpt lat="44.43553" lon="1.00136">
        <ele>156.35</ele>
        <time>2015-03-08T07:27:49Z</time>
      </trkpt>
      <trkpt lat="44.43568" lon="1.00141">
        <ele>152.51</ele>
        <time>2015-03-08T07:27:55Z</time>
      </trkpt>
      <trkpt lat="44.43576" lon="1.00144">
        <ele>150.1</ele>
        <time>2015-03-08T07:27:59Z</time>
      </trkpt>
      <trkpt lat="44.43578" lon="1.00145">
        <ele>149.62</ele>
        <time>2015-03-08T07:28:00Z</time>
      </trkpt>
      <trkpt lat="44.43579" lon="1.00145">
        <ele>149.14</ele>
        <time>2015-03-08T07:28:01Z</time>
      </trkpt>
      <trkpt lat="44.43588" lon="1.00145">
        <ele>148.66</ele>
        <time>2015-03-08T07:28:05Z</time>
      </trkpt>
      <trkpt lat="44.4361" lon="1.00132">
        <ele>148.18</ele>
        <time>2015-03-08T07:28:17Z</time>
      </trkpt>
      <trkpt lat="44.43644" lon="1.00124">
        <ele>145.78</ele>
        <time>2015-03-08T07:28:31Z</time>
      </trkpt>
      <trkpt lat="44.43666" lon="1.0013">
        <ele>142.89</ele>
        <time>2015-03-08T07:28:40Z</time>
      </trkpt>
      <trkpt lat="44.43695" lon="1.00144">
        <ele>140.49</ele>
        <time>2015-03-08T07:28:54Z</time>
      </trkpt>
      <trkpt lat="44.43717" lon="1.00157">
        <ele>140.49</ele>
        <time>2015-03-08T07:29:07Z</time>
      </trkpt>
      <trkpt lat="44.43718" lon="1.0016">
        <ele>140.49</ele>
        <time>2015-03-08T07:29:09Z</time>
      </trkpt>
      <trkpt lat="44.43719" lon="1.00162">
        <ele>140.49</ele>
        <time>2015-03-08T07:29:10Z</time>
      </trkpt>
      <trkpt lat="44.43719" lon="1.00163">
        <ele>140.01</ele>
        <time>2015-03-08T07:29:11Z</time>
      </trkpt>
      <trkpt lat="44.43719" lon="1.00165">
        <ele>140.01</ele>
        <time>2015-03-08T07:29:12Z</time>
      </trkpt>
      <trkpt lat="44.4372" lon="1.00166">
        <ele>140.01</ele>
        <time>2015-03-08T07:29:13Z</time>
      </trkpt>
      <trkpt lat="44.43721" lon="1.00167">
        <ele>140.01</ele>
        <time>2015-03-08T07:29:14Z</time>
      </trkpt>
      <trkpt lat="44.43722" lon="1.00168">
        <ele>140.01</ele>
        <time>2015-03-08T07:29:15Z</time>
      </trkpt>
      <trkpt lat="44.43723" lon="1.00169">
        <ele>140.01</ele>
        <time>2015-03-08T07:29:16Z</time>
      </trkpt>
      <trkpt lat="44.43724" lon="1.0017">
        <ele>140.01</ele>
        <time>2015-03-08T07:29:17Z</time>
      </trkpt>
      <trkpt lat="44.43725" lon="1.00171">
        <ele>140.01</ele>
        <time>2015-03-08T07:29:18Z</time>
      </trkpt>
      <trkpt lat="44.43735" lon="1.00174">
        <ele>140.01</ele>
        <time>2015-03-08T07:29:26Z</time>
      </trkpt>
      <trkpt lat="44.43736" lon="1.00174">
        <ele>140.01</ele>
        <time>2015-03-08T07:29:27Z</time>
      </trkpt>
      <trkpt lat="44.43738" lon="1.00174">
        <ele>140.01</ele>
        <time>2015-03-08T07:29:28Z</time>
      </trkpt>
      <trkpt lat="44.43741" lon="1.00174">
        <ele>140.01</ele>
        <time>2015-03-08T07:29:30Z</time>
      </trkpt>
      <trkpt lat="44.43742" lon="1.00174">
        <ele>140.01</ele>
        <time>2015-03-08T07:29:31Z</time>
      </trkpt>
      <trkpt lat="44.43744" lon="1.00174">
        <ele>140.01</ele>
        <time>2015-03-08T07:29:32Z</time>
      </trkpt>
      <trkpt lat="44.43745" lon="1.00174">
        <ele>140.01</ele>
        <time>2015-03-08T07:29:33Z</time>
      </trkpt>
      <trkpt lat="44.43753" lon="1.00171">
        <ele>139.53</ele>
        <time>2015-03-08T07:29:38Z</time>
      </trkpt>
      <trkpt lat="44.43754" lon="1.0017">
        <ele>139.53</ele>
        <time>2015-03-08T07:29:39Z</time>
      </trkpt>
      <trkpt lat="44.43756" lon="1.00169">
        <ele>139.53</ele>
        <time>2015-03-08T07:29:40Z</time>
      </trkpt>
      <trkpt lat="44.43758" lon="1.00168">
        <ele>139.53</ele>
        <time>2015-03-08T07:29:41Z</time>
      </trkpt>
      <trkpt lat="44.43759" lon="1.00166">
        <ele>139.53</ele>
        <time>2015-03-08T07:29:42Z</time>
      </trkpt>
      <trkpt lat="44.43761" lon="1.00165">
        <ele>139.53</ele>
        <time>2015-03-08T07:29:43Z</time>
      </trkpt>
      <trkpt lat="44.43762" lon="1.00163">
        <ele>139.53</ele>
        <time>2015-03-08T07:29:44Z</time>
      </trkpt>
      <trkpt lat="44.43764" lon="1.00161">
        <ele>139.05</ele>
        <time>2015-03-08T07:29:45Z</time>
      </trkpt>
      <trkpt lat="44.43766" lon="1.0016">
        <ele>139.05</ele>
        <time>2015-03-08T07:29:46Z</time>
      </trkpt>
      <trkpt lat="44.43767" lon="1.00158">
        <ele>139.05</ele>
        <time>2015-03-08T07:29:47Z</time>
      </trkpt>
      <trkpt lat="44.43769" lon="1.00156">
        <ele>139.05</ele>
        <time>2015-03-08T07:29:48Z</time>
      </trkpt>
      <trkpt lat="44.4377" lon="1.00154">
        <ele>139.05</ele>
        <time>2015-03-08T07:29:49Z</time>
      </trkpt>
      <trkpt lat="44.43772" lon="1.00152">
        <ele>139.05</ele>
        <time>2015-03-08T07:29:50Z</time>
      </trkpt>
      <trkpt lat="44.43774" lon="1.00151">
        <ele>139.05</ele>
        <time>2015-03-08T07:29:51Z</time>
      </trkpt>
      <trkpt lat="44.43776" lon="1.0015">
        <ele>139.05</ele>
        <time>2015-03-08T07:29:52Z</time>
      </trkpt>
      <trkpt lat="44.43778" lon="1.00149">
        <ele>138.57</ele>
        <time>2015-03-08T07:29:53Z</time>
      </trkpt>
      <trkpt lat="44.4378" lon="1.00147">
        <ele>138.57</ele>
        <time>2015-03-08T07:29:54Z</time>
      </trkpt>
      <trkpt lat="44.43785" lon="1.0014">
        <ele>138.57</ele>
        <time>2015-03-08T07:29:57Z</time>
      </trkpt>
      <trkpt lat="44.43786" lon="1.00137">
        <ele>138.57</ele>
        <time>2015-03-08T07:29:58Z</time>
      </trkpt>
      <trkpt lat="44.43787" lon="1.00135">
        <ele>138.57</ele>
        <time>2015-03-08T07:29:59Z</time>
      </trkpt>
      <trkpt lat="44.43789" lon="1.00133">
        <ele>137.61</ele>
        <time>2015-03-08T07:30:00Z</time>
      </trkpt>
      <trkpt lat="44.4379" lon="1.0013">
        <ele>137.61</ele>
        <time>2015-03-08T07:30:01Z</time>
      </trkpt>
      <trkpt lat="44.43792" lon="1.00128">
        <ele>137.61</ele>
        <time>2015-03-08T07:30:02Z</time>
      </trkpt>
      <trkpt lat="44.43794" lon="1.00126">
        <ele>137.61</ele>
        <time>2015-03-08T07:30:03Z</time>
      </trkpt>
      <trkpt lat="44.43796" lon="1.00123">
        <ele>137.61</ele>
        <time>2015-03-08T07:30:04Z</time>
      </trkpt>
      <trkpt lat="44.43814" lon="1.00085">
        <ele>136.64</ele>
        <time>2015-03-08T07:30:16Z</time>
      </trkpt>
      <trkpt lat="44.43818" lon="1.00076">
        <ele>136.64</ele>
        <time>2015-03-08T07:30:19Z</time>
      </trkpt>
      <trkpt lat="44.43819" lon="1.00073">
        <ele>136.64</ele>
        <time>2015-03-08T07:30:20Z</time>
      </trkpt>
      <trkpt lat="44.43839" lon="1.00034">
        <ele>135.68</ele>
        <time>2015-03-08T07:30:33Z</time>
      </trkpt>
      <trkpt lat="44.43853" lon="1.00003">
        <ele>135.2</ele>
        <time>2015-03-08T07:30:44Z</time>
      </trkpt>
      <trkpt lat="44.43865" lon="0.99976">
        <ele>133.76</ele>
        <time>2015-03-08T07:30:59Z</time>
      </trkpt>
      <trkpt lat="44.43878" lon="0.99958">
        <ele>133.28</ele>
        <time>2015-03-08T07:31:14Z</time>
      </trkpt>
      <trkpt lat="44.43891" lon="0.99943">
        <ele>133.28</ele>
        <time>2015-03-08T07:31:28Z</time>
      </trkpt>
      <trkpt lat="44.43892" lon="0.99943">
        <ele>133.28</ele>
        <time>2015-03-08T07:31:29Z</time>
      </trkpt>
      <trkpt lat="44.43893" lon="0.99943">
        <ele>133.28</ele>
        <time>2015-03-08T07:31:30Z</time>
      </trkpt>
      <trkpt lat="44.43894" lon="0.99944">
        <ele>133.28</ele>
        <time>2015-03-08T07:31:31Z</time>
      </trkpt>
      <trkpt lat="44.43895" lon="0.99946">
        <ele>133.28</ele>
        <time>2015-03-08T07:31:33Z</time>
      </trkpt>
      <trkpt lat="44.43895" lon="0.99948">
        <ele>133.28</ele>
        <time>2015-03-08T07:31:34Z</time>
      </trkpt>
      <trkpt lat="44.43892" lon="0.99958">
        <ele>132.8</ele>
        <time>2015-03-08T07:31:41Z</time>
      </trkpt>
      <trkpt lat="44.43892" lon="0.9996">
        <ele>132.8</ele>
        <time>2015-03-08T07:31:42Z</time>
      </trkpt>
      <trkpt lat="44.43893" lon="0.99961">
        <ele>132.8</ele>
        <time>2015-03-08T07:31:43Z</time>
      </trkpt>
      <trkpt lat="44.43893" lon="0.99983">
        <ele>135.68</ele>
        <time>2015-03-08T07:31:56Z</time>
      </trkpt>
      <trkpt lat="44.43892" lon="1.00004">
        <ele>139.05</ele>
        <time>2015-03-08T07:32:09Z</time>
      </trkpt>
      <trkpt lat="44.43891" lon="1.00012">
        <ele>142.41</ele>
        <time>2015-03-08T07:32:14Z</time>
      </trkpt>
      <trkpt lat="44.43891" lon="1.0002">
        <ele>142.89</ele>
        <time>2015-03-08T07:32:19Z</time>
      </trkpt>
      <trkpt lat="44.4389" lon="1.00021">
        <ele>142.89</ele>
        <time>2015-03-08T07:32:20Z</time>
      </trkpt>
      <trkpt lat="44.43891" lon="1.00038">
        <ele>142.41</ele>
        <time>2015-03-08T07:32:28Z</time>
      </trkpt>
      <trkpt lat="44.43894" lon="1.00045">
        <ele>142.41</ele>
        <time>2015-03-08T07:32:32Z</time>
      </trkpt>
      <trkpt lat="44.43894" lon="1.00047">
        <ele>142.41</ele>
        <time>2015-03-08T07:32:33Z</time>
      </trkpt>
      <trkpt lat="44.43895" lon="1.00049">
        <ele>142.41</ele>
        <time>2015-03-08T07:32:34Z</time>
      </trkpt>
      <trkpt lat="44.43895" lon="1.0006">
        <ele>142.41</ele>
        <time>2015-03-08T07:32:40Z</time>
      </trkpt>
      <trkpt lat="44.43896" lon="1.00063">
        <ele>142.41</ele>
        <time>2015-03-08T07:32:41Z</time>
      </trkpt>
      <trkpt lat="44.43896" lon="1.00065">
        <ele>142.41</ele>
        <time>2015-03-08T07:32:42Z</time>
      </trkpt>
      <trkpt lat="44.43896" lon="1.00067">
        <ele>142.41</ele>
        <time>2015-03-08T07:32:43Z</time>
      </trkpt>
      <trkpt lat="44.43896" lon="1.00069">
        <ele>142.41</ele>
        <time>2015-03-08T07:32:44Z</time>
      </trkpt>
      <trkpt lat="44.43896" lon="1.00071">
        <ele>142.41</ele>
        <time>2015-03-08T07:32:45Z</time>
      </trkpt>
      <trkpt lat="44.43896" lon="1.00072">
        <ele>142.41</ele>
        <time>2015-03-08T07:32:46Z</time>
      </trkpt>
      <trkpt lat="44.43897" lon="1.00074">
        <ele>142.41</ele>
        <time>2015-03-08T07:32:47Z</time>
      </trkpt>
      <trkpt lat="44.43897" lon="1.00076">
        <ele>142.41</ele>
        <time>2015-03-08T07:32:48Z</time>
      </trkpt>
      <trkpt lat="44.43898" lon="1.00078">
        <ele>142.41</ele>
        <time>2015-03-08T07:32:49Z</time>
      </trkpt>
      <trkpt lat="44.43898" lon="1.0008">
        <ele>142.41</ele>
        <time>2015-03-08T07:32:50Z</time>
      </trkpt>
      <trkpt lat="44.43898" lon="1.00082">
        <ele>142.41</ele>
        <time>2015-03-08T07:32:51Z</time>
      </trkpt>
      <trkpt lat="44.43899" lon="1.00084">
        <ele>142.41</ele>
        <time>2015-03-08T07:32:52Z</time>
      </trkpt>
      <trkpt lat="44.439" lon="1.00086">
        <ele>142.41</ele>
        <time>2015-03-08T07:32:53Z</time>
      </trkpt>
      <trkpt lat="44.439" lon="1.00087">
        <ele>142.41</ele>
        <time>2015-03-08T07:32:54Z</time>
      </trkpt>
      <trkpt lat="44.43901" lon="1.00091">
        <ele>142.41</ele>
        <time>2015-03-08T07:32:56Z</time>
      </trkpt>
      <trkpt lat="44.43909" lon="1.00114">
        <ele>141.45</ele>
        <time>2015-03-08T07:33:10Z</time>
      </trkpt>
      <trkpt lat="44.43917" lon="1.00136">
        <ele>141.45</ele>
        <time>2015-03-08T07:33:21Z</time>
      </trkpt>
      <trkpt lat="44.43917" lon="1.00138">
        <ele>141.45</ele>
        <time>2015-03-08T07:33:22Z</time>
      </trkpt>
      <trkpt lat="44.43918" lon="1.0014">
        <ele>141.45</ele>
        <time>2015-03-08T07:33:23Z</time>
      </trkpt>
      <trkpt lat="44.43919" lon="1.00141">
        <ele>141.45</ele>
        <time>2015-03-08T07:33:24Z</time>
      </trkpt>
      <trkpt lat="44.43919" lon="1.00143">
        <ele>141.45</ele>
        <time>2015-03-08T07:33:25Z</time>
      </trkpt>
      <trkpt lat="44.4392" lon="1.00147">
        <ele>141.45</ele>
        <time>2015-03-08T07:33:27Z</time>
      </trkpt>
      <trkpt lat="44.4392" lon="1.00148">
        <ele>141.45</ele>
        <time>2015-03-08T07:33:28Z</time>
      </trkpt>
      <trkpt lat="44.4392" lon="1.0015">
        <ele>141.45</ele>
        <time>2015-03-08T07:33:29Z</time>
      </trkpt>
      <trkpt lat="44.43922" lon="1.00157">
        <ele>141.45</ele>
        <time>2015-03-08T07:33:33Z</time>
      </trkpt>
      <trkpt lat="44.43922" lon="1.00159">
        <ele>141.45</ele>
        <time>2015-03-08T07:33:34Z</time>
      </trkpt>
      <trkpt lat="44.43927" lon="1.00167">
        <ele>142.89</ele>
        <time>2015-03-08T07:33:39Z</time>
      </trkpt>
      <trkpt lat="44.43932" lon="1.00172">
        <ele>142.41</ele>
        <time>2015-03-08T07:33:43Z</time>
      </trkpt>
      <trkpt lat="44.43938" lon="1.00187">
        <ele>143.85</ele>
        <time>2015-03-08T07:33:53Z</time>
      </trkpt>
      <trkpt lat="44.43938" lon="1.00189">
        <ele>143.85</ele>
        <time>2015-03-08T07:33:54Z</time>
      </trkpt>
      <trkpt lat="44.43942" lon="1.002">
        <ele>144.82</ele>
        <time>2015-03-08T07:34:01Z</time>
      </trkpt>
      <trkpt lat="44.43943" lon="1.00202">
        <ele>145.78</ele>
        <time>2015-03-08T07:34:02Z</time>
      </trkpt>
      <trkpt lat="44.43943" lon="1.00204">
        <ele>145.78</ele>
        <time>2015-03-08T07:34:03Z</time>
      </trkpt>
      <trkpt lat="44.43943" lon="1.00206">
        <ele>145.3</ele>
        <time>2015-03-08T07:34:04Z</time>
      </trkpt>
      <trkpt lat="44.43943" lon="1.00208">
        <ele>145.3</ele>
        <time>2015-03-08T07:34:05Z</time>
      </trkpt>
      <trkpt lat="44.43945" lon="1.00216">
        <ele>146.74</ele>
        <time>2015-03-08T07:34:10Z</time>
      </trkpt>
      <trkpt lat="44.43946" lon="1.00217">
        <ele>146.74</ele>
        <time>2015-03-08T07:34:11Z</time>
      </trkpt>
      <trkpt lat="44.4395" lon="1.00227">
        <ele>146.74</ele>
        <time>2015-03-08T07:34:16Z</time>
      </trkpt>
      <trkpt lat="44.43954" lon="1.00239">
        <ele>146.74</ele>
        <time>2015-03-08T07:34:22Z</time>
      </trkpt>
      <trkpt lat="44.43955" lon="1.00241">
        <ele>147.7</ele>
        <time>2015-03-08T07:34:23Z</time>
      </trkpt>
      <trkpt lat="44.43956" lon="1.00243">
        <ele>147.7</ele>
        <time>2015-03-08T07:34:24Z</time>
      </trkpt>
      <trkpt lat="44.43956" lon="1.00245">
        <ele>147.7</ele>
        <time>2015-03-08T07:34:25Z</time>
      </trkpt>
      <trkpt lat="44.43958" lon="1.00247">
        <ele>147.7</ele>
        <time>2015-03-08T07:34:26Z</time>
      </trkpt>
      <trkpt lat="44.43959" lon="1.00249">
        <ele>148.18</ele>
        <time>2015-03-08T07:34:27Z</time>
      </trkpt>
      <trkpt lat="44.4396" lon="1.0025">
        <ele>148.18</ele>
        <time>2015-03-08T07:34:28Z</time>
      </trkpt>
      <trkpt lat="44.43961" lon="1.00253">
        <ele>148.18</ele>
        <time>2015-03-08T07:34:30Z</time>
      </trkpt>
      <trkpt lat="44.43961" lon="1.00255">
        <ele>148.18</ele>
        <time>2015-03-08T07:34:31Z</time>
      </trkpt>
      <trkpt lat="44.43962" lon="1.00257">
        <ele>148.18</ele>
        <time>2015-03-08T07:34:32Z</time>
      </trkpt>
      <trkpt lat="44.43963" lon="1.00259">
        <ele>148.18</ele>
        <time>2015-03-08T07:34:33Z</time>
      </trkpt>
      <trkpt lat="44.43965" lon="1.00261">
        <ele>148.66</ele>
        <time>2015-03-08T07:34:34Z</time>
      </trkpt>
      <trkpt lat="44.43966" lon="1.00262">
        <ele>148.66</ele>
        <time>2015-03-08T07:34:35Z</time>
      </trkpt>
      <trkpt lat="44.43967" lon="1.00264">
        <ele>148.66</ele>
        <time>2015-03-08T07:34:36Z</time>
      </trkpt>
      <trkpt lat="44.43968" lon="1.00266">
        <ele>148.66</ele>
        <time>2015-03-08T07:34:37Z</time>
      </trkpt>
      <trkpt lat="44.43969" lon="1.00268">
        <ele>148.66</ele>
        <time>2015-03-08T07:34:38Z</time>
      </trkpt>
      <trkpt lat="44.4397" lon="1.00269">
        <ele>149.14</ele>
        <time>2015-03-08T07:34:39Z</time>
      </trkpt>
      <trkpt lat="44.4398" lon="1.0029">
        <ele>150.1</ele>
        <time>2015-03-08T07:34:52Z</time>
      </trkpt>
      <trkpt lat="44.43981" lon="1.00291">
        <ele>149.62</ele>
        <time>2015-03-08T07:34:53Z</time>
      </trkpt>
      <trkpt lat="44.43982" lon="1.00292">
        <ele>149.62</ele>
        <time>2015-03-08T07:34:54Z</time>
      </trkpt>
      <trkpt lat="44.43997" lon="1.00308">
        <ele>150.1</ele>
        <time>2015-03-08T07:35:06Z</time>
      </trkpt>
      <trkpt lat="44.44011" lon="1.00323">
        <ele>151.54</ele>
        <time>2015-03-08T07:35:19Z</time>
      </trkpt>
      <trkpt lat="44.4402" lon="1.00335">
        <ele>152.03</ele>
        <time>2015-03-08T07:35:29Z</time>
      </trkpt>
      <trkpt lat="44.44035" lon="1.00349">
        <ele>152.51</ele>
        <time>2015-03-08T07:35:41Z</time>
      </trkpt>
      <trkpt lat="44.44044" lon="1.00357">
        <ele>152.99</ele>
        <time>2015-03-08T07:35:47Z</time>
      </trkpt>
      <trkpt lat="44.44045" lon="1.00358">
        <ele>152.99</ele>
        <time>2015-03-08T07:35:48Z</time>
      </trkpt>
      <trkpt lat="44.44058" lon="1.00373">
        <ele>152.99</ele>
        <time>2015-03-08T07:35:59Z</time>
      </trkpt>
      <trkpt lat="44.44074" lon="1.00383">
        <ele>153.95</ele>
        <time>2015-03-08T07:36:10Z</time>
      </trkpt>
      <trkpt lat="44.44091" lon="1.00393">
        <ele>154.43</ele>
        <time>2015-03-08T07:36:21Z</time>
      </trkpt>
      <trkpt lat="44.441" lon="1.00395">
        <ele>154.91</ele>
        <time>2015-03-08T07:36:31Z</time>
      </trkpt>
      <trkpt lat="44.44117" lon="1.00399">
        <ele>155.39</ele>
        <time>2015-03-08T07:36:43Z</time>
      </trkpt>
      <trkpt lat="44.44121" lon="1.004">
        <ele>155.87</ele>
        <time>2015-03-08T07:36:47Z</time>
      </trkpt>
      <trkpt lat="44.44135" lon="1.00398">
        <ele>156.83</ele>
        <time>2015-03-08T07:36:59Z</time>
      </trkpt>
      <trkpt lat="44.44151" lon="1.00395">
        <ele>157.79</ele>
        <time>2015-03-08T07:37:13Z</time>
      </trkpt>
      <trkpt lat="44.44162" lon="1.00394">
        <ele>158.75</ele>
        <time>2015-03-08T07:37:22Z</time>
      </trkpt>
      <trkpt lat="44.44178" lon="1.00399">
        <ele>159.72</ele>
        <time>2015-03-08T07:37:34Z</time>
      </trkpt>
      <trkpt lat="44.44191" lon="1.00404">
        <ele>160.68</ele>
        <time>2015-03-08T07:37:46Z</time>
      </trkpt>
      <trkpt lat="44.44208" lon="1.00415">
        <ele>162.6</ele>
        <time>2015-03-08T07:37:59Z</time>
      </trkpt>
      <trkpt lat="44.44218" lon="1.0042">
        <ele>163.56</ele>
        <time>2015-03-08T07:38:06Z</time>
      </trkpt>
      <trkpt lat="44.44223" lon="1.00423">
        <ele>163.56</ele>
        <time>2015-03-08T07:38:10Z</time>
      </trkpt>
      <trkpt lat="44.44225" lon="1.00425">
        <ele>163.56</ele>
        <time>2015-03-08T07:38:11Z</time>
      </trkpt>
      <trkpt lat="44.44241" lon="1.00435">
        <ele>165</ele>
        <time>2015-03-08T07:38:24Z</time>
      </trkpt>
      <trkpt lat="44.44257" lon="1.00444">
        <ele>166.93</ele>
        <time>2015-03-08T07:38:38Z</time>
      </trkpt>
      <trkpt lat="44.44271" lon="1.00454">
        <ele>167.89</ele>
        <time>2015-03-08T07:38:50Z</time>
      </trkpt>
      <trkpt lat="44.44286" lon="1.00466">
        <ele>169.81</ele>
        <time>2015-03-08T07:39:04Z</time>
      </trkpt>
      <trkpt lat="44.44301" lon="1.00478">
        <ele>171.25</ele>
        <time>2015-03-08T07:39:15Z</time>
      </trkpt>
      <trkpt lat="44.44308" lon="1.00488">
        <ele>174.62</ele>
        <time>2015-03-08T07:39:22Z</time>
      </trkpt>
      <trkpt lat="44.44313" lon="1.00495">
        <ele>177.02</ele>
        <time>2015-03-08T07:39:30Z</time>
      </trkpt>
      <trkpt lat="44.44314" lon="1.00496">
        <ele>177.02</ele>
        <time>2015-03-08T07:39:31Z</time>
      </trkpt>
      <trkpt lat="44.4432" lon="1.00512">
        <ele>176.54</ele>
        <time>2015-03-08T07:39:41Z</time>
      </trkpt>
      <trkpt lat="44.44321" lon="1.00514">
        <ele>176.54</ele>
        <time>2015-03-08T07:39:42Z</time>
      </trkpt>
      <trkpt lat="44.44322" lon="1.00516">
        <ele>176.54</ele>
        <time>2015-03-08T07:39:43Z</time>
      </trkpt>
      <trkpt lat="44.44323" lon="1.00518">
        <ele>176.54</ele>
        <time>2015-03-08T07:39:44Z</time>
      </trkpt>
      <trkpt lat="44.44323" lon="1.0052">
        <ele>176.54</ele>
        <time>2015-03-08T07:39:45Z</time>
      </trkpt>
      <trkpt lat="44.44323" lon="1.00523">
        <ele>176.54</ele>
        <time>2015-03-08T07:39:47Z</time>
      </trkpt>
      <trkpt lat="44.44325" lon="1.0053">
        <ele>177.5</ele>
        <time>2015-03-08T07:39:51Z</time>
      </trkpt>
      <trkpt lat="44.44325" lon="1.00532">
        <ele>177.02</ele>
        <time>2015-03-08T07:39:52Z</time>
      </trkpt>
      <trkpt lat="44.44325" lon="1.00534">
        <ele>177.02</ele>
        <time>2015-03-08T07:39:53Z</time>
      </trkpt>
      <trkpt lat="44.44326" lon="1.0054">
        <ele>177.5</ele>
        <time>2015-03-08T07:39:57Z</time>
      </trkpt>
      <trkpt lat="44.44327" lon="1.00553">
        <ele>178.46</ele>
        <time>2015-03-08T07:40:04Z</time>
      </trkpt>
      <trkpt lat="44.44326" lon="1.00559">
        <ele>178.94</ele>
        <time>2015-03-08T07:40:07Z</time>
      </trkpt>
      <trkpt lat="44.44327" lon="1.00564">
        <ele>178.94</ele>
        <time>2015-03-08T07:40:10Z</time>
      </trkpt>
      <trkpt lat="44.44328" lon="1.00566">
        <ele>178.94</ele>
        <time>2015-03-08T07:40:11Z</time>
      </trkpt>
      <trkpt lat="44.44332" lon="1.00589">
        <ele>179.9</ele>
        <time>2015-03-08T07:40:22Z</time>
      </trkpt>
      <trkpt lat="44.44332" lon="1.0059">
        <ele>180.38</ele>
        <time>2015-03-08T07:40:23Z</time>
      </trkpt>
      <trkpt lat="44.44333" lon="1.00592">
        <ele>180.87</ele>
        <time>2015-03-08T07:40:24Z</time>
      </trkpt>
      <trkpt lat="44.44333" lon="1.00593">
        <ele>180.87</ele>
        <time>2015-03-08T07:40:25Z</time>
      </trkpt>
      <trkpt lat="44.44332" lon="1.00595">
        <ele>181.35</ele>
        <time>2015-03-08T07:40:26Z</time>
      </trkpt>
      <trkpt lat="44.44331" lon="1.00596">
        <ele>181.35</ele>
        <time>2015-03-08T07:40:27Z</time>
      </trkpt>
      <trkpt lat="44.44329" lon="1.00597">
        <ele>181.35</ele>
        <time>2015-03-08T07:40:28Z</time>
      </trkpt>
      <trkpt lat="44.44327" lon="1.00599">
        <ele>181.83</ele>
        <time>2015-03-08T07:40:30Z</time>
      </trkpt>
      <trkpt lat="44.44319" lon="1.00599">
        <ele>182.31</ele>
        <time>2015-03-08T07:40:36Z</time>
      </trkpt>
      <trkpt lat="44.44314" lon="1.00592">
        <ele>182.79</ele>
        <time>2015-03-08T07:40:42Z</time>
      </trkpt>
      <trkpt lat="44.44306" lon="1.00579">
        <ele>183.27</ele>
        <time>2015-03-08T07:40:51Z</time>
      </trkpt>
      <trkpt lat="44.44298" lon="1.00572">
        <ele>183.27</ele>
        <time>2015-03-08T07:40:57Z</time>
      </trkpt>
      <trkpt lat="44.44282" lon="1.00566">
        <ele>184.23</ele>
        <time>2015-03-08T07:41:10Z</time>
      </trkpt>
      <trkpt lat="44.44268" lon="1.00573">
        <ele>186.15</ele>
        <time>2015-03-08T07:41:21Z</time>
      </trkpt>
      <trkpt lat="44.4426" lon="1.00582">
        <ele>186.63</ele>
        <time>2015-03-08T07:41:28Z</time>
      </trkpt>
      <trkpt lat="44.44256" lon="1.00589">
        <ele>187.11</ele>
        <time>2015-03-08T07:41:33Z</time>
      </trkpt>
      <trkpt lat="44.44248" lon="1.006">
        <ele>188.08</ele>
        <time>2015-03-08T07:41:41Z</time>
      </trkpt>
      <trkpt lat="44.44247" lon="1.00605">
        <ele>188.56</ele>
        <time>2015-03-08T07:41:44Z</time>
      </trkpt>
      <trkpt lat="44.44242" lon="1.00627">
        <ele>190.96</ele>
        <time>2015-03-08T07:41:57Z</time>
      </trkpt>
      <trkpt lat="44.44241" lon="1.00633">
        <ele>191.44</ele>
        <time>2015-03-08T07:42:00Z</time>
      </trkpt>
      <trkpt lat="44.4424" lon="1.0064">
        <ele>191.92</ele>
        <time>2015-03-08T07:42:04Z</time>
      </trkpt>
      <trkpt lat="44.44239" lon="1.00651">
        <ele>195.28</ele>
        <time>2015-03-08T07:42:11Z</time>
      </trkpt>
      <trkpt lat="44.4424" lon="1.00659">
        <ele>197.21</ele>
        <time>2015-03-08T07:42:15Z</time>
      </trkpt>
      <trkpt lat="44.44245" lon="1.00684">
        <ele>197.69</ele>
        <time>2015-03-08T07:42:30Z</time>
      </trkpt>
      <trkpt lat="44.44252" lon="1.00705">
        <ele>199.61</ele>
        <time>2015-03-08T07:42:43Z</time>
      </trkpt>
      <trkpt lat="44.44259" lon="1.00715">
        <ele>201.05</ele>
        <time>2015-03-08T07:42:52Z</time>
      </trkpt>
      <trkpt lat="44.44263" lon="1.00721">
        <ele>202.49</ele>
        <time>2015-03-08T07:42:56Z</time>
      </trkpt>
      <trkpt lat="44.44267" lon="1.00734">
        <ele>205.86</ele>
        <time>2015-03-08T07:43:05Z</time>
      </trkpt>
      <trkpt lat="44.44269" lon="1.00753">
        <ele>205.86</ele>
        <time>2015-03-08T07:43:17Z</time>
      </trkpt>
      <trkpt lat="44.44265" lon="1.00775">
        <ele>206.34</ele>
        <time>2015-03-08T07:43:29Z</time>
      </trkpt>
      <trkpt lat="44.44263" lon="1.00794">
        <ele>207.78</ele>
        <time>2015-03-08T07:43:40Z</time>
      </trkpt>
      <trkpt lat="44.44266" lon="1.00801">
        <ele>208.74</ele>
        <time>2015-03-08T07:43:45Z</time>
      </trkpt>
      <trkpt lat="44.44272" lon="1.00806">
        <ele>209.22</ele>
        <time>2015-03-08T07:43:50Z</time>
      </trkpt>
      <trkpt lat="44.44288" lon="1.00813">
        <ele>211.15</ele>
        <time>2015-03-08T07:44:03Z</time>
      </trkpt>
      <trkpt lat="44.44305" lon="1.00817">
        <ele>212.11</ele>
        <time>2015-03-08T07:44:16Z</time>
      </trkpt>
      <trkpt lat="44.44322" lon="1.00824">
        <ele>212.11</ele>
        <time>2015-03-08T07:44:29Z</time>
      </trkpt>
      <trkpt lat="44.44341" lon="1.00833">
        <ele>213.07</ele>
        <time>2015-03-08T07:44:42Z</time>
      </trkpt>
      <trkpt lat="44.44358" lon="1.00849">
        <ele>214.99</ele>
        <time>2015-03-08T07:44:58Z</time>
      </trkpt>
      <trkpt lat="44.44377" lon="1.00857">
        <ele>215.95</ele>
        <time>2015-03-08T07:45:12Z</time>
      </trkpt>
      <trkpt lat="44.44379" lon="1.00864">
        <ele>215.95</ele>
        <time>2015-03-08T07:45:17Z</time>
      </trkpt>
      <trkpt lat="44.44376" lon="1.0088">
        <ele>217.4</ele>
        <time>2015-03-08T07:45:29Z</time>
      </trkpt>
      <trkpt lat="44.44377" lon="1.00899">
        <ele>219.32</ele>
        <time>2015-03-08T07:45:40Z</time>
      </trkpt>
      <trkpt lat="44.4437" lon="1.00913">
        <ele>222.68</ele>
        <time>2015-03-08T07:45:50Z</time>
      </trkpt>
      <trkpt lat="44.44361" lon="1.00933">
        <ele>224.61</ele>
        <time>2015-03-08T07:46:03Z</time>
      </trkpt>
      <trkpt lat="44.44361" lon="1.00935">
        <ele>224.61</ele>
        <time>2015-03-08T07:46:04Z</time>
      </trkpt>
      <trkpt lat="44.44354" lon="1.00949">
        <ele>224.61</ele>
        <time>2015-03-08T07:46:13Z</time>
      </trkpt>
      <trkpt lat="44.4435" lon="1.00963">
        <ele>224.61</ele>
        <time>2015-03-08T07:46:20Z</time>
      </trkpt>
      <trkpt lat="44.44341" lon="1.00986">
        <ele>225.57</ele>
        <time>2015-03-08T07:46:33Z</time>
      </trkpt>
      <trkpt lat="44.44338" lon="1.00993">
        <ele>226.53</ele>
        <time>2015-03-08T07:46:37Z</time>
      </trkpt>
      <trkpt lat="44.44327" lon="1.01017">
        <ele>226.53</ele>
        <time>2015-03-08T07:46:51Z</time>
      </trkpt>
      <trkpt lat="44.44325" lon="1.01025">
        <ele>227.49</ele>
        <time>2015-03-08T07:46:56Z</time>
      </trkpt>
      <trkpt lat="44.44313" lon="1.0103">
        <ele>227.97</ele>
        <time>2015-03-08T07:47:05Z</time>
      </trkpt>
      <trkpt lat="44.44312" lon="1.01031">
        <ele>227.97</ele>
        <time>2015-03-08T07:47:06Z</time>
      </trkpt>
      <trkpt lat="44.4431" lon="1.01031">
        <ele>227.97</ele>
        <time>2015-03-08T07:47:07Z</time>
      </trkpt>
      <trkpt lat="44.44309" lon="1.01031">
        <ele>227.97</ele>
        <time>2015-03-08T07:47:08Z</time>
      </trkpt>
      <trkpt lat="44.44297" lon="1.01038">
        <ele>228.45</ele>
        <time>2015-03-08T07:47:16Z</time>
      </trkpt>
      <trkpt lat="44.44296" lon="1.01039">
        <ele>228.45</ele>
        <time>2015-03-08T07:47:17Z</time>
      </trkpt>
      <trkpt lat="44.44285" lon="1.01054">
        <ele>228.45</ele>
        <time>2015-03-08T07:47:28Z</time>
      </trkpt>
      <trkpt lat="44.44284" lon="1.01056">
        <ele>228.45</ele>
        <time>2015-03-08T07:47:29Z</time>
      </trkpt>
      <trkpt lat="44.4428" lon="1.01064">
        <ele>228.93</ele>
        <time>2015-03-08T07:47:35Z</time>
      </trkpt>
      <trkpt lat="44.44279" lon="1.01065">
        <ele>228.93</ele>
        <time>2015-03-08T07:47:36Z</time>
      </trkpt>
      <trkpt lat="44.44259" lon="1.01081">
        <ele>229.41</ele>
        <time>2015-03-08T07:47:50Z</time>
      </trkpt>
      <trkpt lat="44.44252" lon="1.01085">
        <ele>229.41</ele>
        <time>2015-03-08T07:47:55Z</time>
      </trkpt>
      <trkpt lat="44.44251" lon="1.01087">
        <ele>229.41</ele>
        <time>2015-03-08T07:47:56Z</time>
      </trkpt>
      <trkpt lat="44.4425" lon="1.01089">
        <ele>229.41</ele>
        <time>2015-03-08T07:47:57Z</time>
      </trkpt>
      <trkpt lat="44.44253" lon="1.01096">
        <ele>229.41</ele>
        <time>2015-03-08T07:48:00Z</time>
      </trkpt>
      <trkpt lat="44.44267" lon="1.01108">
        <ele>229.89</ele>
        <time>2015-03-08T07:48:11Z</time>
      </trkpt>
      <trkpt lat="44.44269" lon="1.01115">
        <ele>229.89</ele>
        <time>2015-03-08T07:48:16Z</time>
      </trkpt>
      <trkpt lat="44.44263" lon="1.01132">
        <ele>228.45</ele>
        <time>2015-03-08T07:48:24Z</time>
      </trkpt>
      <trkpt lat="44.4425" lon="1.01147">
        <ele>228.45</ele>
        <time>2015-03-08T07:48:36Z</time>
      </trkpt>
      <trkpt lat="44.44239" lon="1.01166">
        <ele>227.49</ele>
        <time>2015-03-08T07:48:48Z</time>
      </trkpt>
      <trkpt lat="44.44226" lon="1.01186">
        <ele>227.01</ele>
        <time>2015-03-08T07:49:02Z</time>
      </trkpt>
      <trkpt lat="44.44214" lon="1.01216">
        <ele>226.53</ele>
        <time>2015-03-08T07:49:18Z</time>
      </trkpt>
      <trkpt lat="44.442" lon="1.01234">
        <ele>226.05</ele>
        <time>2015-03-08T07:49:31Z</time>
      </trkpt>
      <trkpt lat="44.44193" lon="1.01244">
        <ele>225.57</ele>
        <time>2015-03-08T07:49:37Z</time>
      </trkpt>
      <trkpt lat="44.44196" lon="1.01259">
        <ele>224.61</ele>
        <time>2015-03-08T07:49:45Z</time>
      </trkpt>
      <trkpt lat="44.44211" lon="1.01289">
        <ele>222.2</ele>
        <time>2015-03-08T07:50:01Z</time>
      </trkpt>
      <trkpt lat="44.44221" lon="1.01314">
        <ele>221.24</ele>
        <time>2015-03-08T07:50:15Z</time>
      </trkpt>
      <trkpt lat="44.44233" lon="1.01345">
        <ele>220.28</ele>
        <time>2015-03-08T07:50:31Z</time>
      </trkpt>
      <trkpt lat="44.44233" lon="1.01347">
        <ele>219.8</ele>
        <time>2015-03-08T07:50:32Z</time>
      </trkpt>
      <trkpt lat="44.44237" lon="1.01358">
        <ele>219.8</ele>
        <time>2015-03-08T07:50:38Z</time>
      </trkpt>
      <trkpt lat="44.44239" lon="1.01363">
        <ele>219.8</ele>
        <time>2015-03-08T07:50:41Z</time>
      </trkpt>
      <trkpt lat="44.44248" lon="1.0139">
        <ele>219.8</ele>
        <time>2015-03-08T07:50:57Z</time>
      </trkpt>
      <trkpt lat="44.44257" lon="1.01421">
        <ele>219.8</ele>
        <time>2015-03-08T07:51:11Z</time>
      </trkpt>
      <trkpt lat="44.44257" lon="1.0143">
        <ele>219.8</ele>
        <time>2015-03-08T07:51:25Z</time>
      </trkpt>
      <trkpt lat="44.44257" lon="1.01431">
        <ele>220.76</ele>
        <time>2015-03-08T07:51:50Z</time>
      </trkpt>
      <trkpt lat="44.44256" lon="1.01431">
        <ele>221.24</ele>
        <time>2015-03-08T07:52:16Z</time>
      </trkpt>
      <trkpt lat="44.44256" lon="1.01435">
        <ele>221.24</ele>
        <time>2015-03-08T07:52:38Z</time>
      </trkpt>
      <trkpt lat="44.44243" lon="1.01456">
        <ele>221.24</ele>
        <time>2015-03-08T07:52:51Z</time>
      </trkpt>
      <trkpt lat="44.44226" lon="1.01483">
        <ele>220.28</ele>
        <time>2015-03-08T07:53:01Z</time>
      </trkpt>
      <trkpt lat="44.44211" lon="1.01507">
        <ele>219.32</ele>
        <time>2015-03-08T07:53:10Z</time>
      </trkpt>
      <trkpt lat="44.4421" lon="1.0151">
        <ele>219.32</ele>
        <time>2015-03-08T07:53:11Z</time>
      </trkpt>
      <trkpt lat="44.44208" lon="1.01513">
        <ele>219.32</ele>
        <time>2015-03-08T07:53:12Z</time>
      </trkpt>
      <trkpt lat="44.44206" lon="1.01516">
        <ele>219.32</ele>
        <time>2015-03-08T07:53:13Z</time>
      </trkpt>
      <trkpt lat="44.44205" lon="1.01519">
        <ele>218.36</ele>
        <time>2015-03-08T07:53:14Z</time>
      </trkpt>
      <trkpt lat="44.44203" lon="1.01522">
        <ele>218.84</ele>
        <time>2015-03-08T07:53:15Z</time>
      </trkpt>
      <trkpt lat="44.44202" lon="1.01526">
        <ele>218.84</ele>
        <time>2015-03-08T07:53:16Z</time>
      </trkpt>
      <trkpt lat="44.4418" lon="1.01554">
        <ele>217.88</ele>
        <time>2015-03-08T07:53:27Z</time>
      </trkpt>
      <trkpt lat="44.44169" lon="1.01568">
        <ele>216.91</ele>
        <time>2015-03-08T07:53:33Z</time>
      </trkpt>
      <trkpt lat="44.44168" lon="1.01572">
        <ele>216.91</ele>
        <time>2015-03-08T07:53:34Z</time>
      </trkpt>
      <trkpt lat="44.44168" lon="1.01575">
        <ele>216.91</ele>
        <time>2015-03-08T07:53:35Z</time>
      </trkpt>
      <trkpt lat="44.44168" lon="1.01579">
        <ele>216.43</ele>
        <time>2015-03-08T07:53:36Z</time>
      </trkpt>
      <trkpt lat="44.44169" lon="1.01583">
        <ele>216.43</ele>
        <time>2015-03-08T07:53:37Z</time>
      </trkpt>
      <trkpt lat="44.4417" lon="1.01586">
        <ele>216.43</ele>
        <time>2015-03-08T07:53:38Z</time>
      </trkpt>
      <trkpt lat="44.44172" lon="1.01589">
        <ele>216.43</ele>
        <time>2015-03-08T07:53:39Z</time>
      </trkpt>
      <trkpt lat="44.44173" lon="1.01593">
        <ele>216.43</ele>
        <time>2015-03-08T07:53:40Z</time>
      </trkpt>
      <trkpt lat="44.44174" lon="1.01596">
        <ele>216.43</ele>
        <time>2015-03-08T07:53:41Z</time>
      </trkpt>
      <trkpt lat="44.44183" lon="1.01635">
        <ele>214.99</ele>
        <time>2015-03-08T07:53:52Z</time>
      </trkpt>
      <trkpt lat="44.44185" lon="1.01673">
        <ele>213.07</ele>
        <time>2015-03-08T07:54:03Z</time>
      </trkpt>
      <trkpt lat="44.44186" lon="1.01712">
        <ele>211.63</ele>
        <time>2015-03-08T07:54:14Z</time>
      </trkpt>
      <trkpt lat="44.44187" lon="1.01729">
        <ele>211.15</ele>
        <time>2015-03-08T07:54:19Z</time>
      </trkpt>
      <trkpt lat="44.44187" lon="1.01733">
        <ele>211.15</ele>
        <time>2015-03-08T07:54:20Z</time>
      </trkpt>
      <trkpt lat="44.44187" lon="1.01774">
        <ele>209.22</ele>
        <time>2015-03-08T07:54:32Z</time>
      </trkpt>
      <trkpt lat="44.44189" lon="1.01801">
        <ele>208.74</ele>
        <time>2015-03-08T07:54:39Z</time>
      </trkpt>
      <trkpt lat="44.4419" lon="1.01804">
        <ele>208.74</ele>
        <time>2015-03-08T07:54:40Z</time>
      </trkpt>
      <trkpt lat="44.44191" lon="1.01807">
        <ele>208.26</ele>
        <time>2015-03-08T07:54:41Z</time>
      </trkpt>
      <trkpt lat="44.44192" lon="1.01809">
        <ele>208.26</ele>
        <time>2015-03-08T07:54:42Z</time>
      </trkpt>
      <trkpt lat="44.44194" lon="1.01812">
        <ele>208.26</ele>
        <time>2015-03-08T07:54:43Z</time>
      </trkpt>
      <trkpt lat="44.44195" lon="1.01815">
        <ele>208.26</ele>
        <time>2015-03-08T07:54:44Z</time>
      </trkpt>
      <trkpt lat="44.44204" lon="1.01835">
        <ele>208.26</ele>
        <time>2015-03-08T07:54:50Z</time>
      </trkpt>
      <trkpt lat="44.44206" lon="1.01837">
        <ele>208.26</ele>
        <time>2015-03-08T07:54:51Z</time>
      </trkpt>
      <trkpt lat="44.44207" lon="1.0184">
        <ele>208.26</ele>
        <time>2015-03-08T07:54:52Z</time>
      </trkpt>
      <trkpt lat="44.44214" lon="1.01852">
        <ele>208.26</ele>
        <time>2015-03-08T07:54:56Z</time>
      </trkpt>
      <trkpt lat="44.44216" lon="1.01855">
        <ele>208.26</ele>
        <time>2015-03-08T07:54:57Z</time>
      </trkpt>
      <trkpt lat="44.44221" lon="1.01864">
        <ele>208.26</ele>
        <time>2015-03-08T07:55:00Z</time>
      </trkpt>
      <trkpt lat="44.44223" lon="1.01867">
        <ele>208.26</ele>
        <time>2015-03-08T07:55:01Z</time>
      </trkpt>
      <trkpt lat="44.44224" lon="1.0187">
        <ele>208.26</ele>
        <time>2015-03-08T07:55:02Z</time>
      </trkpt>
      <trkpt lat="44.44235" lon="1.019">
        <ele>209.7</ele>
        <time>2015-03-08T07:55:11Z</time>
      </trkpt>
      <trkpt lat="44.4424" lon="1.01926">
        <ele>209.7</ele>
        <time>2015-03-08T07:55:18Z</time>
      </trkpt>
      <trkpt lat="44.4424" lon="1.01929">
        <ele>209.7</ele>
        <time>2015-03-08T07:55:19Z</time>
      </trkpt>
      <trkpt lat="44.4424" lon="1.01933">
        <ele>209.7</ele>
        <time>2015-03-08T07:55:20Z</time>
      </trkpt>
      <trkpt lat="44.4424" lon="1.01936">
        <ele>209.7</ele>
        <time>2015-03-08T07:55:21Z</time>
      </trkpt>
      <trkpt lat="44.44241" lon="1.0194">
        <ele>209.7</ele>
        <time>2015-03-08T07:55:22Z</time>
      </trkpt>
      <trkpt lat="44.44243" lon="1.01942">
        <ele>209.7</ele>
        <time>2015-03-08T07:55:23Z</time>
      </trkpt>
      <trkpt lat="44.44245" lon="1.01943">
        <ele>209.7</ele>
        <time>2015-03-08T07:55:24Z</time>
      </trkpt>
      <trkpt lat="44.44248" lon="1.01944">
        <ele>209.7</ele>
        <time>2015-03-08T07:55:25Z</time>
      </trkpt>
      <trkpt lat="44.4425" lon="1.01945">
        <ele>209.7</ele>
        <time>2015-03-08T07:55:26Z</time>
      </trkpt>
      <trkpt lat="44.44253" lon="1.01945">
        <ele>209.7</ele>
        <time>2015-03-08T07:55:27Z</time>
      </trkpt>
      <trkpt lat="44.44256" lon="1.01946">
        <ele>209.7</ele>
        <time>2015-03-08T07:55:28Z</time>
      </trkpt>
      <trkpt lat="44.44258" lon="1.01947">
        <ele>209.7</ele>
        <time>2015-03-08T07:55:29Z</time>
      </trkpt>
      <trkpt lat="44.44261" lon="1.01947">
        <ele>209.7</ele>
        <time>2015-03-08T07:55:30Z</time>
      </trkpt>
      <trkpt lat="44.44263" lon="1.01949">
        <ele>209.7</ele>
        <time>2015-03-08T07:55:31Z</time>
      </trkpt>
      <trkpt lat="44.44287" lon="1.01954">
        <ele>206.82</ele>
        <time>2015-03-08T07:55:41Z</time>
      </trkpt>
      <trkpt lat="44.44289" lon="1.01955">
        <ele>206.34</ele>
        <time>2015-03-08T07:55:42Z</time>
      </trkpt>
      <trkpt lat="44.44292" lon="1.01955">
        <ele>205.38</ele>
        <time>2015-03-08T07:55:43Z</time>
      </trkpt>
      <trkpt lat="44.44294" lon="1.01955">
        <ele>204.9</ele>
        <time>2015-03-08T07:55:44Z</time>
      </trkpt>
      <trkpt lat="44.44296" lon="1.01955">
        <ele>204.42</ele>
        <time>2015-03-08T07:55:45Z</time>
      </trkpt>
      <trkpt lat="44.44312" lon="1.01943">
        <ele>203.46</ele>
        <time>2015-03-08T07:55:53Z</time>
      </trkpt>
      <trkpt lat="44.44315" lon="1.0193">
        <ele>203.46</ele>
        <time>2015-03-08T07:55:57Z</time>
      </trkpt>
      <trkpt lat="44.44322" lon="1.01919">
        <ele>203.46</ele>
        <time>2015-03-08T07:56:01Z</time>
      </trkpt>
      <trkpt lat="44.44344" lon="1.01905">
        <ele>201.53</ele>
        <time>2015-03-08T07:56:12Z</time>
      </trkpt>
      <trkpt lat="44.4435" lon="1.01901">
        <ele>197.69</ele>
        <time>2015-03-08T07:56:15Z</time>
      </trkpt>
      <trkpt lat="44.44352" lon="1.01899">
        <ele>196.73</ele>
        <time>2015-03-08T07:56:16Z</time>
      </trkpt>
      <trkpt lat="44.44357" lon="1.01892">
        <ele>192.4</ele>
        <time>2015-03-08T07:56:20Z</time>
      </trkpt>
      <trkpt lat="44.44366" lon="1.01883">
        <ele>190.96</ele>
        <time>2015-03-08T07:56:26Z</time>
      </trkpt>
      <trkpt lat="44.44372" lon="1.01879">
        <ele>190.96</ele>
        <time>2015-03-08T07:56:30Z</time>
      </trkpt>
      <trkpt lat="44.44402" lon="1.01889">
        <ele>190.96</ele>
        <time>2015-03-08T07:56:42Z</time>
      </trkpt>
      <trkpt lat="44.44412" lon="1.019">
        <ele>190.96</ele>
        <time>2015-03-08T07:56:46Z</time>
      </trkpt>
      <trkpt lat="44.44432" lon="1.01929">
        <ele>190.96</ele>
        <time>2015-03-08T07:56:59Z</time>
      </trkpt>
      <trkpt lat="44.44452" lon="1.01949">
        <ele>190.48</ele>
        <time>2015-03-08T07:57:10Z</time>
      </trkpt>
      <trkpt lat="44.44459" lon="1.01959">
        <ele>189.04</ele>
        <time>2015-03-08T07:57:15Z</time>
      </trkpt>
      <trkpt lat="44.44467" lon="1.01978">
        <ele>184.71</ele>
        <time>2015-03-08T07:57:23Z</time>
      </trkpt>
      <trkpt lat="44.44474" lon="1.01991">
        <ele>181.35</ele>
        <time>2015-03-08T07:57:28Z</time>
      </trkpt>
      <trkpt lat="44.44486" lon="1.02005">
        <ele>180.38</ele>
        <time>2015-03-08T07:57:34Z</time>
      </trkpt>
      <trkpt lat="44.44506" lon="1.02039">
        <ele>178.46</ele>
        <time>2015-03-08T07:57:49Z</time>
      </trkpt>
      <trkpt lat="44.44507" lon="1.02076">
        <ele>177.5</ele>
        <time>2015-03-08T07:58:01Z</time>
      </trkpt>
      <trkpt lat="44.4451" lon="1.02086">
        <ele>177.5</ele>
        <time>2015-03-08T07:58:04Z</time>
      </trkpt>
      <trkpt lat="44.44517" lon="1.02089">
        <ele>177.02</ele>
        <time>2015-03-08T07:58:07Z</time>
      </trkpt>
      <trkpt lat="44.44519" lon="1.02089">
        <ele>177.02</ele>
        <time>2015-03-08T07:58:08Z</time>
      </trkpt>
      <trkpt lat="44.44521" lon="1.02088">
        <ele>177.02</ele>
        <time>2015-03-08T07:58:09Z</time>
      </trkpt>
      <trkpt lat="44.44524" lon="1.02087">
        <ele>177.02</ele>
        <time>2015-03-08T07:58:10Z</time>
      </trkpt>
      <trkpt lat="44.44526" lon="1.02087">
        <ele>177.02</ele>
        <time>2015-03-08T07:58:11Z</time>
      </trkpt>
      <trkpt lat="44.44528" lon="1.02088">
        <ele>177.02</ele>
        <time>2015-03-08T07:58:12Z</time>
      </trkpt>
      <trkpt lat="44.44531" lon="1.02091">
        <ele>177.02</ele>
        <time>2015-03-08T07:58:13Z</time>
      </trkpt>
      <trkpt lat="44.44533" lon="1.02093">
        <ele>177.02</ele>
        <time>2015-03-08T07:58:14Z</time>
      </trkpt>
      <trkpt lat="44.44535" lon="1.02096">
        <ele>177.02</ele>
        <time>2015-03-08T07:58:15Z</time>
      </trkpt>
      <trkpt lat="44.44537" lon="1.02099">
        <ele>177.02</ele>
        <time>2015-03-08T07:58:16Z</time>
      </trkpt>
      <trkpt lat="44.44555" lon="1.02111">
        <ele>176.54</ele>
        <time>2015-03-08T07:58:24Z</time>
      </trkpt>
      <trkpt lat="44.44556" lon="1.02112">
        <ele>176.54</ele>
        <time>2015-03-08T07:58:25Z</time>
      </trkpt>
      <trkpt lat="44.44558" lon="1.02113">
        <ele>176.54</ele>
        <time>2015-03-08T07:58:26Z</time>
      </trkpt>
      <trkpt lat="44.4456" lon="1.02114">
        <ele>176.54</ele>
        <time>2015-03-08T07:58:27Z</time>
      </trkpt>
      <trkpt lat="44.44562" lon="1.02114">
        <ele>176.54</ele>
        <time>2015-03-08T07:58:28Z</time>
      </trkpt>
      <trkpt lat="44.44583" lon="1.0213">
        <ele>175.58</ele>
        <time>2015-03-08T07:58:42Z</time>
      </trkpt>
      <trkpt lat="44.44605" lon="1.02132">
        <ele>175.1</ele>
        <time>2015-03-08T07:58:57Z</time>
      </trkpt>
      <trkpt lat="44.44624" lon="1.02127">
        <ele>174.62</ele>
        <time>2015-03-08T07:59:09Z</time>
      </trkpt>
      <trkpt lat="44.44651" lon="1.02125">
        <ele>174.14</ele>
        <time>2015-03-08T07:59:25Z</time>
      </trkpt>
      <trkpt lat="44.44672" lon="1.02127">
        <ele>173.66</ele>
        <time>2015-03-08T07:59:39Z</time>
      </trkpt>
      <trkpt lat="44.44683" lon="1.02128">
        <ele>173.17</ele>
        <time>2015-03-08T07:59:49Z</time>
      </trkpt>
      <trkpt lat="44.44706" lon="1.02134">
        <ele>172.69</ele>
        <time>2015-03-08T08:00:04Z</time>
      </trkpt>
      <trkpt lat="44.44708" lon="1.02136">
        <ele>172.69</ele>
        <time>2015-03-08T08:00:05Z</time>
      </trkpt>
      <trkpt lat="44.44709" lon="1.02137">
        <ele>172.69</ele>
        <time>2015-03-08T08:00:06Z</time>
      </trkpt>
      <trkpt lat="44.44728" lon="1.02149">
        <ele>172.69</ele>
        <time>2015-03-08T08:00:18Z</time>
      </trkpt>
      <trkpt lat="44.44729" lon="1.02149">
        <ele>171.73</ele>
        <time>2015-03-08T08:00:19Z</time>
      </trkpt>
      <trkpt lat="44.44731" lon="1.02148">
        <ele>172.21</ele>
        <time>2015-03-08T08:00:20Z</time>
      </trkpt>
      <trkpt lat="44.44732" lon="1.02149">
        <ele>172.21</ele>
        <time>2015-03-08T08:00:21Z</time>
      </trkpt>
      <trkpt lat="44.44734" lon="1.0215">
        <ele>172.21</ele>
        <time>2015-03-08T08:00:22Z</time>
      </trkpt>
      <trkpt lat="44.44735" lon="1.0215">
        <ele>171.73</ele>
        <time>2015-03-08T08:00:23Z</time>
      </trkpt>
      <trkpt lat="44.44737" lon="1.02151">
        <ele>171.73</ele>
        <time>2015-03-08T08:00:24Z</time>
      </trkpt>
      <trkpt lat="44.44757" lon="1.02159">
        <ele>171.73</ele>
        <time>2015-03-08T08:00:37Z</time>
      </trkpt>
      <trkpt lat="44.44761" lon="1.02159">
        <ele>171.25</ele>
        <time>2015-03-08T08:00:40Z</time>
      </trkpt>
      <trkpt lat="44.44763" lon="1.02159">
        <ele>171.25</ele>
        <time>2015-03-08T08:00:41Z</time>
      </trkpt>
      <trkpt lat="44.44764" lon="1.02159">
        <ele>171.25</ele>
        <time>2015-03-08T08:00:42Z</time>
      </trkpt>
      <trkpt lat="44.44765" lon="1.02158">
        <ele>171.25</ele>
        <time>2015-03-08T08:00:43Z</time>
      </trkpt>
      <trkpt lat="44.44767" lon="1.02158">
        <ele>171.25</ele>
        <time>2015-03-08T08:00:44Z</time>
      </trkpt>
      <trkpt lat="44.44769" lon="1.02159">
        <ele>171.25</ele>
        <time>2015-03-08T08:00:45Z</time>
      </trkpt>
      <trkpt lat="44.4477" lon="1.02159">
        <ele>171.25</ele>
        <time>2015-03-08T08:00:46Z</time>
      </trkpt>
      <trkpt lat="44.44772" lon="1.02159">
        <ele>171.25</ele>
        <time>2015-03-08T08:00:47Z</time>
      </trkpt>
      <trkpt lat="44.44785" lon="1.02158">
        <ele>170.77</ele>
        <time>2015-03-08T08:00:56Z</time>
      </trkpt>
      <trkpt lat="44.44806" lon="1.02158">
        <ele>169.81</ele>
        <time>2015-03-08T08:01:10Z</time>
      </trkpt>
      <trkpt lat="44.44809" lon="1.02157">
        <ele>169.81</ele>
        <time>2015-03-08T08:01:12Z</time>
      </trkpt>
      <trkpt lat="44.4481" lon="1.02157">
        <ele>169.81</ele>
        <time>2015-03-08T08:01:13Z</time>
      </trkpt>
      <trkpt lat="44.44812" lon="1.02157">
        <ele>169.81</ele>
        <time>2015-03-08T08:01:14Z</time>
      </trkpt>
      <trkpt lat="44.44813" lon="1.02157">
        <ele>169.81</ele>
        <time>2015-03-08T08:01:15Z</time>
      </trkpt>
      <trkpt lat="44.44815" lon="1.02157">
        <ele>169.81</ele>
        <time>2015-03-08T08:01:16Z</time>
      </trkpt>
      <trkpt lat="44.44817" lon="1.02158">
        <ele>169.81</ele>
        <time>2015-03-08T08:01:17Z</time>
      </trkpt>
      <trkpt lat="44.44818" lon="1.02158">
        <ele>169.81</ele>
        <time>2015-03-08T08:01:18Z</time>
      </trkpt>
      <trkpt lat="44.4482" lon="1.02159">
        <ele>169.81</ele>
        <time>2015-03-08T08:01:19Z</time>
      </trkpt>
      <trkpt lat="44.44822" lon="1.02159">
        <ele>169.81</ele>
        <time>2015-03-08T08:01:20Z</time>
      </trkpt>
      <trkpt lat="44.44823" lon="1.0216">
        <ele>169.81</ele>
        <time>2015-03-08T08:01:21Z</time>
      </trkpt>
      <trkpt lat="44.44834" lon="1.02161">
        <ele>169.33</ele>
        <time>2015-03-08T08:01:29Z</time>
      </trkpt>
      <trkpt lat="44.44836" lon="1.02162">
        <ele>169.33</ele>
        <time>2015-03-08T08:01:30Z</time>
      </trkpt>
      <trkpt lat="44.44837" lon="1.02163">
        <ele>169.33</ele>
        <time>2015-03-08T08:01:31Z</time>
      </trkpt>
      <trkpt lat="44.44839" lon="1.02163">
        <ele>169.33</ele>
        <time>2015-03-08T08:01:32Z</time>
      </trkpt>
      <trkpt lat="44.4484" lon="1.02163">
        <ele>169.33</ele>
        <time>2015-03-08T08:01:33Z</time>
      </trkpt>
      <trkpt lat="44.44842" lon="1.02163">
        <ele>169.33</ele>
        <time>2015-03-08T08:01:34Z</time>
      </trkpt>
      <trkpt lat="44.44843" lon="1.02163">
        <ele>169.33</ele>
        <time>2015-03-08T08:01:35Z</time>
      </trkpt>
      <trkpt lat="44.44863" lon="1.02165">
        <ele>168.85</ele>
        <time>2015-03-08T08:01:48Z</time>
      </trkpt>
      <trkpt lat="44.44886" lon="1.02171">
        <ele>168.85</ele>
        <time>2015-03-08T08:02:03Z</time>
      </trkpt>
      <trkpt lat="44.4491" lon="1.02183">
        <ele>168.85</ele>
        <time>2015-03-08T08:02:19Z</time>
      </trkpt>
      <trkpt lat="44.44932" lon="1.02197">
        <ele>168.37</ele>
        <time>2015-03-08T08:02:36Z</time>
      </trkpt>
      <trkpt lat="44.44939" lon="1.02211">
        <ele>168.37</ele>
        <time>2015-03-08T08:02:44Z</time>
      </trkpt>
      <trkpt lat="44.4494" lon="1.02213">
        <ele>167.89</ele>
        <time>2015-03-08T08:02:45Z</time>
      </trkpt>
      <trkpt lat="44.44942" lon="1.02218">
        <ele>167.89</ele>
        <time>2015-03-08T08:02:48Z</time>
      </trkpt>
      <trkpt lat="44.44943" lon="1.0222">
        <ele>167.89</ele>
        <time>2015-03-08T08:02:49Z</time>
      </trkpt>
      <trkpt lat="44.44943" lon="1.02221">
        <ele>167.89</ele>
        <time>2015-03-08T08:02:50Z</time>
      </trkpt>
      <trkpt lat="44.44944" lon="1.02223">
        <ele>167.89</ele>
        <time>2015-03-08T08:02:51Z</time>
      </trkpt>
      <trkpt lat="44.44944" lon="1.02225">
        <ele>167.89</ele>
        <time>2015-03-08T08:02:52Z</time>
      </trkpt>
      <trkpt lat="44.44944" lon="1.02227">
        <ele>167.89</ele>
        <time>2015-03-08T08:02:53Z</time>
      </trkpt>
      <trkpt lat="44.44942" lon="1.0223">
        <ele>167.89</ele>
        <time>2015-03-08T08:02:55Z</time>
      </trkpt>
      <trkpt lat="44.44923" lon="1.02243">
        <ele>168.85</ele>
        <time>2015-03-08T08:03:09Z</time>
      </trkpt>
      <trkpt lat="44.44918" lon="1.02248">
        <ele>169.81</ele>
        <time>2015-03-08T08:03:16Z</time>
      </trkpt>
      <trkpt lat="44.44911" lon="1.0225">
        <ele>174.14</ele>
        <time>2015-03-08T08:03:22Z</time>
      </trkpt>
      <trkpt lat="44.44909" lon="1.0225">
        <ele>177.5</ele>
        <time>2015-03-08T08:03:26Z</time>
      </trkpt>
      <trkpt lat="44.44908" lon="1.0225">
        <ele>177.98</ele>
        <time>2015-03-08T08:03:27Z</time>
      </trkpt>
      <trkpt lat="44.44901" lon="1.0225">
        <ele>178.46</ele>
        <time>2015-03-08T08:03:34Z</time>
      </trkpt>
      <trkpt lat="44.4489" lon="1.02255">
        <ele>179.42</ele>
        <time>2015-03-08T08:03:47Z</time>
      </trkpt>
      <trkpt lat="44.44882" lon="1.02258">
        <ele>181.83</ele>
        <time>2015-03-08T08:03:56Z</time>
      </trkpt>
      <trkpt lat="44.44877" lon="1.02261">
        <ele>186.15</ele>
        <time>2015-03-08T08:04:01Z</time>
      </trkpt>
      <trkpt lat="44.44873" lon="1.02264">
        <ele>187.59</ele>
        <time>2015-03-08T08:04:08Z</time>
      </trkpt>
      <trkpt lat="44.44872" lon="1.02269">
        <ele>187.59</ele>
        <time>2015-03-08T08:04:11Z</time>
      </trkpt>
      <trkpt lat="44.4487" lon="1.02275">
        <ele>187.59</ele>
        <time>2015-03-08T08:04:15Z</time>
      </trkpt>
      <trkpt lat="44.44871" lon="1.02301">
        <ele>188.56</ele>
        <time>2015-03-08T08:04:30Z</time>
      </trkpt>
      <trkpt lat="44.4487" lon="1.02312">
        <ele>189.52</ele>
        <time>2015-03-08T08:04:37Z</time>
      </trkpt>
      <trkpt lat="44.44861" lon="1.02329">
        <ele>191.44</ele>
        <time>2015-03-08T08:04:50Z</time>
      </trkpt>
      <trkpt lat="44.44847" lon="1.02336">
        <ele>192.4</ele>
        <time>2015-03-08T08:05:03Z</time>
      </trkpt>
      <trkpt lat="44.44836" lon="1.02347">
        <ele>194.32</ele>
        <time>2015-03-08T08:05:14Z</time>
      </trkpt>
      <trkpt lat="44.44824" lon="1.02353">
        <ele>195.77</ele>
        <time>2015-03-08T08:05:24Z</time>
      </trkpt>
      <trkpt lat="44.44817" lon="1.02358">
        <ele>196.25</ele>
        <time>2015-03-08T08:05:30Z</time>
      </trkpt>
      <trkpt lat="44.44805" lon="1.02368">
        <ele>197.69</ele>
        <time>2015-03-08T08:05:42Z</time>
      </trkpt>
      <trkpt lat="44.44787" lon="1.02372">
        <ele>199.61</ele>
        <time>2015-03-08T08:05:55Z</time>
      </trkpt>
      <trkpt lat="44.44785" lon="1.02373">
        <ele>199.61</ele>
        <time>2015-03-08T08:05:57Z</time>
      </trkpt>
      <trkpt lat="44.44767" lon="1.02382">
        <ele>201.05</ele>
        <time>2015-03-08T08:06:10Z</time>
      </trkpt>
      <trkpt lat="44.44754" lon="1.0239">
        <ele>202.01</ele>
        <time>2015-03-08T08:06:20Z</time>
      </trkpt>
      <trkpt lat="44.44743" lon="1.02397">
        <ele>203.46</ele>
        <time>2015-03-08T08:06:29Z</time>
      </trkpt>
      <trkpt lat="44.44723" lon="1.02413">
        <ele>204.9</ele>
        <time>2015-03-08T08:06:44Z</time>
      </trkpt>
      <trkpt lat="44.44722" lon="1.02414">
        <ele>204.9</ele>
        <time>2015-03-08T08:06:45Z</time>
      </trkpt>
      <trkpt lat="44.44711" lon="1.02422">
        <ele>205.38</ele>
        <time>2015-03-08T08:06:54Z</time>
      </trkpt>
      <trkpt lat="44.44696" lon="1.02438">
        <ele>206.34</ele>
        <time>2015-03-08T08:07:09Z</time>
      </trkpt>
      <trkpt lat="44.44682" lon="1.02458">
        <ele>208.26</ele>
        <time>2015-03-08T08:07:23Z</time>
      </trkpt>
      <trkpt lat="44.44667" lon="1.02476">
        <ele>209.7</ele>
        <time>2015-03-08T08:07:36Z</time>
      </trkpt>
      <trkpt lat="44.4466" lon="1.025">
        <ele>211.63</ele>
        <time>2015-03-08T08:07:50Z</time>
      </trkpt>
      <trkpt lat="44.44654" lon="1.02533">
        <ele>212.59</ele>
        <time>2015-03-08T08:08:06Z</time>
      </trkpt>
      <trkpt lat="44.44654" lon="1.02544">
        <ele>213.07</ele>
        <time>2015-03-08T08:08:12Z</time>
      </trkpt>
      <trkpt lat="44.44652" lon="1.02551">
        <ele>213.55</ele>
        <time>2015-03-08T08:08:16Z</time>
      </trkpt>
      <trkpt lat="44.44647" lon="1.02579">
        <ele>214.51</ele>
        <time>2015-03-08T08:08:30Z</time>
      </trkpt>
      <trkpt lat="44.44645" lon="1.02606">
        <ele>215.47</ele>
        <time>2015-03-08T08:08:43Z</time>
      </trkpt>
      <trkpt lat="44.44642" lon="1.02614">
        <ele>215.95</ele>
        <time>2015-03-08T08:08:48Z</time>
      </trkpt>
      <trkpt lat="44.4464" lon="1.02625">
        <ele>216.43</ele>
        <time>2015-03-08T08:08:54Z</time>
      </trkpt>
      <trkpt lat="44.44634" lon="1.02653">
        <ele>216.91</ele>
        <time>2015-03-08T08:09:07Z</time>
      </trkpt>
      <trkpt lat="44.44634" lon="1.02657">
        <ele>217.4</ele>
        <time>2015-03-08T08:09:09Z</time>
      </trkpt>
      <trkpt lat="44.4463" lon="1.02678">
        <ele>217.4</ele>
        <time>2015-03-08T08:09:21Z</time>
      </trkpt>
      <trkpt lat="44.44619" lon="1.02707">
        <ele>217.88</ele>
        <time>2015-03-08T08:09:36Z</time>
      </trkpt>
      <trkpt lat="44.44609" lon="1.02733">
        <ele>218.36</ele>
        <time>2015-03-08T08:09:51Z</time>
      </trkpt>
      <trkpt lat="44.44606" lon="1.02744">
        <ele>218.36</ele>
        <time>2015-03-08T08:09:57Z</time>
      </trkpt>
      <trkpt lat="44.44604" lon="1.02749">
        <ele>218.36</ele>
        <time>2015-03-08T08:10:00Z</time>
      </trkpt>
      <trkpt lat="44.44597" lon="1.0277">
        <ele>218.36</ele>
        <time>2015-03-08T08:10:11Z</time>
      </trkpt>
      <trkpt lat="44.44596" lon="1.02775">
        <ele>217.4</ele>
        <time>2015-03-08T08:10:14Z</time>
      </trkpt>
      <trkpt lat="44.44593" lon="1.0279">
        <ele>216.91</ele>
        <time>2015-03-08T08:10:21Z</time>
      </trkpt>
      <trkpt lat="44.44584" lon="1.02821">
        <ele>216.91</ele>
        <time>2015-03-08T08:10:36Z</time>
      </trkpt>
      <trkpt lat="44.4458" lon="1.02845">
        <ele>216.91</ele>
        <time>2015-03-08T08:10:48Z</time>
      </trkpt>
      <trkpt lat="44.44577" lon="1.02864">
        <ele>216.91</ele>
        <time>2015-03-08T08:10:58Z</time>
      </trkpt>
      <trkpt lat="44.44575" lon="1.02874">
        <ele>216.91</ele>
        <time>2015-03-08T08:11:03Z</time>
      </trkpt>
      <trkpt lat="44.44563" lon="1.02896">
        <ele>216.91</ele>
        <time>2015-03-08T08:11:17Z</time>
      </trkpt>
      <trkpt lat="44.44554" lon="1.02913">
        <ele>216.91</ele>
        <time>2015-03-08T08:11:28Z</time>
      </trkpt>
      <trkpt lat="44.44552" lon="1.02914">
        <ele>217.88</ele>
        <time>2015-03-08T08:11:29Z</time>
      </trkpt>
      <trkpt lat="44.4454" lon="1.02934">
        <ele>217.88</ele>
        <time>2015-03-08T08:11:41Z</time>
      </trkpt>
      <trkpt lat="44.4453" lon="1.02959">
        <ele>217.88</ele>
        <time>2015-03-08T08:11:55Z</time>
      </trkpt>
      <trkpt lat="44.44529" lon="1.02962">
        <ele>217.88</ele>
        <time>2015-03-08T08:11:57Z</time>
      </trkpt>
      <trkpt lat="44.44526" lon="1.0297">
        <ele>218.84</ele>
        <time>2015-03-08T08:12:02Z</time>
      </trkpt>
      <trkpt lat="44.44512" lon="1.02994">
        <ele>218.84</ele>
        <time>2015-03-08T08:12:17Z</time>
      </trkpt>
      <trkpt lat="44.44499" lon="1.03023">
        <ele>218.84</ele>
        <time>2015-03-08T08:12:34Z</time>
      </trkpt>
      <trkpt lat="44.44478" lon="1.03061">
        <ele>218.84</ele>
        <time>2015-03-08T08:12:54Z</time>
      </trkpt>
      <trkpt lat="44.4446" lon="1.0309">
        <ele>218.84</ele>
        <time>2015-03-08T08:13:11Z</time>
      </trkpt>
      <trkpt lat="44.44455" lon="1.03091">
        <ele>218.84</ele>
        <time>2015-03-08T08:13:14Z</time>
      </trkpt>
      <trkpt lat="44.44442" lon="1.03085">
        <ele>218.84</ele>
        <time>2015-03-08T08:13:22Z</time>
      </trkpt>
      <trkpt lat="44.4444" lon="1.03085">
        <ele>218.84</ele>
        <time>2015-03-08T08:13:23Z</time>
      </trkpt>
      <trkpt lat="44.44425" lon="1.03094">
        <ele>218.84</ele>
        <time>2015-03-08T08:13:36Z</time>
      </trkpt>
      <trkpt lat="44.44407" lon="1.03116">
        <ele>218.84</ele>
        <time>2015-03-08T08:13:46Z</time>
      </trkpt>
      <trkpt lat="44.44387" lon="1.03137">
        <ele>217.88</ele>
        <time>2015-03-08T08:13:56Z</time>
      </trkpt>
      <trkpt lat="44.44373" lon="1.03148">
        <ele>217.4</ele>
        <time>2015-03-08T08:14:02Z</time>
      </trkpt>
      <trkpt lat="44.44347" lon="1.03164">
        <ele>216.43</ele>
        <time>2015-03-08T08:14:13Z</time>
      </trkpt>
      <trkpt lat="44.4434" lon="1.0317">
        <ele>215.95</ele>
        <time>2015-03-08T08:14:16Z</time>
      </trkpt>
      <trkpt lat="44.44325" lon="1.0318">
        <ele>214.99</ele>
        <time>2015-03-08T08:14:23Z</time>
      </trkpt>
      <trkpt lat="44.44303" lon="1.03197">
        <ele>214.03</ele>
        <time>2015-03-08T08:14:33Z</time>
      </trkpt>
      <trkpt lat="44.44298" lon="1.03207">
        <ele>213.55</ele>
        <time>2015-03-08T08:14:37Z</time>
      </trkpt>
      <trkpt lat="44.4427" lon="1.03224">
        <ele>212.11</ele>
        <time>2015-03-08T08:14:49Z</time>
      </trkpt>
      <trkpt lat="44.44249" lon="1.03237">
        <ele>210.67</ele>
        <time>2015-03-08T08:14:58Z</time>
      </trkpt>
      <trkpt lat="44.44231" lon="1.03242">
        <ele>209.7</ele>
        <time>2015-03-08T08:15:05Z</time>
      </trkpt>
      <trkpt lat="44.44222" lon="1.03244">
        <ele>209.22</ele>
        <time>2015-03-08T08:15:09Z</time>
      </trkpt>
      <trkpt lat="44.44206" lon="1.03246">
        <ele>205.38</ele>
        <time>2015-03-08T08:15:16Z</time>
      </trkpt>
      <trkpt lat="44.442" lon="1.03245">
        <ele>202.98</ele>
        <time>2015-03-08T08:15:20Z</time>
      </trkpt>
      <trkpt lat="44.44176" lon="1.03251">
        <ele>202.49</ele>
        <time>2015-03-08T08:15:35Z</time>
      </trkpt>
      <trkpt lat="44.44162" lon="1.03255">
        <ele>202.01</ele>
        <time>2015-03-08T08:15:44Z</time>
      </trkpt>
      <trkpt lat="44.4415" lon="1.03258">
        <ele>201.05</ele>
        <time>2015-03-08T08:15:55Z</time>
      </trkpt>
      <trkpt lat="44.44132" lon="1.03252">
        <ele>198.17</ele>
        <time>2015-03-08T08:16:06Z</time>
      </trkpt>
      <trkpt lat="44.44118" lon="1.03248">
        <ele>197.69</ele>
        <time>2015-03-08T08:16:15Z</time>
      </trkpt>
      <trkpt lat="44.44113" lon="1.03246">
        <ele>197.69</ele>
        <time>2015-03-08T08:16:19Z</time>
      </trkpt>
      <trkpt lat="44.44094" lon="1.03245">
        <ele>197.69</ele>
        <time>2015-03-08T08:16:32Z</time>
      </trkpt>
      <trkpt lat="44.44085" lon="1.03246">
        <ele>197.69</ele>
        <time>2015-03-08T08:16:39Z</time>
      </trkpt>
      <trkpt lat="44.44079" lon="1.03245">
        <ele>199.13</ele>
        <time>2015-03-08T08:16:44Z</time>
      </trkpt>
      <trkpt lat="44.44075" lon="1.03246">
        <ele>199.13</ele>
        <time>2015-03-08T08:16:47Z</time>
      </trkpt>
      <trkpt lat="44.44061" lon="1.03257">
        <ele>199.13</ele>
        <time>2015-03-08T08:16:57Z</time>
      </trkpt>
      <trkpt lat="44.44044" lon="1.03261">
        <ele>200.09</ele>
        <time>2015-03-08T08:17:08Z</time>
      </trkpt>
      <trkpt lat="44.44031" lon="1.03248">
        <ele>201.53</ele>
        <time>2015-03-08T08:17:20Z</time>
      </trkpt>
      <trkpt lat="44.4403" lon="1.03247">
        <ele>201.53</ele>
        <time>2015-03-08T08:17:21Z</time>
      </trkpt>
      <trkpt lat="44.4402" lon="1.03234">
        <ele>202.98</ele>
        <time>2015-03-08T08:17:30Z</time>
      </trkpt>
      <trkpt lat="44.44015" lon="1.03229">
        <ele>203.46</ele>
        <time>2015-03-08T08:17:35Z</time>
      </trkpt>
      <trkpt lat="44.4401" lon="1.0322">
        <ele>204.42</ele>
        <time>2015-03-08T08:17:41Z</time>
      </trkpt>
      <trkpt lat="44.44003" lon="1.03209">
        <ele>205.86</ele>
        <time>2015-03-08T08:17:51Z</time>
      </trkpt>
      <trkpt lat="44.43998" lon="1.03204">
        <ele>206.82</ele>
        <time>2015-03-08T08:17:56Z</time>
      </trkpt>
      <trkpt lat="44.43982" lon="1.03204">
        <ele>208.26</ele>
        <time>2015-03-08T08:18:09Z</time>
      </trkpt>
      <trkpt lat="44.43964" lon="1.03218">
        <ele>209.7</ele>
        <time>2015-03-08T08:18:23Z</time>
      </trkpt>
      <trkpt lat="44.43954" lon="1.03227">
        <ele>209.7</ele>
        <time>2015-03-08T08:18:31Z</time>
      </trkpt>
      <trkpt lat="44.43946" lon="1.03233">
        <ele>209.7</ele>
        <time>2015-03-08T08:18:38Z</time>
      </trkpt>
      <trkpt lat="44.43929" lon="1.03246">
        <ele>209.7</ele>
        <time>2015-03-08T08:18:51Z</time>
      </trkpt>
      <trkpt lat="44.43923" lon="1.0325">
        <ele>209.7</ele>
        <time>2015-03-08T08:18:55Z</time>
      </trkpt>
      <trkpt lat="44.43921" lon="1.03252">
        <ele>208.74</ele>
        <time>2015-03-08T08:18:57Z</time>
      </trkpt>
      <trkpt lat="44.43914" lon="1.03258">
        <ele>208.26</ele>
        <time>2015-03-08T08:19:02Z</time>
      </trkpt>
      <trkpt lat="44.43893" lon="1.03275">
        <ele>207.78</ele>
        <time>2015-03-08T08:19:17Z</time>
      </trkpt>
      <trkpt lat="44.43888" lon="1.03281">
        <ele>207.3</ele>
        <time>2015-03-08T08:19:22Z</time>
      </trkpt>
      <trkpt lat="44.43881" lon="1.03288">
        <ele>206.82</ele>
        <time>2015-03-08T08:19:29Z</time>
      </trkpt>
      <trkpt lat="44.43868" lon="1.03301">
        <ele>205.38</ele>
        <time>2015-03-08T08:19:42Z</time>
      </trkpt>
      <trkpt lat="44.43851" lon="1.03327">
        <ele>204.9</ele>
        <time>2015-03-08T08:19:58Z</time>
      </trkpt>
      <trkpt lat="44.43835" lon="1.03345">
        <ele>204.42</ele>
        <time>2015-03-08T08:20:11Z</time>
      </trkpt>
      <trkpt lat="44.43821" lon="1.03369">
        <ele>203.94</ele>
        <time>2015-03-08T08:20:28Z</time>
      </trkpt>
      <trkpt lat="44.43815" lon="1.03378">
        <ele>204.9</ele>
        <time>2015-03-08T08:20:34Z</time>
      </trkpt>
      <trkpt lat="44.43813" lon="1.03381">
        <ele>204.9</ele>
        <time>2015-03-08T08:20:36Z</time>
      </trkpt>
      <trkpt lat="44.43802" lon="1.03397">
        <ele>205.86</ele>
        <time>2015-03-08T08:20:47Z</time>
      </trkpt>
      <trkpt lat="44.43801" lon="1.034">
        <ele>206.34</ele>
        <time>2015-03-08T08:20:49Z</time>
      </trkpt>
      <trkpt lat="44.4379" lon="1.03421">
        <ele>207.78</ele>
        <time>2015-03-08T08:21:03Z</time>
      </trkpt>
      <trkpt lat="44.43787" lon="1.03425">
        <ele>208.74</ele>
        <time>2015-03-08T08:21:06Z</time>
      </trkpt>
      <trkpt lat="44.43776" lon="1.03438">
        <ele>210.19</ele>
        <time>2015-03-08T08:21:17Z</time>
      </trkpt>
      <trkpt lat="44.4377" lon="1.03446">
        <ele>211.15</ele>
        <time>2015-03-08T08:21:23Z</time>
      </trkpt>
      <trkpt lat="44.43755" lon="1.03465">
        <ele>212.11</ele>
        <time>2015-03-08T08:21:37Z</time>
      </trkpt>
      <trkpt lat="44.43751" lon="1.03469">
        <ele>212.59</ele>
        <time>2015-03-08T08:21:40Z</time>
      </trkpt>
      <trkpt lat="44.43746" lon="1.03476">
        <ele>213.07</ele>
        <time>2015-03-08T08:21:45Z</time>
      </trkpt>
      <trkpt lat="44.43736" lon="1.03489">
        <ele>213.55</ele>
        <time>2015-03-08T08:21:54Z</time>
      </trkpt>
      <trkpt lat="44.4373" lon="1.03498">
        <ele>214.03</ele>
        <time>2015-03-08T08:21:59Z</time>
      </trkpt>
      <trkpt lat="44.43727" lon="1.03502">
        <ele>214.51</ele>
        <time>2015-03-08T08:22:02Z</time>
      </trkpt>
      <trkpt lat="44.4372" lon="1.0351">
        <ele>214.99</ele>
        <time>2015-03-08T08:22:08Z</time>
      </trkpt>
      <trkpt lat="44.43711" lon="1.03519">
        <ele>215.95</ele>
        <time>2015-03-08T08:22:16Z</time>
      </trkpt>
      <trkpt lat="44.43695" lon="1.03537">
        <ele>216.43</ele>
        <time>2015-03-08T08:22:30Z</time>
      </trkpt>
      <trkpt lat="44.43688" lon="1.03543">
        <ele>216.43</ele>
        <time>2015-03-08T08:22:35Z</time>
      </trkpt>
      <trkpt lat="44.43672" lon="1.03556">
        <ele>216.91</ele>
        <time>2015-03-08T08:22:47Z</time>
      </trkpt>
      <trkpt lat="44.43656" lon="1.0357">
        <ele>217.4</ele>
        <time>2015-03-08T08:23:01Z</time>
      </trkpt>
      <trkpt lat="44.43633" lon="1.03583">
        <ele>217.88</ele>
        <time>2015-03-08T08:23:18Z</time>
      </trkpt>
      <trkpt lat="44.4362" lon="1.03592">
        <ele>217.88</ele>
        <time>2015-03-08T08:23:27Z</time>
      </trkpt>
      <trkpt lat="44.43614" lon="1.036">
        <ele>217.88</ele>
        <time>2015-03-08T08:23:33Z</time>
      </trkpt>
      <trkpt lat="44.43603" lon="1.0363">
        <ele>218.36</ele>
        <time>2015-03-08T08:23:49Z</time>
      </trkpt>
      <trkpt lat="44.43609" lon="1.03662">
        <ele>216.91</ele>
        <time>2015-03-08T08:24:04Z</time>
      </trkpt>
      <trkpt lat="44.43612" lon="1.03693">
        <ele>215.47</ele>
        <time>2015-03-08T08:24:19Z</time>
      </trkpt>
      <trkpt lat="44.43611" lon="1.03711">
        <ele>214.03</ele>
        <time>2015-03-08T08:24:29Z</time>
      </trkpt>
      <trkpt lat="44.43603" lon="1.03729">
        <ele>214.03</ele>
        <time>2015-03-08T08:24:40Z</time>
      </trkpt>
      <trkpt lat="44.43598" lon="1.0374">
        <ele>214.03</ele>
        <time>2015-03-08T08:24:47Z</time>
      </trkpt>
      <trkpt lat="44.43591" lon="1.03753">
        <ele>214.03</ele>
        <time>2015-03-08T08:24:55Z</time>
      </trkpt>
      <trkpt lat="44.43577" lon="1.03784">
        <ele>214.03</ele>
        <time>2015-03-08T08:25:12Z</time>
      </trkpt>
      <trkpt lat="44.43561" lon="1.03808">
        <ele>214.03</ele>
        <time>2015-03-08T08:25:28Z</time>
      </trkpt>
      <trkpt lat="44.4354" lon="1.03818">
        <ele>214.99</ele>
        <time>2015-03-08T08:25:43Z</time>
      </trkpt>
      <trkpt lat="44.43535" lon="1.03821">
        <ele>214.99</ele>
        <time>2015-03-08T08:25:47Z</time>
      </trkpt>
      <trkpt lat="44.43517" lon="1.03831">
        <ele>216.43</ele>
        <time>2015-03-08T08:26:00Z</time>
      </trkpt>
      <trkpt lat="44.43515" lon="1.03833">
        <ele>216.43</ele>
        <time>2015-03-08T08:26:02Z</time>
      </trkpt>
      <trkpt lat="44.43493" lon="1.03844">
        <ele>217.4</ele>
        <time>2015-03-08T08:26:18Z</time>
      </trkpt>
      <trkpt lat="44.43474" lon="1.03857">
        <ele>217.88</ele>
        <time>2015-03-08T08:26:32Z</time>
      </trkpt>
      <trkpt lat="44.43454" lon="1.03869">
        <ele>218.84</ele>
        <time>2015-03-08T08:26:47Z</time>
      </trkpt>
      <trkpt lat="44.43439" lon="1.03878">
        <ele>219.8</ele>
        <time>2015-03-08T08:27:01Z</time>
      </trkpt>
      <trkpt lat="44.43431" lon="1.03875">
        <ele>220.28</ele>
        <time>2015-03-08T08:27:06Z</time>
      </trkpt>
      <trkpt lat="44.43422" lon="1.03864">
        <ele>220.76</ele>
        <time>2015-03-08T08:27:14Z</time>
      </trkpt>
      <trkpt lat="44.4342" lon="1.03859">
        <ele>220.76</ele>
        <time>2015-03-08T08:27:19Z</time>
      </trkpt>
      <trkpt lat="44.43396" lon="1.0386">
        <ele>222.2</ele>
        <time>2015-03-08T08:27:35Z</time>
      </trkpt>
      <trkpt lat="44.43375" lon="1.03868">
        <ele>224.12</ele>
        <time>2015-03-08T08:27:49Z</time>
      </trkpt>
      <trkpt lat="44.43358" lon="1.03876">
        <ele>224.12</ele>
        <time>2015-03-08T08:28:01Z</time>
      </trkpt>
      <trkpt lat="44.43348" lon="1.03882">
        <ele>224.12</ele>
        <time>2015-03-08T08:28:08Z</time>
      </trkpt>
      <trkpt lat="44.43345" lon="1.03902">
        <ele>224.12</ele>
        <time>2015-03-08T08:28:17Z</time>
      </trkpt>
      <trkpt lat="44.4335" lon="1.03915">
        <ele>224.12</ele>
        <time>2015-03-08T08:28:23Z</time>
      </trkpt>
      <trkpt lat="44.43359" lon="1.03954">
        <ele>222.68</ele>
        <time>2015-03-08T08:28:40Z</time>
      </trkpt>
      <trkpt lat="44.4337" lon="1.03983">
        <ele>221.72</ele>
        <time>2015-03-08T08:28:54Z</time>
      </trkpt>
      <trkpt lat="44.43378" lon="1.0401">
        <ele>220.28</ele>
        <time>2015-03-08T08:29:07Z</time>
      </trkpt>
      <trkpt lat="44.43392" lon="1.04038">
        <ele>219.8</ele>
        <time>2015-03-08T08:29:22Z</time>
      </trkpt>
      <trkpt lat="44.43399" lon="1.04048">
        <ele>219.32</ele>
        <time>2015-03-08T08:29:29Z</time>
      </trkpt>
      <trkpt lat="44.434" lon="1.04049">
        <ele>219.32</ele>
        <time>2015-03-08T08:29:30Z</time>
      </trkpt>
      <trkpt lat="44.43401" lon="1.04051">
        <ele>219.32</ele>
        <time>2015-03-08T08:29:31Z</time>
      </trkpt>
      <trkpt lat="44.43419" lon="1.04077">
        <ele>219.32</ele>
        <time>2015-03-08T08:29:49Z</time>
      </trkpt>
      <trkpt lat="44.4342" lon="1.04079">
        <ele>219.32</ele>
        <time>2015-03-08T08:29:50Z</time>
      </trkpt>
      <trkpt lat="44.4342" lon="1.04081">
        <ele>219.32</ele>
        <time>2015-03-08T08:29:51Z</time>
      </trkpt>
      <trkpt lat="44.43421" lon="1.0409">
        <ele>220.28</ele>
        <time>2015-03-08T08:29:55Z</time>
      </trkpt>
      <trkpt lat="44.43402" lon="1.04108">
        <ele>221.24</ele>
        <time>2015-03-08T08:30:08Z</time>
      </trkpt>
      <trkpt lat="44.43383" lon="1.04121">
        <ele>220.76</ele>
        <time>2015-03-08T08:30:21Z</time>
      </trkpt>
      <trkpt lat="44.43363" lon="1.04132">
        <ele>219.32</ele>
        <time>2015-03-08T08:30:35Z</time>
      </trkpt>
      <trkpt lat="44.43355" lon="1.04136">
        <ele>219.32</ele>
        <time>2015-03-08T08:30:40Z</time>
      </trkpt>
      <trkpt lat="44.43329" lon="1.04153">
        <ele>219.32</ele>
        <time>2015-03-08T08:30:58Z</time>
      </trkpt>
      <trkpt lat="44.43313" lon="1.04167">
        <ele>221.24</ele>
        <time>2015-03-08T08:31:12Z</time>
      </trkpt>
      <trkpt lat="44.43309" lon="1.0419">
        <ele>223.64</ele>
        <time>2015-03-08T08:31:25Z</time>
      </trkpt>
      <trkpt lat="44.43309" lon="1.04191">
        <ele>223.64</ele>
        <time>2015-03-08T08:31:26Z</time>
      </trkpt>
      <trkpt lat="44.43307" lon="1.04199">
        <ele>225.57</ele>
        <time>2015-03-08T08:31:30Z</time>
      </trkpt>
      <trkpt lat="44.43302" lon="1.04219">
        <ele>227.97</ele>
        <time>2015-03-08T08:31:41Z</time>
      </trkpt>
      <trkpt lat="44.43291" lon="1.0424">
        <ele>227.97</ele>
        <time>2015-03-08T08:31:55Z</time>
      </trkpt>
      <trkpt lat="44.43276" lon="1.04256">
        <ele>229.41</ele>
        <time>2015-03-08T08:32:09Z</time>
      </trkpt>
      <trkpt lat="44.4326" lon="1.04269">
        <ele>230.37</ele>
        <time>2015-03-08T08:32:22Z</time>
      </trkpt>
      <trkpt lat="44.43239" lon="1.04284">
        <ele>231.33</ele>
        <time>2015-03-08T08:32:37Z</time>
      </trkpt>
      <trkpt lat="44.43225" lon="1.04299">
        <ele>231.81</ele>
        <time>2015-03-08T08:32:50Z</time>
      </trkpt>
      <trkpt lat="44.43203" lon="1.04317">
        <ele>233.26</ele>
        <time>2015-03-08T08:33:06Z</time>
      </trkpt>
      <trkpt lat="44.43174" lon="1.04335">
        <ele>234.22</ele>
        <time>2015-03-08T08:33:25Z</time>
      </trkpt>
      <trkpt lat="44.43159" lon="1.04347">
        <ele>235.18</ele>
        <time>2015-03-08T08:33:38Z</time>
      </trkpt>
      <trkpt lat="44.43143" lon="1.04363">
        <ele>236.14</ele>
        <time>2015-03-08T08:33:51Z</time>
      </trkpt>
      <trkpt lat="44.43127" lon="1.04388">
        <ele>236.62</ele>
        <time>2015-03-08T08:34:06Z</time>
      </trkpt>
      <trkpt lat="44.43115" lon="1.04406">
        <ele>236.62</ele>
        <time>2015-03-08T08:34:18Z</time>
      </trkpt>
      <trkpt lat="44.43104" lon="1.04426">
        <ele>236.62</ele>
        <time>2015-03-08T08:34:31Z</time>
      </trkpt>
      <trkpt lat="44.43102" lon="1.04448">
        <ele>237.58</ele>
        <time>2015-03-08T08:34:42Z</time>
      </trkpt>
      <trkpt lat="44.43102" lon="1.04452">
        <ele>237.1</ele>
        <time>2015-03-08T08:34:44Z</time>
      </trkpt>
      <trkpt lat="44.43096" lon="1.04473">
        <ele>237.1</ele>
        <time>2015-03-08T08:34:55Z</time>
      </trkpt>
      <trkpt lat="44.43088" lon="1.04493">
        <ele>237.1</ele>
        <time>2015-03-08T08:35:06Z</time>
      </trkpt>
      <trkpt lat="44.43076" lon="1.04518">
        <ele>237.1</ele>
        <time>2015-03-08T08:35:21Z</time>
      </trkpt>
      <trkpt lat="44.43075" lon="1.04526">
        <ele>237.58</ele>
        <time>2015-03-08T08:35:25Z</time>
      </trkpt>
      <trkpt lat="44.43072" lon="1.04552">
        <ele>238.06</ele>
        <time>2015-03-08T08:35:37Z</time>
      </trkpt>
      <trkpt lat="44.4307" lon="1.04563">
        <ele>238.54</ele>
        <time>2015-03-08T08:35:42Z</time>
      </trkpt>
      <trkpt lat="44.43065" lon="1.04581">
        <ele>238.54</ele>
        <time>2015-03-08T08:35:52Z</time>
      </trkpt>
      <trkpt lat="44.4305" lon="1.04609">
        <ele>239.02</ele>
        <time>2015-03-08T08:36:09Z</time>
      </trkpt>
      <trkpt lat="44.43048" lon="1.04619">
        <ele>239.02</ele>
        <time>2015-03-08T08:36:15Z</time>
      </trkpt>
      <trkpt lat="44.43054" lon="1.04633">
        <ele>239.02</ele>
        <time>2015-03-08T08:36:22Z</time>
      </trkpt>
      <trkpt lat="44.43058" lon="1.04638">
        <ele>237.58</ele>
        <time>2015-03-08T08:36:26Z</time>
      </trkpt>
      <trkpt lat="44.43062" lon="1.04652">
        <ele>236.62</ele>
        <time>2015-03-08T08:36:33Z</time>
      </trkpt>
      <trkpt lat="44.43068" lon="1.04663">
        <ele>236.14</ele>
        <time>2015-03-08T08:36:39Z</time>
      </trkpt>
      <trkpt lat="44.43082" lon="1.04684">
        <ele>233.26</ele>
        <time>2015-03-08T08:36:53Z</time>
      </trkpt>
      <trkpt lat="44.43085" lon="1.04689">
        <ele>233.74</ele>
        <time>2015-03-08T08:36:56Z</time>
      </trkpt>
      <trkpt lat="44.43089" lon="1.04695">
        <ele>233.26</ele>
        <time>2015-03-08T08:37:00Z</time>
      </trkpt>
      <trkpt lat="44.43089" lon="1.04712">
        <ele>231.81</ele>
        <time>2015-03-08T08:37:10Z</time>
      </trkpt>
      <trkpt lat="44.43085" lon="1.04715">
        <ele>231.33</ele>
        <time>2015-03-08T08:37:13Z</time>
      </trkpt>
      <trkpt lat="44.43059" lon="1.0472">
        <ele>231.33</ele>
        <time>2015-03-08T08:37:29Z</time>
      </trkpt>
      <trkpt lat="44.4305" lon="1.04723">
        <ele>231.33</ele>
        <time>2015-03-08T08:37:35Z</time>
      </trkpt>
      <trkpt lat="44.43029" lon="1.0475">
        <ele>230.37</ele>
        <time>2015-03-08T08:37:53Z</time>
      </trkpt>
      <trkpt lat="44.43014" lon="1.04779">
        <ele>229.89</ele>
        <time>2015-03-08T08:38:09Z</time>
      </trkpt>
      <trkpt lat="44.42997" lon="1.04802">
        <ele>229.89</ele>
        <time>2015-03-08T08:38:23Z</time>
      </trkpt>
      <trkpt lat="44.42981" lon="1.04819">
        <ele>229.89</ele>
        <time>2015-03-08T08:38:37Z</time>
      </trkpt>
      <trkpt lat="44.42966" lon="1.04841">
        <ele>231.33</ele>
        <time>2015-03-08T08:38:52Z</time>
      </trkpt>
      <trkpt lat="44.42949" lon="1.04863">
        <ele>232.3</ele>
        <time>2015-03-08T08:39:09Z</time>
      </trkpt>
      <trkpt lat="44.42931" lon="1.04885">
        <ele>234.22</ele>
        <time>2015-03-08T08:39:25Z</time>
      </trkpt>
      <trkpt lat="44.42911" lon="1.04897">
        <ele>235.18</ele>
        <time>2015-03-08T08:39:40Z</time>
      </trkpt>
      <trkpt lat="44.42892" lon="1.04911">
        <ele>236.14</ele>
        <time>2015-03-08T08:39:54Z</time>
      </trkpt>
      <trkpt lat="44.42867" lon="1.04925">
        <ele>237.1</ele>
        <time>2015-03-08T08:40:11Z</time>
      </trkpt>
      <trkpt lat="44.42848" lon="1.04932">
        <ele>237.58</ele>
        <time>2015-03-08T08:40:25Z</time>
      </trkpt>
      <trkpt lat="44.42829" lon="1.04934">
        <ele>238.06</ele>
        <time>2015-03-08T08:40:38Z</time>
      </trkpt>
      <trkpt lat="44.42808" lon="1.04945">
        <ele>239.02</ele>
        <time>2015-03-08T08:40:52Z</time>
      </trkpt>
      <trkpt lat="44.4279" lon="1.04946">
        <ele>239.51</ele>
        <time>2015-03-08T08:41:05Z</time>
      </trkpt>
      <trkpt lat="44.42768" lon="1.04949">
        <ele>240.95</ele>
        <time>2015-03-08T08:41:20Z</time>
      </trkpt>
      <trkpt lat="44.42748" lon="1.04953">
        <ele>240.95</ele>
        <time>2015-03-08T08:41:35Z</time>
      </trkpt>
      <trkpt lat="44.42726" lon="1.04951">
        <ele>240.95</ele>
        <time>2015-03-08T08:41:50Z</time>
      </trkpt>
      <trkpt lat="44.42709" lon="1.04948">
        <ele>240.95</ele>
        <time>2015-03-08T08:42:01Z</time>
      </trkpt>
      <trkpt lat="44.42689" lon="1.04939">
        <ele>241.43</ele>
        <time>2015-03-08T08:42:15Z</time>
      </trkpt>
      <trkpt lat="44.42668" lon="1.04928">
        <ele>241.91</ele>
        <time>2015-03-08T08:42:28Z</time>
      </trkpt>
      <trkpt lat="44.42665" lon="1.04929">
        <ele>241.91</ele>
        <time>2015-03-08T08:42:30Z</time>
      </trkpt>
      <trkpt lat="44.42664" lon="1.04929">
        <ele>241.91</ele>
        <time>2015-03-08T08:42:31Z</time>
      </trkpt>
      <trkpt lat="44.42663" lon="1.0493">
        <ele>241.91</ele>
        <time>2015-03-08T08:42:32Z</time>
      </trkpt>
      <trkpt lat="44.42662" lon="1.0493">
        <ele>242.87</ele>
        <time>2015-03-08T08:42:33Z</time>
      </trkpt>
      <trkpt lat="44.42657" lon="1.04929">
        <ele>242.39</ele>
        <time>2015-03-08T08:42:37Z</time>
      </trkpt>
      <trkpt lat="44.42656" lon="1.04928">
        <ele>242.39</ele>
        <time>2015-03-08T08:42:38Z</time>
      </trkpt>
      <trkpt lat="44.42655" lon="1.04927">
        <ele>243.35</ele>
        <time>2015-03-08T08:42:39Z</time>
      </trkpt>
      <trkpt lat="44.42654" lon="1.04926">
        <ele>242.87</ele>
        <time>2015-03-08T08:42:40Z</time>
      </trkpt>
      <trkpt lat="44.42653" lon="1.04926">
        <ele>242.87</ele>
        <time>2015-03-08T08:42:41Z</time>
      </trkpt>
      <trkpt lat="44.42651" lon="1.04926">
        <ele>242.87</ele>
        <time>2015-03-08T08:42:42Z</time>
      </trkpt>
      <trkpt lat="44.4265" lon="1.04926">
        <ele>242.87</ele>
        <time>2015-03-08T08:42:43Z</time>
      </trkpt>
      <trkpt lat="44.42648" lon="1.04926">
        <ele>242.87</ele>
        <time>2015-03-08T08:42:44Z</time>
      </trkpt>
      <trkpt lat="44.42631" lon="1.0492">
        <ele>244.31</ele>
        <time>2015-03-08T08:42:56Z</time>
      </trkpt>
      <trkpt lat="44.4261" lon="1.04915">
        <ele>244.79</ele>
        <time>2015-03-08T08:43:10Z</time>
      </trkpt>
      <trkpt lat="44.42608" lon="1.04915">
        <ele>245.27</ele>
        <time>2015-03-08T08:43:11Z</time>
      </trkpt>
      <trkpt lat="44.42607" lon="1.04916">
        <ele>245.27</ele>
        <time>2015-03-08T08:43:12Z</time>
      </trkpt>
      <trkpt lat="44.426" lon="1.04915">
        <ele>245.27</ele>
        <time>2015-03-08T08:43:18Z</time>
      </trkpt>
      <trkpt lat="44.42597" lon="1.04914">
        <ele>245.27</ele>
        <time>2015-03-08T08:43:22Z</time>
      </trkpt>
      <trkpt lat="44.42595" lon="1.04914">
        <ele>245.27</ele>
        <time>2015-03-08T08:43:23Z</time>
      </trkpt>
      <trkpt lat="44.42579" lon="1.0491">
        <ele>245.75</ele>
        <time>2015-03-08T08:43:33Z</time>
      </trkpt>
      <trkpt lat="44.42577" lon="1.04909">
        <ele>245.75</ele>
        <time>2015-03-08T08:43:34Z</time>
      </trkpt>
      <trkpt lat="44.42561" lon="1.04907">
        <ele>245.75</ele>
        <time>2015-03-08T08:43:45Z</time>
      </trkpt>
      <trkpt lat="44.4256" lon="1.04907">
        <ele>245.75</ele>
        <time>2015-03-08T08:43:46Z</time>
      </trkpt>
      <trkpt lat="44.42558" lon="1.04906">
        <ele>245.75</ele>
        <time>2015-03-08T08:43:47Z</time>
      </trkpt>
      <trkpt lat="44.42557" lon="1.04906">
        <ele>245.75</ele>
        <time>2015-03-08T08:43:48Z</time>
      </trkpt>
      <trkpt lat="44.42555" lon="1.04906">
        <ele>245.75</ele>
        <time>2015-03-08T08:43:49Z</time>
      </trkpt>
      <trkpt lat="44.42554" lon="1.04906">
        <ele>245.75</ele>
        <time>2015-03-08T08:43:50Z</time>
      </trkpt>
      <trkpt lat="44.42552" lon="1.04906">
        <ele>245.75</ele>
        <time>2015-03-08T08:43:51Z</time>
      </trkpt>
      <trkpt lat="44.4255" lon="1.04906">
        <ele>245.75</ele>
        <time>2015-03-08T08:43:52Z</time>
      </trkpt>
      <trkpt lat="44.42548" lon="1.04906">
        <ele>245.75</ele>
        <time>2015-03-08T08:43:53Z</time>
      </trkpt>
      <trkpt lat="44.42546" lon="1.04905">
        <ele>245.75</ele>
        <time>2015-03-08T08:43:54Z</time>
      </trkpt>
      <trkpt lat="44.42544" lon="1.04904">
        <ele>245.75</ele>
        <time>2015-03-08T08:43:55Z</time>
      </trkpt>
      <trkpt lat="44.42534" lon="1.04905">
        <ele>246.23</ele>
        <time>2015-03-08T08:44:04Z</time>
      </trkpt>
      <trkpt lat="44.42532" lon="1.04906">
        <ele>246.23</ele>
        <time>2015-03-08T08:44:06Z</time>
      </trkpt>
      <trkpt lat="44.42531" lon="1.04905">
        <ele>246.23</ele>
        <time>2015-03-08T08:44:07Z</time>
      </trkpt>
      <trkpt lat="44.42529" lon="1.04905">
        <ele>246.23</ele>
        <time>2015-03-08T08:44:08Z</time>
      </trkpt>
      <trkpt lat="44.4251" lon="1.04899">
        <ele>246.23</ele>
        <time>2015-03-08T08:44:21Z</time>
      </trkpt>
      <trkpt lat="44.4251" lon="1.04898">
        <ele>246.23</ele>
        <time>2015-03-08T08:44:22Z</time>
      </trkpt>
      <trkpt lat="44.42502" lon="1.04883">
        <ele>246.23</ele>
        <time>2015-03-08T08:44:32Z</time>
      </trkpt>
      <trkpt lat="44.42499" lon="1.04877">
        <ele>246.23</ele>
        <time>2015-03-08T08:44:37Z</time>
      </trkpt>
      <trkpt lat="44.42499" lon="1.04875">
        <ele>246.23</ele>
        <time>2015-03-08T08:44:38Z</time>
      </trkpt>
      <trkpt lat="44.42499" lon="1.04873">
        <ele>246.23</ele>
        <time>2015-03-08T08:44:39Z</time>
      </trkpt>
      <trkpt lat="44.42498" lon="1.04871">
        <ele>246.23</ele>
        <time>2015-03-08T08:44:40Z</time>
      </trkpt>
      <trkpt lat="44.42498" lon="1.04869">
        <ele>246.23</ele>
        <time>2015-03-08T08:44:41Z</time>
      </trkpt>
      <trkpt lat="44.42498" lon="1.04868">
        <ele>246.23</ele>
        <time>2015-03-08T08:44:42Z</time>
      </trkpt>
      <trkpt lat="44.4249" lon="1.04845">
        <ele>246.23</ele>
        <time>2015-03-08T08:44:57Z</time>
      </trkpt>
      <trkpt lat="44.42487" lon="1.04828">
        <ele>244.79</ele>
        <time>2015-03-08T08:45:08Z</time>
      </trkpt>
      <trkpt lat="44.42486" lon="1.04827">
        <ele>244.79</ele>
        <time>2015-03-08T08:45:09Z</time>
      </trkpt>
      <trkpt lat="44.42485" lon="1.04825">
        <ele>244.79</ele>
        <time>2015-03-08T08:45:10Z</time>
      </trkpt>
      <trkpt lat="44.42473" lon="1.04794">
        <ele>244.31</ele>
        <time>2015-03-08T08:45:23Z</time>
      </trkpt>
      <trkpt lat="44.42463" lon="1.04758">
        <ele>242.87</ele>
        <time>2015-03-08T08:45:35Z</time>
      </trkpt>
      <trkpt lat="44.42456" lon="1.04731">
        <ele>241.91</ele>
        <time>2015-03-08T08:45:44Z</time>
      </trkpt>
      <trkpt lat="44.42459" lon="1.04696">
        <ele>240.47</ele>
        <time>2015-03-08T08:45:55Z</time>
      </trkpt>
      <trkpt lat="44.4247" lon="1.04658">
        <ele>239.99</ele>
        <time>2015-03-08T08:46:07Z</time>
      </trkpt>
      <trkpt lat="44.42471" lon="1.04625">
        <ele>239.99</ele>
        <time>2015-03-08T08:46:17Z</time>
      </trkpt>
      <trkpt lat="44.4247" lon="1.04621">
        <ele>239.99</ele>
        <time>2015-03-08T08:46:18Z</time>
      </trkpt>
      <trkpt lat="44.4247" lon="1.04618">
        <ele>239.99</ele>
        <time>2015-03-08T08:46:19Z</time>
      </trkpt>
      <trkpt lat="44.42469" lon="1.04615">
        <ele>239.99</ele>
        <time>2015-03-08T08:46:20Z</time>
      </trkpt>
      <trkpt lat="44.42456" lon="1.04576">
        <ele>239.99</ele>
        <time>2015-03-08T08:46:33Z</time>
      </trkpt>
      <trkpt lat="44.42451" lon="1.0457">
        <ele>239.99</ele>
        <time>2015-03-08T08:46:36Z</time>
      </trkpt>
      <trkpt lat="44.42448" lon="1.04569">
        <ele>239.99</ele>
        <time>2015-03-08T08:46:37Z</time>
      </trkpt>
      <trkpt lat="44.42446" lon="1.04569">
        <ele>239.99</ele>
        <time>2015-03-08T08:46:38Z</time>
      </trkpt>
      <trkpt lat="44.42443" lon="1.04568">
        <ele>239.99</ele>
        <time>2015-03-08T08:46:39Z</time>
      </trkpt>
      <trkpt lat="44.4244" lon="1.04567">
        <ele>239.99</ele>
        <time>2015-03-08T08:46:40Z</time>
      </trkpt>
      <trkpt lat="44.42417" lon="1.04566">
        <ele>239.02</ele>
        <time>2015-03-08T08:46:50Z</time>
      </trkpt>
      <trkpt lat="44.42414" lon="1.04565">
        <ele>239.02</ele>
        <time>2015-03-08T08:46:51Z</time>
      </trkpt>
      <trkpt lat="44.42411" lon="1.04564">
        <ele>239.02</ele>
        <time>2015-03-08T08:46:52Z</time>
      </trkpt>
      <trkpt lat="44.4238" lon="1.04557">
        <ele>238.06</ele>
        <time>2015-03-08T08:47:05Z</time>
      </trkpt>
      <trkpt lat="44.42375" lon="1.04556">
        <ele>238.06</ele>
        <time>2015-03-08T08:47:07Z</time>
      </trkpt>
      <trkpt lat="44.42373" lon="1.04556">
        <ele>238.06</ele>
        <time>2015-03-08T08:47:08Z</time>
      </trkpt>
      <trkpt lat="44.4237" lon="1.04555">
        <ele>238.06</ele>
        <time>2015-03-08T08:47:09Z</time>
      </trkpt>
      <trkpt lat="44.42338" lon="1.04549">
        <ele>237.58</ele>
        <time>2015-03-08T08:47:22Z</time>
      </trkpt>
      <trkpt lat="44.42321" lon="1.04545">
        <ele>237.58</ele>
        <time>2015-03-08T08:47:33Z</time>
      </trkpt>
      <trkpt lat="44.42294" lon="1.04539">
        <ele>237.58</ele>
        <time>2015-03-08T08:47:44Z</time>
      </trkpt>
      <trkpt lat="44.42265" lon="1.04541">
        <ele>237.58</ele>
        <time>2015-03-08T08:47:56Z</time>
      </trkpt>
      <trkpt lat="44.42262" lon="1.04543">
        <ele>237.58</ele>
        <time>2015-03-08T08:47:58Z</time>
      </trkpt>
      <trkpt lat="44.4226" lon="1.04543">
        <ele>237.58</ele>
        <time>2015-03-08T08:47:59Z</time>
      </trkpt>
      <trkpt lat="44.42258" lon="1.04543">
        <ele>237.58</ele>
        <time>2015-03-08T08:48:00Z</time>
      </trkpt>
      <trkpt lat="44.42257" lon="1.04543">
        <ele>237.58</ele>
        <time>2015-03-08T08:48:01Z</time>
      </trkpt>
      <trkpt lat="44.42255" lon="1.04544">
        <ele>237.58</ele>
        <time>2015-03-08T08:48:02Z</time>
      </trkpt>
      <trkpt lat="44.42233" lon="1.0455">
        <ele>237.58</ele>
        <time>2015-03-08T08:48:17Z</time>
      </trkpt>
      <trkpt lat="44.42209" lon="1.04559">
        <ele>237.58</ele>
        <time>2015-03-08T08:48:34Z</time>
      </trkpt>
      <trkpt lat="44.42187" lon="1.04571">
        <ele>237.1</ele>
        <time>2015-03-08T08:48:51Z</time>
      </trkpt>
      <trkpt lat="44.4217" lon="1.04583">
        <ele>237.1</ele>
        <time>2015-03-08T08:49:06Z</time>
      </trkpt>
      <trkpt lat="44.42169" lon="1.04584">
        <ele>237.1</ele>
        <time>2015-03-08T08:49:07Z</time>
      </trkpt>
      <trkpt lat="44.42145" lon="1.04594">
        <ele>237.1</ele>
        <time>2015-03-08T08:49:23Z</time>
      </trkpt>
      <trkpt lat="44.42135" lon="1.04598">
        <ele>237.1</ele>
        <time>2015-03-08T08:49:31Z</time>
      </trkpt>
      <trkpt lat="44.42134" lon="1.04598">
        <ele>237.1</ele>
        <time>2015-03-08T08:49:32Z</time>
      </trkpt>
      <trkpt lat="44.42133" lon="1.04598">
        <ele>237.1</ele>
        <time>2015-03-08T08:49:33Z</time>
      </trkpt>
      <trkpt lat="44.4211" lon="1.04602">
        <ele>237.1</ele>
        <time>2015-03-08T08:49:48Z</time>
      </trkpt>
      <trkpt lat="44.42095" lon="1.04607">
        <ele>237.1</ele>
        <time>2015-03-08T08:49:59Z</time>
      </trkpt>
      <trkpt lat="44.42093" lon="1.04607">
        <ele>237.1</ele>
        <time>2015-03-08T08:50:00Z</time>
      </trkpt>
      <trkpt lat="44.42092" lon="1.04607">
        <ele>237.1</ele>
        <time>2015-03-08T08:50:01Z</time>
      </trkpt>
      <trkpt lat="44.42088" lon="1.0461">
        <ele>237.1</ele>
        <time>2015-03-08T08:50:04Z</time>
      </trkpt>
      <trkpt lat="44.42086" lon="1.0461">
        <ele>237.1</ele>
        <time>2015-03-08T08:50:05Z</time>
      </trkpt>
      <trkpt lat="44.42085" lon="1.04611">
        <ele>237.1</ele>
        <time>2015-03-08T08:50:06Z</time>
      </trkpt>
      <trkpt lat="44.42083" lon="1.04611">
        <ele>237.1</ele>
        <time>2015-03-08T08:50:07Z</time>
      </trkpt>
      <trkpt lat="44.42081" lon="1.04612">
        <ele>237.1</ele>
        <time>2015-03-08T08:50:08Z</time>
      </trkpt>
      <trkpt lat="44.42079" lon="1.04612">
        <ele>237.1</ele>
        <time>2015-03-08T08:50:09Z</time>
      </trkpt>
      <trkpt lat="44.42078" lon="1.04612">
        <ele>237.1</ele>
        <time>2015-03-08T08:50:10Z</time>
      </trkpt>
      <trkpt lat="44.42076" lon="1.04612">
        <ele>237.1</ele>
        <time>2015-03-08T08:50:11Z</time>
      </trkpt>
      <trkpt lat="44.42074" lon="1.04613">
        <ele>237.1</ele>
        <time>2015-03-08T08:50:12Z</time>
      </trkpt>
      <trkpt lat="44.42059" lon="1.04616">
        <ele>237.1</ele>
        <time>2015-03-08T08:50:25Z</time>
      </trkpt>
      <trkpt lat="44.42041" lon="1.04614">
        <ele>238.06</ele>
        <time>2015-03-08T08:50:38Z</time>
      </trkpt>
      <trkpt lat="44.42027" lon="1.04609">
        <ele>239.51</ele>
        <time>2015-03-08T08:50:46Z</time>
      </trkpt>
      <trkpt lat="44.42025" lon="1.04608">
        <ele>239.51</ele>
        <time>2015-03-08T08:50:47Z</time>
      </trkpt>
      <trkpt lat="44.42023" lon="1.04608">
        <ele>239.51</ele>
        <time>2015-03-08T08:50:48Z</time>
      </trkpt>
      <trkpt lat="44.42021" lon="1.04607">
        <ele>239.51</ele>
        <time>2015-03-08T08:50:49Z</time>
      </trkpt>
      <trkpt lat="44.42019" lon="1.04606">
        <ele>239.51</ele>
        <time>2015-03-08T08:50:50Z</time>
      </trkpt>
      <trkpt lat="44.42018" lon="1.04605">
        <ele>239.51</ele>
        <time>2015-03-08T08:50:51Z</time>
      </trkpt>
      <trkpt lat="44.42016" lon="1.04604">
        <ele>239.51</ele>
        <time>2015-03-08T08:50:52Z</time>
      </trkpt>
      <trkpt lat="44.4201" lon="1.04601">
        <ele>239.51</ele>
        <time>2015-03-08T08:50:56Z</time>
      </trkpt>
      <trkpt lat="44.41989" lon="1.04596">
        <ele>239.99</ele>
        <time>2015-03-08T08:51:09Z</time>
      </trkpt>
      <trkpt lat="44.41975" lon="1.04598">
        <ele>239.99</ele>
        <time>2015-03-08T08:51:21Z</time>
      </trkpt>
      <trkpt lat="44.41973" lon="1.04602">
        <ele>239.99</ele>
        <time>2015-03-08T08:51:28Z</time>
      </trkpt>
      <trkpt lat="44.41975" lon="1.04605">
        <ele>239.99</ele>
        <time>2015-03-08T08:51:30Z</time>
      </trkpt>
      <trkpt lat="44.41963" lon="1.04606">
        <ele>240.47</ele>
        <time>2015-03-08T08:51:44Z</time>
      </trkpt>
      <trkpt lat="44.41953" lon="1.04607">
        <ele>240.47</ele>
        <time>2015-03-08T08:51:52Z</time>
      </trkpt>
      <trkpt lat="44.4195" lon="1.04607">
        <ele>240.47</ele>
        <time>2015-03-08T08:51:54Z</time>
      </trkpt>
      <trkpt lat="44.41947" lon="1.04606">
        <ele>240.47</ele>
        <time>2015-03-08T08:51:56Z</time>
      </trkpt>
      <trkpt lat="44.41923" lon="1.04601">
        <ele>240.47</ele>
        <time>2015-03-08T08:52:07Z</time>
      </trkpt>
      <trkpt lat="44.41916" lon="1.046">
        <ele>240.47</ele>
        <time>2015-03-08T08:52:11Z</time>
      </trkpt>
      <trkpt lat="44.41911" lon="1.046">
        <ele>240.95</ele>
        <time>2015-03-08T08:52:15Z</time>
      </trkpt>
      <trkpt lat="44.4191" lon="1.046">
        <ele>240.95</ele>
        <time>2015-03-08T08:52:16Z</time>
      </trkpt>
      <trkpt lat="44.41907" lon="1.04599">
        <ele>240.95</ele>
        <time>2015-03-08T08:52:18Z</time>
      </trkpt>
      <trkpt lat="44.41906" lon="1.04598">
        <ele>240.95</ele>
        <time>2015-03-08T08:52:19Z</time>
      </trkpt>
      <trkpt lat="44.41905" lon="1.04598">
        <ele>240.95</ele>
        <time>2015-03-08T08:52:20Z</time>
      </trkpt>
      <trkpt lat="44.41903" lon="1.04598">
        <ele>240.95</ele>
        <time>2015-03-08T08:52:21Z</time>
      </trkpt>
      <trkpt lat="44.41902" lon="1.04597">
        <ele>240.95</ele>
        <time>2015-03-08T08:52:22Z</time>
      </trkpt>
      <trkpt lat="44.41899" lon="1.04596">
        <ele>240.95</ele>
        <time>2015-03-08T08:52:24Z</time>
      </trkpt>
      <trkpt lat="44.41897" lon="1.04596">
        <ele>240.95</ele>
        <time>2015-03-08T08:52:25Z</time>
      </trkpt>
      <trkpt lat="44.41895" lon="1.04596">
        <ele>240.95</ele>
        <time>2015-03-08T08:52:26Z</time>
      </trkpt>
      <trkpt lat="44.41893" lon="1.04596">
        <ele>240.95</ele>
        <time>2015-03-08T08:52:27Z</time>
      </trkpt>
      <trkpt lat="44.41884" lon="1.04598">
        <ele>240.95</ele>
        <time>2015-03-08T08:52:34Z</time>
      </trkpt>
      <trkpt lat="44.41864" lon="1.04593">
        <ele>240.95</ele>
        <time>2015-03-08T08:52:44Z</time>
      </trkpt>
      <trkpt lat="44.41852" lon="1.04596">
        <ele>239.99</ele>
        <time>2015-03-08T08:52:53Z</time>
      </trkpt>
      <trkpt lat="44.4185" lon="1.04597">
        <ele>239.99</ele>
        <time>2015-03-08T08:52:54Z</time>
      </trkpt>
      <trkpt lat="44.41848" lon="1.04601">
        <ele>239.99</ele>
        <time>2015-03-08T08:52:56Z</time>
      </trkpt>
      <trkpt lat="44.41846" lon="1.04601">
        <ele>239.99</ele>
        <time>2015-03-08T08:52:57Z</time>
      </trkpt>
      <trkpt lat="44.41844" lon="1.04601">
        <ele>239.99</ele>
        <time>2015-03-08T08:52:58Z</time>
      </trkpt>
      <trkpt lat="44.41827" lon="1.04602">
        <ele>239.51</ele>
        <time>2015-03-08T08:53:08Z</time>
      </trkpt>
      <trkpt lat="44.41825" lon="1.04602">
        <ele>239.02</ele>
        <time>2015-03-08T08:53:10Z</time>
      </trkpt>
      <trkpt lat="44.41823" lon="1.04603">
        <ele>239.02</ele>
        <time>2015-03-08T08:53:11Z</time>
      </trkpt>
      <trkpt lat="44.41821" lon="1.04603">
        <ele>239.02</ele>
        <time>2015-03-08T08:53:12Z</time>
      </trkpt>
      <trkpt lat="44.41819" lon="1.04603">
        <ele>239.02</ele>
        <time>2015-03-08T08:53:13Z</time>
      </trkpt>
      <trkpt lat="44.41817" lon="1.04603">
        <ele>238.54</ele>
        <time>2015-03-08T08:53:14Z</time>
      </trkpt>
      <trkpt lat="44.41815" lon="1.04604">
        <ele>238.54</ele>
        <time>2015-03-08T08:53:15Z</time>
      </trkpt>
      <trkpt lat="44.41813" lon="1.04605">
        <ele>238.54</ele>
        <time>2015-03-08T08:53:16Z</time>
      </trkpt>
      <trkpt lat="44.4181" lon="1.04605">
        <ele>237.58</ele>
        <time>2015-03-08T08:53:17Z</time>
      </trkpt>
      <trkpt lat="44.41808" lon="1.04606">
        <ele>238.06</ele>
        <time>2015-03-08T08:53:18Z</time>
      </trkpt>
      <trkpt lat="44.41789" lon="1.04613">
        <ele>234.22</ele>
        <time>2015-03-08T08:53:26Z</time>
      </trkpt>
      <trkpt lat="44.41785" lon="1.04614">
        <ele>232.78</ele>
        <time>2015-03-08T08:53:28Z</time>
      </trkpt>
      <trkpt lat="44.41781" lon="1.04616">
        <ele>231.33</ele>
        <time>2015-03-08T08:53:30Z</time>
      </trkpt>
      <trkpt lat="44.41779" lon="1.04616">
        <ele>230.85</ele>
        <time>2015-03-08T08:53:31Z</time>
      </trkpt>
      <trkpt lat="44.41776" lon="1.04616">
        <ele>230.37</ele>
        <time>2015-03-08T08:53:32Z</time>
      </trkpt>
      <trkpt lat="44.41775" lon="1.04616">
        <ele>231.33</ele>
        <time>2015-03-08T08:53:33Z</time>
      </trkpt>
      <trkpt lat="44.41771" lon="1.04616">
        <ele>230.37</ele>
        <time>2015-03-08T08:53:35Z</time>
      </trkpt>
      <trkpt lat="44.41768" lon="1.04617">
        <ele>229.89</ele>
        <time>2015-03-08T08:53:36Z</time>
      </trkpt>
      <trkpt lat="44.41766" lon="1.04618">
        <ele>229.89</ele>
        <time>2015-03-08T08:53:37Z</time>
      </trkpt>
      <trkpt lat="44.41764" lon="1.04618">
        <ele>230.37</ele>
        <time>2015-03-08T08:53:38Z</time>
      </trkpt>
      <trkpt lat="44.41761" lon="1.0462">
        <ele>230.37</ele>
        <time>2015-03-08T08:53:39Z</time>
      </trkpt>
      <trkpt lat="44.41759" lon="1.04621">
        <ele>230.37</ele>
        <time>2015-03-08T08:53:40Z</time>
      </trkpt>
      <trkpt lat="44.41756" lon="1.04622">
        <ele>230.37</ele>
        <time>2015-03-08T08:53:41Z</time>
      </trkpt>
      <trkpt lat="44.41754" lon="1.04623">
        <ele>230.37</ele>
        <time>2015-03-08T08:53:42Z</time>
      </trkpt>
      <trkpt lat="44.41751" lon="1.04624">
        <ele>230.37</ele>
        <time>2015-03-08T08:53:43Z</time>
      </trkpt>
      <trkpt lat="44.41749" lon="1.04625">
        <ele>230.37</ele>
        <time>2015-03-08T08:53:44Z</time>
      </trkpt>
      <trkpt lat="44.41746" lon="1.04625">
        <ele>229.41</ele>
        <time>2015-03-08T08:53:45Z</time>
      </trkpt>
      <trkpt lat="44.41743" lon="1.04626">
        <ele>229.89</ele>
        <time>2015-03-08T08:53:46Z</time>
      </trkpt>
      <trkpt lat="44.41717" lon="1.04626">
        <ele>227.49</ele>
        <time>2015-03-08T08:53:54Z</time>
      </trkpt>
      <trkpt lat="44.41711" lon="1.04627">
        <ele>225.57</ele>
        <time>2015-03-08T08:53:56Z</time>
      </trkpt>
      <trkpt lat="44.41701" lon="1.04627">
        <ele>221.72</ele>
        <time>2015-03-08T08:54:00Z</time>
      </trkpt>
      <trkpt lat="44.41671" lon="1.04628">
        <ele>219.8</ele>
        <time>2015-03-08T08:54:11Z</time>
      </trkpt>
      <trkpt lat="44.41649" lon="1.04631">
        <ele>218.84</ele>
        <time>2015-03-08T08:54:21Z</time>
      </trkpt>
      <trkpt lat="44.41637" lon="1.04635">
        <ele>215.47</ele>
        <time>2015-03-08T08:54:27Z</time>
      </trkpt>
      <trkpt lat="44.41627" lon="1.04635">
        <ele>212.59</ele>
        <time>2015-03-08T08:54:31Z</time>
      </trkpt>
      <trkpt lat="44.41622" lon="1.04632">
        <ele>211.15</ele>
        <time>2015-03-08T08:54:33Z</time>
      </trkpt>
      <trkpt lat="44.41622" lon="1.04631">
        <ele>211.63</ele>
        <time>2015-03-08T08:54:34Z</time>
      </trkpt>
      <trkpt lat="44.41621" lon="1.04629">
        <ele>210.67</ele>
        <time>2015-03-08T08:54:35Z</time>
      </trkpt>
      <trkpt lat="44.41618" lon="1.04628">
        <ele>211.15</ele>
        <time>2015-03-08T08:54:36Z</time>
      </trkpt>
      <trkpt lat="44.41617" lon="1.04625">
        <ele>211.15</ele>
        <time>2015-03-08T08:54:37Z</time>
      </trkpt>
      <trkpt lat="44.41617" lon="1.04605">
        <ele>211.15</ele>
        <time>2015-03-08T08:54:45Z</time>
      </trkpt>
      <trkpt lat="44.41628" lon="1.0458">
        <ele>211.15</ele>
        <time>2015-03-08T08:54:56Z</time>
      </trkpt>
      <trkpt lat="44.4163" lon="1.04575">
        <ele>211.15</ele>
        <time>2015-03-08T08:54:58Z</time>
      </trkpt>
      <trkpt lat="44.41638" lon="1.04558">
        <ele>210.19</ele>
        <time>2015-03-08T08:55:07Z</time>
      </trkpt>
      <trkpt lat="44.41646" lon="1.04532">
        <ele>208.26</ele>
        <time>2015-03-08T08:55:20Z</time>
      </trkpt>
      <trkpt lat="44.41647" lon="1.04528">
        <ele>208.26</ele>
        <time>2015-03-08T08:55:22Z</time>
      </trkpt>
      <trkpt lat="44.41648" lon="1.04526">
        <ele>208.26</ele>
        <time>2015-03-08T08:55:23Z</time>
      </trkpt>
      <trkpt lat="44.4165" lon="1.04521">
        <ele>208.26</ele>
        <time>2015-03-08T08:55:26Z</time>
      </trkpt>
      <trkpt lat="44.41651" lon="1.0452">
        <ele>208.26</ele>
        <time>2015-03-08T08:55:27Z</time>
      </trkpt>
      <trkpt lat="44.41652" lon="1.04519">
        <ele>208.26</ele>
        <time>2015-03-08T08:55:28Z</time>
      </trkpt>
      <trkpt lat="44.41653" lon="1.04517">
        <ele>208.26</ele>
        <time>2015-03-08T08:55:29Z</time>
      </trkpt>
      <trkpt lat="44.41653" lon="1.04516">
        <ele>208.26</ele>
        <time>2015-03-08T08:55:30Z</time>
      </trkpt>
      <trkpt lat="44.4166" lon="1.04499">
        <ele>208.26</ele>
        <time>2015-03-08T08:55:41Z</time>
      </trkpt>
      <trkpt lat="44.41661" lon="1.04497">
        <ele>208.26</ele>
        <time>2015-03-08T08:55:42Z</time>
      </trkpt>
      <trkpt lat="44.41662" lon="1.04494">
        <ele>208.26</ele>
        <time>2015-03-08T08:55:44Z</time>
      </trkpt>
      <trkpt lat="44.41664" lon="1.04491">
        <ele>208.26</ele>
        <time>2015-03-08T08:55:46Z</time>
      </trkpt>
      <trkpt lat="44.41665" lon="1.04489">
        <ele>208.26</ele>
        <time>2015-03-08T08:55:47Z</time>
      </trkpt>
      <trkpt lat="44.41666" lon="1.04488">
        <ele>208.26</ele>
        <time>2015-03-08T08:55:48Z</time>
      </trkpt>
      <trkpt lat="44.41669" lon="1.04474">
        <ele>208.74</ele>
        <time>2015-03-08T08:55:55Z</time>
      </trkpt>
      <trkpt lat="44.4167" lon="1.04472">
        <ele>209.7</ele>
        <time>2015-03-08T08:55:56Z</time>
      </trkpt>
      <trkpt lat="44.4167" lon="1.0447">
        <ele>209.7</ele>
        <time>2015-03-08T08:55:57Z</time>
      </trkpt>
      <trkpt lat="44.41671" lon="1.04468">
        <ele>209.7</ele>
        <time>2015-03-08T08:55:58Z</time>
      </trkpt>
      <trkpt lat="44.41671" lon="1.04466">
        <ele>209.7</ele>
        <time>2015-03-08T08:55:59Z</time>
      </trkpt>
      <trkpt lat="44.41672" lon="1.04464">
        <ele>209.7</ele>
        <time>2015-03-08T08:56:00Z</time>
      </trkpt>
      <trkpt lat="44.41672" lon="1.04462">
        <ele>209.7</ele>
        <time>2015-03-08T08:56:01Z</time>
      </trkpt>
      <trkpt lat="44.41673" lon="1.0446">
        <ele>209.7</ele>
        <time>2015-03-08T08:56:02Z</time>
      </trkpt>
      <trkpt lat="44.41673" lon="1.04458">
        <ele>209.7</ele>
        <time>2015-03-08T08:56:03Z</time>
      </trkpt>
      <trkpt lat="44.41674" lon="1.04456">
        <ele>209.7</ele>
        <time>2015-03-08T08:56:04Z</time>
      </trkpt>
      <trkpt lat="44.41674" lon="1.04453">
        <ele>209.7</ele>
        <time>2015-03-08T08:56:05Z</time>
      </trkpt>
      <trkpt lat="44.41674" lon="1.04451">
        <ele>210.67</ele>
        <time>2015-03-08T08:56:06Z</time>
      </trkpt>
      <trkpt lat="44.41675" lon="1.0445">
        <ele>210.19</ele>
        <time>2015-03-08T08:56:07Z</time>
      </trkpt>
      <trkpt lat="44.41676" lon="1.04448">
        <ele>210.19</ele>
        <time>2015-03-08T08:56:08Z</time>
      </trkpt>
      <trkpt lat="44.41676" lon="1.04446">
        <ele>210.67</ele>
        <time>2015-03-08T08:56:09Z</time>
      </trkpt>
      <trkpt lat="44.41677" lon="1.04445">
        <ele>210.19</ele>
        <time>2015-03-08T08:56:10Z</time>
      </trkpt>
      <trkpt lat="44.41678" lon="1.04443">
        <ele>210.19</ele>
        <time>2015-03-08T08:56:11Z</time>
      </trkpt>
      <trkpt lat="44.41679" lon="1.04441">
        <ele>210.19</ele>
        <time>2015-03-08T08:56:12Z</time>
      </trkpt>
      <trkpt lat="44.4168" lon="1.0444">
        <ele>210.19</ele>
        <time>2015-03-08T08:56:13Z</time>
      </trkpt>
      <trkpt lat="44.41683" lon="1.04433">
        <ele>211.15</ele>
        <time>2015-03-08T08:56:17Z</time>
      </trkpt>
      <trkpt lat="44.41686" lon="1.04427">
        <ele>211.63</ele>
        <time>2015-03-08T08:56:21Z</time>
      </trkpt>
      <trkpt lat="44.41687" lon="1.04426">
        <ele>211.63</ele>
        <time>2015-03-08T08:56:22Z</time>
      </trkpt>
      <trkpt lat="44.417" lon="1.0441">
        <ele>212.59</ele>
        <time>2015-03-08T08:56:33Z</time>
      </trkpt>
      <trkpt lat="44.41702" lon="1.04408">
        <ele>212.59</ele>
        <time>2015-03-08T08:56:35Z</time>
      </trkpt>
      <trkpt lat="44.41702" lon="1.04407">
        <ele>212.59</ele>
        <time>2015-03-08T08:56:36Z</time>
      </trkpt>
      <trkpt lat="44.41704" lon="1.04406">
        <ele>212.59</ele>
        <time>2015-03-08T08:56:37Z</time>
      </trkpt>
      <trkpt lat="44.41705" lon="1.04405">
        <ele>212.59</ele>
        <time>2015-03-08T08:56:38Z</time>
      </trkpt>
      <trkpt lat="44.41706" lon="1.04404">
        <ele>212.59</ele>
        <time>2015-03-08T08:56:39Z</time>
      </trkpt>
      <trkpt lat="44.4172" lon="1.04386">
        <ele>213.55</ele>
        <time>2015-03-08T08:56:53Z</time>
      </trkpt>
      <trkpt lat="44.41721" lon="1.04384">
        <ele>213.55</ele>
        <time>2015-03-08T08:56:54Z</time>
      </trkpt>
      <trkpt lat="44.41736" lon="1.04365">
        <ele>214.51</ele>
        <time>2015-03-08T08:57:09Z</time>
      </trkpt>
      <trkpt lat="44.4175" lon="1.04336">
        <ele>215.47</ele>
        <time>2015-03-08T08:57:25Z</time>
      </trkpt>
      <trkpt lat="44.41751" lon="1.04332">
        <ele>215.47</ele>
        <time>2015-03-08T08:57:27Z</time>
      </trkpt>
      <trkpt lat="44.41751" lon="1.0433">
        <ele>215.47</ele>
        <time>2015-03-08T08:57:28Z</time>
      </trkpt>
      <trkpt lat="44.41752" lon="1.04315">
        <ele>216.43</ele>
        <time>2015-03-08T08:57:39Z</time>
      </trkpt>
      <trkpt lat="44.41753" lon="1.04313">
        <ele>216.43</ele>
        <time>2015-03-08T08:57:40Z</time>
      </trkpt>
      <trkpt lat="44.41756" lon="1.04296">
        <ele>217.4</ele>
        <time>2015-03-08T08:57:51Z</time>
      </trkpt>
      <trkpt lat="44.41764" lon="1.04276">
        <ele>218.36</ele>
        <time>2015-03-08T08:58:03Z</time>
      </trkpt>
      <trkpt lat="44.41761" lon="1.04271">
        <ele>218.84</ele>
        <time>2015-03-08T08:58:06Z</time>
      </trkpt>
      <trkpt lat="44.41754" lon="1.0425">
        <ele>220.76</ele>
        <time>2015-03-08T08:58:19Z</time>
      </trkpt>
      <trkpt lat="44.41746" lon="1.04238">
        <ele>223.64</ele>
        <time>2015-03-08T08:58:29Z</time>
      </trkpt>
      <trkpt lat="44.41745" lon="1.04236">
        <ele>223.64</ele>
        <time>2015-03-08T08:58:31Z</time>
      </trkpt>
      <trkpt lat="44.41751" lon="1.04216">
        <ele>223.64</ele>
        <time>2015-03-08T08:58:46Z</time>
      </trkpt>
      <trkpt lat="44.41762" lon="1.04196">
        <ele>224.12</ele>
        <time>2015-03-08T08:59:01Z</time>
      </trkpt>
      <trkpt lat="44.41769" lon="1.04188">
        <ele>224.12</ele>
        <time>2015-03-08T08:59:06Z</time>
      </trkpt>
      <trkpt lat="44.41771" lon="1.04185">
        <ele>224.12</ele>
        <time>2015-03-08T08:59:08Z</time>
      </trkpt>
      <trkpt lat="44.41783" lon="1.04164">
        <ele>224.61</ele>
        <time>2015-03-08T08:59:23Z</time>
      </trkpt>
      <trkpt lat="44.4179" lon="1.04156">
        <ele>224.61</ele>
        <time>2015-03-08T08:59:29Z</time>
      </trkpt>
      <trkpt lat="44.41801" lon="1.04141">
        <ele>225.57</ele>
        <time>2015-03-08T08:59:39Z</time>
      </trkpt>
      <trkpt lat="44.41806" lon="1.04136">
        <ele>225.57</ele>
        <time>2015-03-08T08:59:43Z</time>
      </trkpt>
      <trkpt lat="44.41811" lon="1.04126">
        <ele>225.57</ele>
        <time>2015-03-08T08:59:49Z</time>
      </trkpt>
      <trkpt lat="44.41821" lon="1.04112">
        <ele>225.57</ele>
        <time>2015-03-08T08:59:59Z</time>
      </trkpt>
      <trkpt lat="44.41825" lon="1.041">
        <ele>225.57</ele>
        <time>2015-03-08T09:00:05Z</time>
      </trkpt>
      <trkpt lat="44.41827" lon="1.04097">
        <ele>225.57</ele>
        <time>2015-03-08T09:00:07Z</time>
      </trkpt>
      <trkpt lat="44.41831" lon="1.0409">
        <ele>225.57</ele>
        <time>2015-03-08T09:00:12Z</time>
      </trkpt>
      <trkpt lat="44.41835" lon="1.04085">
        <ele>225.57</ele>
        <time>2015-03-08T09:00:15Z</time>
      </trkpt>
      <trkpt lat="44.41839" lon="1.04075">
        <ele>226.05</ele>
        <time>2015-03-08T09:00:21Z</time>
      </trkpt>
      <trkpt lat="44.41845" lon="1.04057">
        <ele>227.01</ele>
        <time>2015-03-08T09:00:31Z</time>
      </trkpt>
      <trkpt lat="44.41852" lon="1.04049">
        <ele>227.97</ele>
        <time>2015-03-08T09:00:36Z</time>
      </trkpt>
      <trkpt lat="44.41855" lon="1.04042">
        <ele>227.97</ele>
        <time>2015-03-08T09:00:41Z</time>
      </trkpt>
      <trkpt lat="44.41858" lon="1.04035">
        <ele>228.45</ele>
        <time>2015-03-08T09:00:45Z</time>
      </trkpt>
      <trkpt lat="44.41867" lon="1.0402">
        <ele>229.41</ele>
        <time>2015-03-08T09:00:55Z</time>
      </trkpt>
      <trkpt lat="44.41879" lon="1.04003">
        <ele>229.89</ele>
        <time>2015-03-08T09:01:08Z</time>
      </trkpt>
      <trkpt lat="44.41884" lon="1.03997">
        <ele>230.37</ele>
        <time>2015-03-08T09:01:13Z</time>
      </trkpt>
      <trkpt lat="44.41898" lon="1.03979">
        <ele>232.3</ele>
        <time>2015-03-08T09:01:27Z</time>
      </trkpt>
      <trkpt lat="44.41908" lon="1.03965">
        <ele>233.26</ele>
        <time>2015-03-08T09:01:39Z</time>
      </trkpt>
      <trkpt lat="44.41925" lon="1.03944">
        <ele>233.74</ele>
        <time>2015-03-08T09:01:54Z</time>
      </trkpt>
      <trkpt lat="44.41933" lon="1.03937">
        <ele>234.22</ele>
        <time>2015-03-08T09:02:00Z</time>
      </trkpt>
      <trkpt lat="44.41934" lon="1.03933">
        <ele>234.22</ele>
        <time>2015-03-08T09:02:02Z</time>
      </trkpt>
      <trkpt lat="44.41949" lon="1.03915">
        <ele>234.7</ele>
        <time>2015-03-08T09:02:16Z</time>
      </trkpt>
      <trkpt lat="44.41962" lon="1.03894">
        <ele>234.7</ele>
        <time>2015-03-08T09:02:29Z</time>
      </trkpt>
      <trkpt lat="44.41971" lon="1.03879">
        <ele>234.7</ele>
        <time>2015-03-08T09:02:39Z</time>
      </trkpt>
      <trkpt lat="44.4199" lon="1.03856">
        <ele>235.66</ele>
        <time>2015-03-08T09:02:54Z</time>
      </trkpt>
      <trkpt lat="44.41994" lon="1.03849">
        <ele>236.14</ele>
        <time>2015-03-08T09:02:58Z</time>
      </trkpt>
      <trkpt lat="44.42007" lon="1.0383">
        <ele>236.62</ele>
        <time>2015-03-08T09:03:12Z</time>
      </trkpt>
      <trkpt lat="44.42022" lon="1.0381">
        <ele>237.1</ele>
        <time>2015-03-08T09:03:26Z</time>
      </trkpt>
      <trkpt lat="44.42027" lon="1.03802">
        <ele>238.06</ele>
        <time>2015-03-08T09:03:31Z</time>
      </trkpt>
      <trkpt lat="44.4204" lon="1.03782">
        <ele>238.54</ele>
        <time>2015-03-08T09:03:46Z</time>
      </trkpt>
      <trkpt lat="44.42046" lon="1.03773">
        <ele>239.02</ele>
        <time>2015-03-08T09:03:52Z</time>
      </trkpt>
      <trkpt lat="44.42057" lon="1.03756">
        <ele>239.51</ele>
        <time>2015-03-08T09:04:05Z</time>
      </trkpt>
      <trkpt lat="44.42064" lon="1.03749">
        <ele>239.99</ele>
        <time>2015-03-08T09:04:11Z</time>
      </trkpt>
      <trkpt lat="44.42073" lon="1.03739">
        <ele>239.99</ele>
        <time>2015-03-08T09:04:19Z</time>
      </trkpt>
      <trkpt lat="44.42077" lon="1.03734">
        <ele>240.47</ele>
        <time>2015-03-08T09:04:23Z</time>
      </trkpt>
      <trkpt lat="44.42081" lon="1.03728">
        <ele>240.47</ele>
        <time>2015-03-08T09:04:27Z</time>
      </trkpt>
      <trkpt lat="44.42087" lon="1.0372">
        <ele>240.47</ele>
        <time>2015-03-08T09:04:33Z</time>
      </trkpt>
      <trkpt lat="44.42093" lon="1.03715">
        <ele>240.47</ele>
        <time>2015-03-08T09:04:37Z</time>
      </trkpt>
      <trkpt lat="44.42105" lon="1.03701">
        <ele>240.95</ele>
        <time>2015-03-08T09:04:48Z</time>
      </trkpt>
      <trkpt lat="44.42108" lon="1.03694">
        <ele>241.43</ele>
        <time>2015-03-08T09:04:52Z</time>
      </trkpt>
      <trkpt lat="44.42112" lon="1.03682">
        <ele>241.43</ele>
        <time>2015-03-08T09:04:59Z</time>
      </trkpt>
      <trkpt lat="44.4211" lon="1.03669">
        <ele>241.43</ele>
        <time>2015-03-08T09:05:05Z</time>
      </trkpt>
      <trkpt lat="44.42102" lon="1.03642">
        <ele>242.39</ele>
        <time>2015-03-08T09:05:20Z</time>
      </trkpt>
      <trkpt lat="44.42094" lon="1.03622">
        <ele>242.39</ele>
        <time>2015-03-08T09:05:31Z</time>
      </trkpt>
      <trkpt lat="44.42092" lon="1.03614">
        <ele>242.39</ele>
        <time>2015-03-08T09:05:35Z</time>
      </trkpt>
      <trkpt lat="44.42089" lon="1.03607">
        <ele>242.39</ele>
        <time>2015-03-08T09:05:39Z</time>
      </trkpt>
      <trkpt lat="44.4208" lon="1.03585">
        <ele>242.39</ele>
        <time>2015-03-08T09:05:51Z</time>
      </trkpt>
      <trkpt lat="44.42077" lon="1.03573">
        <ele>242.39</ele>
        <time>2015-03-08T09:05:57Z</time>
      </trkpt>
      <trkpt lat="44.42077" lon="1.03571">
        <ele>242.39</ele>
        <time>2015-03-08T09:05:58Z</time>
      </trkpt>
      <trkpt lat="44.42075" lon="1.03555">
        <ele>241.43</ele>
        <time>2015-03-08T09:06:07Z</time>
      </trkpt>
      <trkpt lat="44.42075" lon="1.03549">
        <ele>241.43</ele>
        <time>2015-03-08T09:06:10Z</time>
      </trkpt>
      <trkpt lat="44.42074" lon="1.03546">
        <ele>241.43</ele>
        <time>2015-03-08T09:06:11Z</time>
      </trkpt>
      <trkpt lat="44.42073" lon="1.03544">
        <ele>241.43</ele>
        <time>2015-03-08T09:06:12Z</time>
      </trkpt>
      <trkpt lat="44.42064" lon="1.03524">
        <ele>241.43</ele>
        <time>2015-03-08T09:06:24Z</time>
      </trkpt>
      <trkpt lat="44.42063" lon="1.03522">
        <ele>241.43</ele>
        <time>2015-03-08T09:06:25Z</time>
      </trkpt>
      <trkpt lat="44.42063" lon="1.0352">
        <ele>241.43</ele>
        <time>2015-03-08T09:06:26Z</time>
      </trkpt>
      <trkpt lat="44.42062" lon="1.03518">
        <ele>241.43</ele>
        <time>2015-03-08T09:06:27Z</time>
      </trkpt>
      <trkpt lat="44.42061" lon="1.03516">
        <ele>241.43</ele>
        <time>2015-03-08T09:06:28Z</time>
      </trkpt>
      <trkpt lat="44.42058" lon="1.03507">
        <ele>240.47</ele>
        <time>2015-03-08T09:06:33Z</time>
      </trkpt>
      <trkpt lat="44.42055" lon="1.03501">
        <ele>240.47</ele>
        <time>2015-03-08T09:06:36Z</time>
      </trkpt>
      <trkpt lat="44.42054" lon="1.03499">
        <ele>240.47</ele>
        <time>2015-03-08T09:06:37Z</time>
      </trkpt>
      <trkpt lat="44.42052" lon="1.03497">
        <ele>240.47</ele>
        <time>2015-03-08T09:06:38Z</time>
      </trkpt>
      <trkpt lat="44.42051" lon="1.03495">
        <ele>240.47</ele>
        <time>2015-03-08T09:06:39Z</time>
      </trkpt>
      <trkpt lat="44.4205" lon="1.03493">
        <ele>240.47</ele>
        <time>2015-03-08T09:06:40Z</time>
      </trkpt>
      <trkpt lat="44.42048" lon="1.03492">
        <ele>240.47</ele>
        <time>2015-03-08T09:06:41Z</time>
      </trkpt>
      <trkpt lat="44.42047" lon="1.0349">
        <ele>240.47</ele>
        <time>2015-03-08T09:06:42Z</time>
      </trkpt>
      <trkpt lat="44.42046" lon="1.03488">
        <ele>240.47</ele>
        <time>2015-03-08T09:06:43Z</time>
      </trkpt>
      <trkpt lat="44.42045" lon="1.03486">
        <ele>240.47</ele>
        <time>2015-03-08T09:06:44Z</time>
      </trkpt>
      <trkpt lat="44.42044" lon="1.03485">
        <ele>240.47</ele>
        <time>2015-03-08T09:06:45Z</time>
      </trkpt>
      <trkpt lat="44.4203" lon="1.03463">
        <ele>240.47</ele>
        <time>2015-03-08T09:06:58Z</time>
      </trkpt>
      <trkpt lat="44.42021" lon="1.03446">
        <ele>240.47</ele>
        <time>2015-03-08T09:07:08Z</time>
      </trkpt>
      <trkpt lat="44.42019" lon="1.03444">
        <ele>240.47</ele>
        <time>2015-03-08T09:07:09Z</time>
      </trkpt>
      <trkpt lat="44.42018" lon="1.03442">
        <ele>240.47</ele>
        <time>2015-03-08T09:07:10Z</time>
      </trkpt>
      <trkpt lat="44.42017" lon="1.0344">
        <ele>240.47</ele>
        <time>2015-03-08T09:07:11Z</time>
      </trkpt>
      <trkpt lat="44.42016" lon="1.03438">
        <ele>240.47</ele>
        <time>2015-03-08T09:07:12Z</time>
      </trkpt>
      <trkpt lat="44.42015" lon="1.03437">
        <ele>240.47</ele>
        <time>2015-03-08T09:07:13Z</time>
      </trkpt>
      <trkpt lat="44.42014" lon="1.03433">
        <ele>240.47</ele>
        <time>2015-03-08T09:07:16Z</time>
      </trkpt>
      <trkpt lat="44.42014" lon="1.03432">
        <ele>240.47</ele>
        <time>2015-03-08T09:07:17Z</time>
      </trkpt>
      <trkpt lat="44.42013" lon="1.03425">
        <ele>240.47</ele>
        <time>2015-03-08T09:07:21Z</time>
      </trkpt>
      <trkpt lat="44.42008" lon="1.03418">
        <ele>240.47</ele>
        <time>2015-03-08T09:07:28Z</time>
      </trkpt>
      <trkpt lat="44.42007" lon="1.03416">
        <ele>240.47</ele>
        <time>2015-03-08T09:07:29Z</time>
      </trkpt>
      <trkpt lat="44.42005" lon="1.03415">
        <ele>240.47</ele>
        <time>2015-03-08T09:07:30Z</time>
      </trkpt>
      <trkpt lat="44.42004" lon="1.03413">
        <ele>240.47</ele>
        <time>2015-03-08T09:07:31Z</time>
      </trkpt>
      <trkpt lat="44.42003" lon="1.03412">
        <ele>240.47</ele>
        <time>2015-03-08T09:07:32Z</time>
      </trkpt>
      <trkpt lat="44.41988" lon="1.03395">
        <ele>240.95</ele>
        <time>2015-03-08T09:07:42Z</time>
      </trkpt>
      <trkpt lat="44.41987" lon="1.03393">
        <ele>240.95</ele>
        <time>2015-03-08T09:07:43Z</time>
      </trkpt>
      <trkpt lat="44.41971" lon="1.03373">
        <ele>240.47</ele>
        <time>2015-03-08T09:07:57Z</time>
      </trkpt>
      <trkpt lat="44.41955" lon="1.03357">
        <ele>239.99</ele>
        <time>2015-03-08T09:08:08Z</time>
      </trkpt>
      <trkpt lat="44.41942" lon="1.03344">
        <ele>238.06</ele>
        <time>2015-03-08T09:08:21Z</time>
      </trkpt>
      <trkpt lat="44.41928" lon="1.03327">
        <ele>237.1</ele>
        <time>2015-03-08T09:08:32Z</time>
      </trkpt>
      <trkpt lat="44.41924" lon="1.03324">
        <ele>236.62</ele>
        <time>2015-03-08T09:08:34Z</time>
      </trkpt>
      <trkpt lat="44.41924" lon="1.03323">
        <ele>236.62</ele>
        <time>2015-03-08T09:08:35Z</time>
      </trkpt>
      <trkpt lat="44.41923" lon="1.03321">
        <ele>236.62</ele>
        <time>2015-03-08T09:08:36Z</time>
      </trkpt>
      <trkpt lat="44.41912" lon="1.03309">
        <ele>235.66</ele>
        <time>2015-03-08T09:08:45Z</time>
      </trkpt>
      <trkpt lat="44.41903" lon="1.03297">
        <ele>234.7</ele>
        <time>2015-03-08T09:08:55Z</time>
      </trkpt>
      <trkpt lat="44.41892" lon="1.03278">
        <ele>232.78</ele>
        <time>2015-03-08T09:09:07Z</time>
      </trkpt>
      <trkpt lat="44.41891" lon="1.03275">
        <ele>232.78</ele>
        <time>2015-03-08T09:09:08Z</time>
      </trkpt>
      <trkpt lat="44.41891" lon="1.03273">
        <ele>232.3</ele>
        <time>2015-03-08T09:09:09Z</time>
      </trkpt>
      <trkpt lat="44.41891" lon="1.03271">
        <ele>232.3</ele>
        <time>2015-03-08T09:09:10Z</time>
      </trkpt>
      <trkpt lat="44.4189" lon="1.03269">
        <ele>232.3</ele>
        <time>2015-03-08T09:09:11Z</time>
      </trkpt>
      <trkpt lat="44.4189" lon="1.03267">
        <ele>231.81</ele>
        <time>2015-03-08T09:09:12Z</time>
      </trkpt>
      <trkpt lat="44.4189" lon="1.03265">
        <ele>231.81</ele>
        <time>2015-03-08T09:09:13Z</time>
      </trkpt>
      <trkpt lat="44.41886" lon="1.03249">
        <ele>230.85</ele>
        <time>2015-03-08T09:09:22Z</time>
      </trkpt>
      <trkpt lat="44.41883" lon="1.03237">
        <ele>229.41</ele>
        <time>2015-03-08T09:09:29Z</time>
      </trkpt>
      <trkpt lat="44.41882" lon="1.03235">
        <ele>229.41</ele>
        <time>2015-03-08T09:09:30Z</time>
      </trkpt>
      <trkpt lat="44.41876" lon="1.03215">
        <ele>228.45</ele>
        <time>2015-03-08T09:09:41Z</time>
      </trkpt>
      <trkpt lat="44.41875" lon="1.03213">
        <ele>227.97</ele>
        <time>2015-03-08T09:09:42Z</time>
      </trkpt>
      <trkpt lat="44.41875" lon="1.0321">
        <ele>227.97</ele>
        <time>2015-03-08T09:09:43Z</time>
      </trkpt>
      <trkpt lat="44.41874" lon="1.03209">
        <ele>227.97</ele>
        <time>2015-03-08T09:09:44Z</time>
      </trkpt>
      <trkpt lat="44.41873" lon="1.03207">
        <ele>227.97</ele>
        <time>2015-03-08T09:09:45Z</time>
      </trkpt>
      <trkpt lat="44.41869" lon="1.03178">
        <ele>226.53</ele>
        <time>2015-03-08T09:09:59Z</time>
      </trkpt>
      <trkpt lat="44.41869" lon="1.03174">
        <ele>226.53</ele>
        <time>2015-03-08T09:10:01Z</time>
      </trkpt>
      <trkpt lat="44.41869" lon="1.0317">
        <ele>226.53</ele>
        <time>2015-03-08T09:10:03Z</time>
      </trkpt>
      <trkpt lat="44.41869" lon="1.03166">
        <ele>226.05</ele>
        <time>2015-03-08T09:10:05Z</time>
      </trkpt>
      <trkpt lat="44.41869" lon="1.0316">
        <ele>226.05</ele>
        <time>2015-03-08T09:10:08Z</time>
      </trkpt>
      <trkpt lat="44.41868" lon="1.03158">
        <ele>226.05</ele>
        <time>2015-03-08T09:10:09Z</time>
      </trkpt>
      <trkpt lat="44.41868" lon="1.03156">
        <ele>226.05</ele>
        <time>2015-03-08T09:10:10Z</time>
      </trkpt>
      <trkpt lat="44.41867" lon="1.03154">
        <ele>226.05</ele>
        <time>2015-03-08T09:10:11Z</time>
      </trkpt>
      <trkpt lat="44.41866" lon="1.03151">
        <ele>226.05</ele>
        <time>2015-03-08T09:10:12Z</time>
      </trkpt>
      <trkpt lat="44.41859" lon="1.03128">
        <ele>226.05</ele>
        <time>2015-03-08T09:10:25Z</time>
      </trkpt>
      <trkpt lat="44.4185" lon="1.03107">
        <ele>226.05</ele>
        <time>2015-03-08T09:10:38Z</time>
      </trkpt>
      <trkpt lat="44.41849" lon="1.03102">
        <ele>226.05</ele>
        <time>2015-03-08T09:10:41Z</time>
      </trkpt>
      <trkpt lat="44.41847" lon="1.03098">
        <ele>226.05</ele>
        <time>2015-03-08T09:10:43Z</time>
      </trkpt>
      <trkpt lat="44.41837" lon="1.03075">
        <ele>227.49</ele>
        <time>2015-03-08T09:10:56Z</time>
      </trkpt>
      <trkpt lat="44.4183" lon="1.03055">
        <ele>227.49</ele>
        <time>2015-03-08T09:11:07Z</time>
      </trkpt>
      <trkpt lat="44.41825" lon="1.03041">
        <ele>227.49</ele>
        <time>2015-03-08T09:11:20Z</time>
      </trkpt>
      <trkpt lat="44.41821" lon="1.03031">
        <ele>227.49</ele>
        <time>2015-03-08T09:11:26Z</time>
      </trkpt>
      <trkpt lat="44.41819" lon="1.03029">
        <ele>227.49</ele>
        <time>2015-03-08T09:11:28Z</time>
      </trkpt>
      <trkpt lat="44.4181" lon="1.03014">
        <ele>226.05</ele>
        <time>2015-03-08T09:11:38Z</time>
      </trkpt>
      <trkpt lat="44.41805" lon="1.03004">
        <ele>226.05</ele>
        <time>2015-03-08T09:11:43Z</time>
      </trkpt>
      <trkpt lat="44.41798" lon="1.02994">
        <ele>225.57</ele>
        <time>2015-03-08T09:11:49Z</time>
      </trkpt>
      <trkpt lat="44.41792" lon="1.02987">
        <ele>224.12</ele>
        <time>2015-03-08T09:11:55Z</time>
      </trkpt>
      <trkpt lat="44.41789" lon="1.02985">
        <ele>224.61</ele>
        <time>2015-03-08T09:11:57Z</time>
      </trkpt>
      <trkpt lat="44.4178" lon="1.02966">
        <ele>223.64</ele>
        <time>2015-03-08T09:12:09Z</time>
      </trkpt>
      <trkpt lat="44.41769" lon="1.02951">
        <ele>223.16</ele>
        <time>2015-03-08T09:12:21Z</time>
      </trkpt>
      <trkpt lat="44.41766" lon="1.02937">
        <ele>223.16</ele>
        <time>2015-03-08T09:12:29Z</time>
      </trkpt>
      <trkpt lat="44.41755" lon="1.0292">
        <ele>223.16</ele>
        <time>2015-03-08T09:12:41Z</time>
      </trkpt>
      <trkpt lat="44.41746" lon="1.02906">
        <ele>224.61</ele>
        <time>2015-03-08T09:12:51Z</time>
      </trkpt>
      <trkpt lat="44.41737" lon="1.02889">
        <ele>225.57</ele>
        <time>2015-03-08T09:13:04Z</time>
      </trkpt>
      <trkpt lat="44.41722" lon="1.02874">
        <ele>226.53</ele>
        <time>2015-03-08T09:13:17Z</time>
      </trkpt>
      <trkpt lat="44.4172" lon="1.02868">
        <ele>227.01</ele>
        <time>2015-03-08T09:13:27Z</time>
      </trkpt>
      <trkpt lat="44.4171" lon="1.02852">
        <ele>227.97</ele>
        <time>2015-03-08T09:13:39Z</time>
      </trkpt>
      <trkpt lat="44.41709" lon="1.0285">
        <ele>227.97</ele>
        <time>2015-03-08T09:13:41Z</time>
      </trkpt>
      <trkpt lat="44.41697" lon="1.02832">
        <ele>228.45</ele>
        <time>2015-03-08T09:13:53Z</time>
      </trkpt>
      <trkpt lat="44.4169" lon="1.02823">
        <ele>228.45</ele>
        <time>2015-03-08T09:13:59Z</time>
      </trkpt>
      <trkpt lat="44.41688" lon="1.0282">
        <ele>228.45</ele>
        <time>2015-03-08T09:14:01Z</time>
      </trkpt>
      <trkpt lat="44.41685" lon="1.02816">
        <ele>228.45</ele>
        <time>2015-03-08T09:14:04Z</time>
      </trkpt>
      <trkpt lat="44.41677" lon="1.02805">
        <ele>228.93</ele>
        <time>2015-03-08T09:14:13Z</time>
      </trkpt>
      <trkpt lat="44.41674" lon="1.02803">
        <ele>228.93</ele>
        <time>2015-03-08T09:14:15Z</time>
      </trkpt>
      <trkpt lat="44.41669" lon="1.02796">
        <ele>228.93</ele>
        <time>2015-03-08T09:14:20Z</time>
      </trkpt>
      <trkpt lat="44.41665" lon="1.02789">
        <ele>227.49</ele>
        <time>2015-03-08T09:14:25Z</time>
      </trkpt>
      <trkpt lat="44.4166" lon="1.02784">
        <ele>227.49</ele>
        <time>2015-03-08T09:14:29Z</time>
      </trkpt>
      <trkpt lat="44.41657" lon="1.0278">
        <ele>227.49</ele>
        <time>2015-03-08T09:14:31Z</time>
      </trkpt>
      <trkpt lat="44.41653" lon="1.02776">
        <ele>227.49</ele>
        <time>2015-03-08T09:14:34Z</time>
      </trkpt>
      <trkpt lat="44.41643" lon="1.02759">
        <ele>226.53</ele>
        <time>2015-03-08T09:14:45Z</time>
      </trkpt>
      <trkpt lat="44.41643" lon="1.02758">
        <ele>226.53</ele>
        <time>2015-03-08T09:14:46Z</time>
      </trkpt>
      <trkpt lat="44.41632" lon="1.02742">
        <ele>225.57</ele>
        <time>2015-03-08T09:14:56Z</time>
      </trkpt>
      <trkpt lat="44.41631" lon="1.02739">
        <ele>225.57</ele>
        <time>2015-03-08T09:14:58Z</time>
      </trkpt>
      <trkpt lat="44.41619" lon="1.02718">
        <ele>224.61</ele>
        <time>2015-03-08T09:15:12Z</time>
      </trkpt>
      <trkpt lat="44.41608" lon="1.027">
        <ele>224.12</ele>
        <time>2015-03-08T09:15:24Z</time>
      </trkpt>
      <trkpt lat="44.41604" lon="1.02694">
        <ele>223.16</ele>
        <time>2015-03-08T09:15:27Z</time>
      </trkpt>
      <trkpt lat="44.41602" lon="1.02692">
        <ele>223.16</ele>
        <time>2015-03-08T09:15:29Z</time>
      </trkpt>
      <trkpt lat="44.41598" lon="1.02683">
        <ele>222.68</ele>
        <time>2015-03-08T09:15:38Z</time>
      </trkpt>
      <trkpt lat="44.4159" lon="1.02674">
        <ele>222.2</ele>
        <time>2015-03-08T09:15:44Z</time>
      </trkpt>
      <trkpt lat="44.4158" lon="1.02668">
        <ele>221.72</ele>
        <time>2015-03-08T09:15:56Z</time>
      </trkpt>
      <trkpt lat="44.41576" lon="1.02663">
        <ele>221.72</ele>
        <time>2015-03-08T09:16:01Z</time>
      </trkpt>
      <trkpt lat="44.4157" lon="1.02659">
        <ele>221.24</ele>
        <time>2015-03-08T09:16:05Z</time>
      </trkpt>
      <trkpt lat="44.41555" lon="1.02646">
        <ele>220.76</ele>
        <time>2015-03-08T09:16:17Z</time>
      </trkpt>
      <trkpt lat="44.41553" lon="1.02645">
        <ele>220.76</ele>
        <time>2015-03-08T09:16:19Z</time>
      </trkpt>
      <trkpt lat="44.41539" lon="1.02633">
        <ele>219.8</ele>
        <time>2015-03-08T09:16:28Z</time>
      </trkpt>
      <trkpt lat="44.41536" lon="1.02631">
        <ele>219.8</ele>
        <time>2015-03-08T09:16:31Z</time>
      </trkpt>
      <trkpt lat="44.41531" lon="1.02624">
        <ele>219.32</ele>
        <time>2015-03-08T09:16:36Z</time>
      </trkpt>
      <trkpt lat="44.41527" lon="1.02615">
        <ele>218.84</ele>
        <time>2015-03-08T09:16:41Z</time>
      </trkpt>
      <trkpt lat="44.41525" lon="1.02608">
        <ele>218.84</ele>
        <time>2015-03-08T09:16:44Z</time>
      </trkpt>
      <trkpt lat="44.41521" lon="1.02597">
        <ele>217.88</ele>
        <time>2015-03-08T09:16:51Z</time>
      </trkpt>
      <trkpt lat="44.41513" lon="1.02577">
        <ele>216.91</ele>
        <time>2015-03-08T09:17:03Z</time>
      </trkpt>
      <trkpt lat="44.41512" lon="1.02575">
        <ele>216.91</ele>
        <time>2015-03-08T09:17:04Z</time>
      </trkpt>
      <trkpt lat="44.41502" lon="1.02558">
        <ele>215.47</ele>
        <time>2015-03-08T09:17:15Z</time>
      </trkpt>
      <trkpt lat="44.415" lon="1.02555">
        <ele>215.47</ele>
        <time>2015-03-08T09:17:17Z</time>
      </trkpt>
      <trkpt lat="44.41489" lon="1.02535">
        <ele>214.03</ele>
        <time>2015-03-08T09:17:30Z</time>
      </trkpt>
      <trkpt lat="44.41488" lon="1.02532">
        <ele>214.03</ele>
        <time>2015-03-08T09:17:32Z</time>
      </trkpt>
      <trkpt lat="44.41474" lon="1.02513">
        <ele>212.59</ele>
        <time>2015-03-08T09:17:43Z</time>
      </trkpt>
      <trkpt lat="44.41472" lon="1.02508">
        <ele>212.59</ele>
        <time>2015-03-08T09:17:46Z</time>
      </trkpt>
      <trkpt lat="44.4147" lon="1.02505">
        <ele>212.11</ele>
        <time>2015-03-08T09:17:50Z</time>
      </trkpt>
      <trkpt lat="44.41456" lon="1.02488">
        <ele>210.19</ele>
        <time>2015-03-08T09:18:03Z</time>
      </trkpt>
      <trkpt lat="44.41449" lon="1.02469">
        <ele>208.74</ele>
        <time>2015-03-08T09:18:17Z</time>
      </trkpt>
      <trkpt lat="44.41441" lon="1.02455">
        <ele>208.26</ele>
        <time>2015-03-08T09:18:27Z</time>
      </trkpt>
      <trkpt lat="44.41434" lon="1.0244">
        <ele>207.3</ele>
        <time>2015-03-08T09:18:38Z</time>
      </trkpt>
      <trkpt lat="44.41432" lon="1.02437">
        <ele>206.82</ele>
        <time>2015-03-08T09:18:40Z</time>
      </trkpt>
      <trkpt lat="44.41432" lon="1.02434">
        <ele>206.82</ele>
        <time>2015-03-08T09:18:42Z</time>
      </trkpt>
      <trkpt lat="44.41423" lon="1.02415">
        <ele>205.38</ele>
        <time>2015-03-08T09:18:54Z</time>
      </trkpt>
      <trkpt lat="44.41415" lon="1.02403">
        <ele>204.42</ele>
        <time>2015-03-08T09:19:01Z</time>
      </trkpt>
      <trkpt lat="44.41406" lon="1.0239">
        <ele>203.46</ele>
        <time>2015-03-08T09:19:14Z</time>
      </trkpt>
      <trkpt lat="44.41407" lon="1.02386">
        <ele>202.98</ele>
        <time>2015-03-08T09:19:28Z</time>
      </trkpt>
      <trkpt lat="44.41405" lon="1.02385">
        <ele>202.98</ele>
        <time>2015-03-08T09:19:42Z</time>
      </trkpt>
      <trkpt lat="44.41399" lon="1.02379">
        <ele>202.49</ele>
        <time>2015-03-08T09:19:54Z</time>
      </trkpt>
      <trkpt lat="44.41385" lon="1.02371">
        <ele>202.01</ele>
        <time>2015-03-08T09:20:04Z</time>
      </trkpt>
      <trkpt lat="44.41367" lon="1.02364">
        <ele>198.65</ele>
        <time>2015-03-08T09:20:14Z</time>
      </trkpt>
      <trkpt lat="44.41365" lon="1.02362">
        <ele>198.17</ele>
        <time>2015-03-08T09:20:15Z</time>
      </trkpt>
      <trkpt lat="44.41358" lon="1.02361">
        <ele>195.28</ele>
        <time>2015-03-08T09:20:19Z</time>
      </trkpt>
      <trkpt lat="44.41352" lon="1.02359">
        <ele>194.8</ele>
        <time>2015-03-08T09:20:22Z</time>
      </trkpt>
      <trkpt lat="44.41341" lon="1.02353">
        <ele>194.8</ele>
        <time>2015-03-08T09:20:29Z</time>
      </trkpt>
      <trkpt lat="44.41323" lon="1.02342">
        <ele>194.8</ele>
        <time>2015-03-08T09:20:42Z</time>
      </trkpt>
      <trkpt lat="44.4132" lon="1.02339">
        <ele>193.84</ele>
        <time>2015-03-08T09:20:44Z</time>
      </trkpt>
      <trkpt lat="44.41307" lon="1.02329">
        <ele>192.88</ele>
        <time>2015-03-08T09:20:51Z</time>
      </trkpt>
      <trkpt lat="44.41302" lon="1.02327">
        <ele>190.96</ele>
        <time>2015-03-08T09:20:54Z</time>
      </trkpt>
      <trkpt lat="44.41285" lon="1.02331">
        <ele>187.11</ele>
        <time>2015-03-08T09:20:59Z</time>
      </trkpt>
      <trkpt lat="44.41282" lon="1.02332">
        <ele>186.63</ele>
        <time>2015-03-08T09:21:00Z</time>
      </trkpt>
      <trkpt lat="44.41278" lon="1.02333">
        <ele>185.19</ele>
        <time>2015-03-08T09:21:02Z</time>
      </trkpt>
      <trkpt lat="44.41275" lon="1.02334">
        <ele>184.71</ele>
        <time>2015-03-08T09:21:04Z</time>
      </trkpt>
      <trkpt lat="44.41266" lon="1.02335">
        <ele>183.75</ele>
        <time>2015-03-08T09:21:08Z</time>
      </trkpt>
      <trkpt lat="44.41247" lon="1.0234">
        <ele>183.27</ele>
        <time>2015-03-08T09:21:18Z</time>
      </trkpt>
      <trkpt lat="44.41244" lon="1.0234">
        <ele>183.27</ele>
        <time>2015-03-08T09:21:20Z</time>
      </trkpt>
      <trkpt lat="44.41236" lon="1.02346">
        <ele>182.31</ele>
        <time>2015-03-08T09:21:26Z</time>
      </trkpt>
      <trkpt lat="44.41229" lon="1.02348">
        <ele>181.83</ele>
        <time>2015-03-08T09:21:31Z</time>
      </trkpt>
      <trkpt lat="44.41232" lon="1.02339">
        <ele>179.9</ele>
        <time>2015-03-08T09:21:38Z</time>
      </trkpt>
      <trkpt lat="44.41237" lon="1.02327">
        <ele>176.54</ele>
        <time>2015-03-08T09:21:45Z</time>
      </trkpt>
      <trkpt lat="44.41242" lon="1.02317">
        <ele>173.66</ele>
        <time>2015-03-08T09:21:51Z</time>
      </trkpt>
      <trkpt lat="44.4125" lon="1.02293">
        <ele>173.66</ele>
        <time>2015-03-08T09:22:05Z</time>
      </trkpt>
      <trkpt lat="44.41257" lon="1.02277">
        <ele>173.66</ele>
        <time>2015-03-08T09:22:14Z</time>
      </trkpt>
      <trkpt lat="44.41262" lon="1.02269">
        <ele>173.66</ele>
        <time>2015-03-08T09:22:18Z</time>
      </trkpt>
      <trkpt lat="44.41266" lon="1.02257">
        <ele>173.17</ele>
        <time>2015-03-08T09:22:24Z</time>
      </trkpt>
      <trkpt lat="44.41279" lon="1.02231">
        <ele>171.25</ele>
        <time>2015-03-08T09:22:38Z</time>
      </trkpt>
      <trkpt lat="44.41299" lon="1.02209">
        <ele>169.33</ele>
        <time>2015-03-08T09:22:54Z</time>
      </trkpt>
      <trkpt lat="44.41307" lon="1.02203">
        <ele>168.85</ele>
        <time>2015-03-08T09:22:59Z</time>
      </trkpt>
      <trkpt lat="44.41311" lon="1.02195">
        <ele>168.37</ele>
        <time>2015-03-08T09:23:03Z</time>
      </trkpt>
      <trkpt lat="44.41315" lon="1.02183">
        <ele>168.37</ele>
        <time>2015-03-08T09:23:09Z</time>
      </trkpt>
      <trkpt lat="44.41318" lon="1.02152">
        <ele>167.89</ele>
        <time>2015-03-08T09:23:22Z</time>
      </trkpt>
      <trkpt lat="44.41315" lon="1.02139">
        <ele>167.89</ele>
        <time>2015-03-08T09:23:28Z</time>
      </trkpt>
      <trkpt lat="44.41314" lon="1.02132">
        <ele>167.41</ele>
        <time>2015-03-08T09:23:33Z</time>
      </trkpt>
      <trkpt lat="44.41309" lon="1.02104">
        <ele>167.41</ele>
        <time>2015-03-08T09:23:46Z</time>
      </trkpt>
      <trkpt lat="44.41315" lon="1.02085">
        <ele>166.93</ele>
        <time>2015-03-08T09:23:58Z</time>
      </trkpt>
      <trkpt lat="44.41318" lon="1.02083">
        <ele>168.37</ele>
        <time>2015-03-08T09:24:02Z</time>
      </trkpt>
      <trkpt lat="44.41325" lon="1.02068">
        <ele>168.37</ele>
        <time>2015-03-08T09:24:13Z</time>
      </trkpt>
      <trkpt lat="44.41327" lon="1.02065">
        <ele>168.37</ele>
        <time>2015-03-08T09:24:15Z</time>
      </trkpt>
      <trkpt lat="44.41334" lon="1.02055">
        <ele>168.37</ele>
        <time>2015-03-08T09:24:23Z</time>
      </trkpt>
      <trkpt lat="44.4134" lon="1.02047">
        <ele>168.37</ele>
        <time>2015-03-08T09:24:28Z</time>
      </trkpt>
      <trkpt lat="44.41346" lon="1.02036">
        <ele>168.37</ele>
        <time>2015-03-08T09:24:35Z</time>
      </trkpt>
      <trkpt lat="44.41357" lon="1.0201">
        <ele>168.37</ele>
        <time>2015-03-08T09:24:49Z</time>
      </trkpt>
      <trkpt lat="44.41366" lon="1.01985">
        <ele>168.37</ele>
        <time>2015-03-08T09:25:03Z</time>
      </trkpt>
      <trkpt lat="44.41371" lon="1.01968">
        <ele>171.73</ele>
        <time>2015-03-08T09:25:14Z</time>
      </trkpt>
      <trkpt lat="44.41376" lon="1.01955">
        <ele>174.62</ele>
        <time>2015-03-08T09:25:22Z</time>
      </trkpt>
      <trkpt lat="44.41381" lon="1.01925">
        <ele>175.58</ele>
        <time>2015-03-08T09:25:37Z</time>
      </trkpt>
      <trkpt lat="44.41376" lon="1.01897">
        <ele>176.06</ele>
        <time>2015-03-08T09:25:50Z</time>
      </trkpt>
      <trkpt lat="44.41366" lon="1.01875">
        <ele>177.5</ele>
        <time>2015-03-08T09:26:03Z</time>
      </trkpt>
      <trkpt lat="44.41364" lon="1.01871">
        <ele>177.98</ele>
        <time>2015-03-08T09:26:06Z</time>
      </trkpt>
      <trkpt lat="44.41363" lon="1.01868">
        <ele>177.98</ele>
        <time>2015-03-08T09:26:08Z</time>
      </trkpt>
      <trkpt lat="44.41354" lon="1.01854">
        <ele>177.98</ele>
        <time>2015-03-08T09:26:16Z</time>
      </trkpt>
      <trkpt lat="44.41341" lon="1.01838">
        <ele>177.98</ele>
        <time>2015-03-08T09:26:27Z</time>
      </trkpt>
      <trkpt lat="44.4134" lon="1.01836">
        <ele>177.98</ele>
        <time>2015-03-08T09:26:28Z</time>
      </trkpt>
      <trkpt lat="44.41337" lon="1.01827">
        <ele>177.02</ele>
        <time>2015-03-08T09:26:33Z</time>
      </trkpt>
      <trkpt lat="44.41339" lon="1.01817">
        <ele>176.54</ele>
        <time>2015-03-08T09:26:38Z</time>
      </trkpt>
      <trkpt lat="44.41338" lon="1.01803">
        <ele>175.1</ele>
        <time>2015-03-08T09:26:46Z</time>
      </trkpt>
      <trkpt lat="44.41344" lon="1.01777">
        <ele>173.17</ele>
        <time>2015-03-08T09:27:02Z</time>
      </trkpt>
      <trkpt lat="44.41347" lon="1.01759">
        <ele>169.33</ele>
        <time>2015-03-08T09:27:11Z</time>
      </trkpt>
      <trkpt lat="44.41354" lon="1.01745">
        <ele>166.93</ele>
        <time>2015-03-08T09:27:22Z</time>
      </trkpt>
      <trkpt lat="44.41365" lon="1.01742">
        <ele>166.93</ele>
        <time>2015-03-08T09:27:32Z</time>
      </trkpt>
      <trkpt lat="44.41375" lon="1.01741">
        <ele>166.93</ele>
        <time>2015-03-08T09:27:41Z</time>
      </trkpt>
      <trkpt lat="44.41389" lon="1.01756">
        <ele>165</ele>
        <time>2015-03-08T09:27:56Z</time>
      </trkpt>
      <trkpt lat="44.41399" lon="1.01772">
        <ele>164.52</ele>
        <time>2015-03-08T09:28:10Z</time>
      </trkpt>
      <trkpt lat="44.41404" lon="1.01773">
        <ele>163.56</ele>
        <time>2015-03-08T09:28:14Z</time>
      </trkpt>
      <trkpt lat="44.41415" lon="1.01778">
        <ele>164.04</ele>
        <time>2015-03-08T09:28:25Z</time>
      </trkpt>
      <trkpt lat="44.41424" lon="1.01786">
        <ele>164.04</ele>
        <time>2015-03-08T09:28:33Z</time>
      </trkpt>
      <trkpt lat="44.4143" lon="1.01788">
        <ele>164.04</ele>
        <time>2015-03-08T09:28:38Z</time>
      </trkpt>
      <trkpt lat="44.41435" lon="1.01783">
        <ele>164.04</ele>
        <time>2015-03-08T09:28:42Z</time>
      </trkpt>
      <trkpt lat="44.41444" lon="1.01749">
        <ele>164.04</ele>
        <time>2015-03-08T09:28:58Z</time>
      </trkpt>
      <trkpt lat="44.41449" lon="1.01735">
        <ele>165</ele>
        <time>2015-03-08T09:29:07Z</time>
      </trkpt>
      <trkpt lat="44.41452" lon="1.01731">
        <ele>165.48</ele>
        <time>2015-03-08T09:29:10Z</time>
      </trkpt>
      <trkpt lat="44.41457" lon="1.01729">
        <ele>165.96</ele>
        <time>2015-03-08T09:29:15Z</time>
      </trkpt>
      <trkpt lat="44.41464" lon="1.01742">
        <ele>168.37</ele>
        <time>2015-03-08T09:29:28Z</time>
      </trkpt>
      <trkpt lat="44.41469" lon="1.01752">
        <ele>171.73</ele>
        <time>2015-03-08T09:29:35Z</time>
      </trkpt>
      <trkpt lat="44.41478" lon="1.0177">
        <ele>173.17</ele>
        <time>2015-03-08T09:29:47Z</time>
      </trkpt>
      <trkpt lat="44.41482" lon="1.01775">
        <ele>173.17</ele>
        <time>2015-03-08T09:29:52Z</time>
      </trkpt>
      <trkpt lat="44.41485" lon="1.01782">
        <ele>174.14</ele>
        <time>2015-03-08T09:29:58Z</time>
      </trkpt>
      <trkpt lat="44.41488" lon="1.01784">
        <ele>174.14</ele>
        <time>2015-03-08T09:30:01Z</time>
      </trkpt>
      <trkpt lat="44.41491" lon="1.01788">
        <ele>175.1</ele>
        <time>2015-03-08T09:30:05Z</time>
      </trkpt>
      <trkpt lat="44.41502" lon="1.01795">
        <ele>176.06</ele>
        <time>2015-03-08T09:30:15Z</time>
      </trkpt>
      <trkpt lat="44.41514" lon="1.01801">
        <ele>179.42</ele>
        <time>2015-03-08T09:30:26Z</time>
      </trkpt>
      <trkpt lat="44.41515" lon="1.01802">
        <ele>179.9</ele>
        <time>2015-03-08T09:30:27Z</time>
      </trkpt>
      <trkpt lat="44.41521" lon="1.01808">
        <ele>181.83</ele>
        <time>2015-03-08T09:30:32Z</time>
      </trkpt>
      <trkpt lat="44.41526" lon="1.01812">
        <ele>181.35</ele>
        <time>2015-03-08T09:30:37Z</time>
      </trkpt>
      <trkpt lat="44.41542" lon="1.01819">
        <ele>181.35</ele>
        <time>2015-03-08T09:30:50Z</time>
      </trkpt>
      <trkpt lat="44.41564" lon="1.01828">
        <ele>181.83</ele>
        <time>2015-03-08T09:31:06Z</time>
      </trkpt>
      <trkpt lat="44.41582" lon="1.01827">
        <ele>181.83</ele>
        <time>2015-03-08T09:31:20Z</time>
      </trkpt>
      <trkpt lat="44.41583" lon="1.01828">
        <ele>181.83</ele>
        <time>2015-03-08T09:31:21Z</time>
      </trkpt>
      <trkpt lat="44.41591" lon="1.01829">
        <ele>182.31</ele>
        <time>2015-03-08T09:31:26Z</time>
      </trkpt>
      <trkpt lat="44.41593" lon="1.0183">
        <ele>182.31</ele>
        <time>2015-03-08T09:31:28Z</time>
      </trkpt>
      <trkpt lat="44.41594" lon="1.01831">
        <ele>182.31</ele>
        <time>2015-03-08T09:31:30Z</time>
      </trkpt>
      <trkpt lat="44.41614" lon="1.01837">
        <ele>182.79</ele>
        <time>2015-03-08T09:31:43Z</time>
      </trkpt>
      <trkpt lat="44.41615" lon="1.01838">
        <ele>182.79</ele>
        <time>2015-03-08T09:31:44Z</time>
      </trkpt>
      <trkpt lat="44.4162" lon="1.01841">
        <ele>182.79</ele>
        <time>2015-03-08T09:31:48Z</time>
      </trkpt>
      <trkpt lat="44.41629" lon="1.01841">
        <ele>182.79</ele>
        <time>2015-03-08T09:31:54Z</time>
      </trkpt>
      <trkpt lat="44.41649" lon="1.01847">
        <ele>183.27</ele>
        <time>2015-03-08T09:32:08Z</time>
      </trkpt>
      <trkpt lat="44.41666" lon="1.01843">
        <ele>184.23</ele>
        <time>2015-03-08T09:32:20Z</time>
      </trkpt>
      <trkpt lat="44.41687" lon="1.0184">
        <ele>184.71</ele>
        <time>2015-03-08T09:32:34Z</time>
      </trkpt>
      <trkpt lat="44.41698" lon="1.01852">
        <ele>185.19</ele>
        <time>2015-03-08T09:32:48Z</time>
      </trkpt>
      <trkpt lat="44.41708" lon="1.01874">
        <ele>185.19</ele>
        <time>2015-03-08T09:33:02Z</time>
      </trkpt>
      <trkpt lat="44.41711" lon="1.01881">
        <ele>185.19</ele>
        <time>2015-03-08T09:33:06Z</time>
      </trkpt>
      <trkpt lat="44.41722" lon="1.01903">
        <ele>185.67</ele>
        <time>2015-03-08T09:33:20Z</time>
      </trkpt>
      <trkpt lat="44.41732" lon="1.01923">
        <ele>187.11</ele>
        <time>2015-03-08T09:33:32Z</time>
      </trkpt>
      <trkpt lat="44.4174" lon="1.01939">
        <ele>188.08</ele>
        <time>2015-03-08T09:33:43Z</time>
      </trkpt>
      <trkpt lat="44.41741" lon="1.0195">
        <ele>189.52</ele>
        <time>2015-03-08T09:33:51Z</time>
      </trkpt>
      <trkpt lat="44.41745" lon="1.01982">
        <ele>190.96</ele>
        <time>2015-03-08T09:34:06Z</time>
      </trkpt>
      <trkpt lat="44.41752" lon="1.02001">
        <ele>192.88</ele>
        <time>2015-03-08T09:34:16Z</time>
      </trkpt>
      <trkpt lat="44.41754" lon="1.02008">
        <ele>193.36</ele>
        <time>2015-03-08T09:34:20Z</time>
      </trkpt>
      <trkpt lat="44.41755" lon="1.02013">
        <ele>193.36</ele>
        <time>2015-03-08T09:34:22Z</time>
      </trkpt>
      <trkpt lat="44.41761" lon="1.02021">
        <ele>194.32</ele>
        <time>2015-03-08T09:34:27Z</time>
      </trkpt>
      <trkpt lat="44.41766" lon="1.02029">
        <ele>194.8</ele>
        <time>2015-03-08T09:34:32Z</time>
      </trkpt>
      <trkpt lat="44.41773" lon="1.0204">
        <ele>196.25</ele>
        <time>2015-03-08T09:34:40Z</time>
      </trkpt>
      <trkpt lat="44.41791" lon="1.02052">
        <ele>198.17</ele>
        <time>2015-03-08T09:34:54Z</time>
      </trkpt>
      <trkpt lat="44.418" lon="1.02064">
        <ele>198.65</ele>
        <time>2015-03-08T09:35:03Z</time>
      </trkpt>
      <trkpt lat="44.4181" lon="1.02086">
        <ele>199.61</ele>
        <time>2015-03-08T09:35:17Z</time>
      </trkpt>
      <trkpt lat="44.41819" lon="1.02108">
        <ele>201.05</ele>
        <time>2015-03-08T09:35:30Z</time>
      </trkpt>
      <trkpt lat="44.41829" lon="1.02124">
        <ele>202.01</ele>
        <time>2015-03-08T09:35:44Z</time>
      </trkpt>
      <trkpt lat="44.41842" lon="1.02144">
        <ele>202.49</ele>
        <time>2015-03-08T09:35:57Z</time>
      </trkpt>
      <trkpt lat="44.41853" lon="1.02164">
        <ele>202.49</ele>
        <time>2015-03-08T09:36:09Z</time>
      </trkpt>
      <trkpt lat="44.41862" lon="1.0218">
        <ele>202.98</ele>
        <time>2015-03-08T09:36:17Z</time>
      </trkpt>
      <trkpt lat="44.41876" lon="1.02206">
        <ele>203.46</ele>
        <time>2015-03-08T09:36:31Z</time>
      </trkpt>
      <trkpt lat="44.41879" lon="1.02212">
        <ele>203.94</ele>
        <time>2015-03-08T09:36:35Z</time>
      </trkpt>
      <trkpt lat="44.41893" lon="1.02232">
        <ele>204.9</ele>
        <time>2015-03-08T09:36:49Z</time>
      </trkpt>
      <trkpt lat="44.41909" lon="1.02255">
        <ele>206.82</ele>
        <time>2015-03-08T09:37:05Z</time>
      </trkpt>
      <trkpt lat="44.41922" lon="1.02274">
        <ele>208.26</ele>
        <time>2015-03-08T09:37:18Z</time>
      </trkpt>
      <trkpt lat="44.41934" lon="1.02294">
        <ele>210.19</ele>
        <time>2015-03-08T09:37:31Z</time>
      </trkpt>
      <trkpt lat="44.41949" lon="1.02316">
        <ele>211.15</ele>
        <time>2015-03-08T09:37:46Z</time>
      </trkpt>
      <trkpt lat="44.41963" lon="1.0234">
        <ele>211.63</ele>
        <time>2015-03-08T09:38:00Z</time>
      </trkpt>
      <trkpt lat="44.41979" lon="1.02365">
        <ele>212.11</ele>
        <time>2015-03-08T09:38:15Z</time>
      </trkpt>
      <trkpt lat="44.4199" lon="1.02387">
        <ele>213.07</ele>
        <time>2015-03-08T09:38:28Z</time>
      </trkpt>
      <trkpt lat="44.42005" lon="1.02409">
        <ele>214.99</ele>
        <time>2015-03-08T09:38:44Z</time>
      </trkpt>
      <trkpt lat="44.42013" lon="1.0242">
        <ele>216.43</ele>
        <time>2015-03-08T09:38:52Z</time>
      </trkpt>
      <trkpt lat="44.42026" lon="1.02443">
        <ele>219.32</ele>
        <time>2015-03-08T09:39:07Z</time>
      </trkpt>
      <trkpt lat="44.42038" lon="1.02466">
        <ele>220.28</ele>
        <time>2015-03-08T09:39:21Z</time>
      </trkpt>
      <trkpt lat="44.42044" lon="1.0247">
        <ele>220.76</ele>
        <time>2015-03-08T09:39:25Z</time>
      </trkpt>
      <trkpt lat="44.42048" lon="1.02469">
        <ele>221.24</ele>
        <time>2015-03-08T09:39:28Z</time>
      </trkpt>
      <trkpt lat="44.42056" lon="1.02459">
        <ele>221.24</ele>
        <time>2015-03-08T09:39:35Z</time>
      </trkpt>
      <trkpt lat="44.42068" lon="1.02436">
        <ele>221.72</ele>
        <time>2015-03-08T09:39:51Z</time>
      </trkpt>
      <trkpt lat="44.42082" lon="1.02409">
        <ele>221.72</ele>
        <time>2015-03-08T09:40:07Z</time>
      </trkpt>
      <trkpt lat="44.42095" lon="1.02386">
        <ele>220.76</ele>
        <time>2015-03-08T09:40:22Z</time>
      </trkpt>
      <trkpt lat="44.42116" lon="1.02378">
        <ele>220.28</ele>
        <time>2015-03-08T09:40:37Z</time>
      </trkpt>
      <trkpt lat="44.42133" lon="1.02384">
        <ele>219.8</ele>
        <time>2015-03-08T09:40:49Z</time>
      </trkpt>
      <trkpt lat="44.42155" lon="1.02391">
        <ele>219.8</ele>
        <time>2015-03-08T09:41:03Z</time>
      </trkpt>
      <trkpt lat="44.42179" lon="1.02396">
        <ele>219.32</ele>
        <time>2015-03-08T09:41:13Z</time>
      </trkpt>
      <trkpt lat="44.42193" lon="1.02379">
        <ele>218.84</ele>
        <time>2015-03-08T09:41:23Z</time>
      </trkpt>
      <trkpt lat="44.42196" lon="1.02372">
        <ele>218.84</ele>
        <time>2015-03-08T09:41:27Z</time>
      </trkpt>
      <trkpt lat="44.42196" lon="1.0237">
        <ele>218.84</ele>
        <time>2015-03-08T09:41:28Z</time>
      </trkpt>
      <trkpt lat="44.42203" lon="1.02337">
        <ele>218.36</ele>
        <time>2015-03-08T09:41:44Z</time>
      </trkpt>
      <trkpt lat="44.42205" lon="1.02329">
        <ele>217.88</ele>
        <time>2015-03-08T09:41:48Z</time>
      </trkpt>
      <trkpt lat="44.42205" lon="1.02327">
        <ele>217.88</ele>
        <time>2015-03-08T09:41:49Z</time>
      </trkpt>
      <trkpt lat="44.42206" lon="1.02325">
        <ele>217.88</ele>
        <time>2015-03-08T09:41:50Z</time>
      </trkpt>
      <trkpt lat="44.42208" lon="1.02318">
        <ele>217.4</ele>
        <time>2015-03-08T09:41:54Z</time>
      </trkpt>
      <trkpt lat="44.42209" lon="1.02316">
        <ele>217.4</ele>
        <time>2015-03-08T09:41:55Z</time>
      </trkpt>
      <trkpt lat="44.42209" lon="1.02315">
        <ele>217.4</ele>
        <time>2015-03-08T09:41:56Z</time>
      </trkpt>
      <trkpt lat="44.4221" lon="1.02313">
        <ele>217.4</ele>
        <time>2015-03-08T09:41:57Z</time>
      </trkpt>
      <trkpt lat="44.4221" lon="1.02311">
        <ele>217.4</ele>
        <time>2015-03-08T09:41:58Z</time>
      </trkpt>
      <trkpt lat="44.42212" lon="1.0231">
        <ele>217.4</ele>
        <time>2015-03-08T09:41:59Z</time>
      </trkpt>
      <trkpt lat="44.42212" lon="1.02308">
        <ele>217.4</ele>
        <time>2015-03-08T09:42:00Z</time>
      </trkpt>
      <trkpt lat="44.42213" lon="1.02306">
        <ele>216.91</ele>
        <time>2015-03-08T09:42:01Z</time>
      </trkpt>
      <trkpt lat="44.42214" lon="1.02304">
        <ele>216.91</ele>
        <time>2015-03-08T09:42:02Z</time>
      </trkpt>
      <trkpt lat="44.42215" lon="1.02303">
        <ele>216.91</ele>
        <time>2015-03-08T09:42:03Z</time>
      </trkpt>
      <trkpt lat="44.42216" lon="1.02302">
        <ele>216.91</ele>
        <time>2015-03-08T09:42:04Z</time>
      </trkpt>
      <trkpt lat="44.42216" lon="1.02301">
        <ele>216.91</ele>
        <time>2015-03-08T09:42:05Z</time>
      </trkpt>
      <trkpt lat="44.42228" lon="1.02277">
        <ele>216.43</ele>
        <time>2015-03-08T09:42:20Z</time>
      </trkpt>
      <trkpt lat="44.42236" lon="1.02264">
        <ele>216.43</ele>
        <time>2015-03-08T09:42:28Z</time>
      </trkpt>
      <trkpt lat="44.42237" lon="1.02262">
        <ele>216.43</ele>
        <time>2015-03-08T09:42:29Z</time>
      </trkpt>
      <trkpt lat="44.42237" lon="1.0226">
        <ele>216.43</ele>
        <time>2015-03-08T09:42:30Z</time>
      </trkpt>
      <trkpt lat="44.42238" lon="1.02259">
        <ele>216.43</ele>
        <time>2015-03-08T09:42:31Z</time>
      </trkpt>
      <trkpt lat="44.4224" lon="1.02257">
        <ele>216.43</ele>
        <time>2015-03-08T09:42:32Z</time>
      </trkpt>
      <trkpt lat="44.42241" lon="1.02255">
        <ele>215.95</ele>
        <time>2015-03-08T09:42:33Z</time>
      </trkpt>
      <trkpt lat="44.42242" lon="1.02254">
        <ele>215.95</ele>
        <time>2015-03-08T09:42:34Z</time>
      </trkpt>
      <trkpt lat="44.42243" lon="1.02252">
        <ele>215.95</ele>
        <time>2015-03-08T09:42:35Z</time>
      </trkpt>
      <trkpt lat="44.42249" lon="1.02241">
        <ele>215.95</ele>
        <time>2015-03-08T09:42:42Z</time>
      </trkpt>
      <trkpt lat="44.4225" lon="1.0224">
        <ele>215.47</ele>
        <time>2015-03-08T09:42:43Z</time>
      </trkpt>
      <trkpt lat="44.42251" lon="1.02239">
        <ele>215.47</ele>
        <time>2015-03-08T09:42:44Z</time>
      </trkpt>
      <trkpt lat="44.42252" lon="1.02238">
        <ele>215.47</ele>
        <time>2015-03-08T09:42:45Z</time>
      </trkpt>
      <trkpt lat="44.42253" lon="1.02236">
        <ele>215.47</ele>
        <time>2015-03-08T09:42:46Z</time>
      </trkpt>
      <trkpt lat="44.42254" lon="1.02235">
        <ele>215.47</ele>
        <time>2015-03-08T09:42:47Z</time>
      </trkpt>
      <trkpt lat="44.42255" lon="1.02234">
        <ele>215.47</ele>
        <time>2015-03-08T09:42:48Z</time>
      </trkpt>
      <trkpt lat="44.42258" lon="1.02231">
        <ele>214.99</ele>
        <time>2015-03-08T09:42:50Z</time>
      </trkpt>
      <trkpt lat="44.42259" lon="1.0223">
        <ele>214.99</ele>
        <time>2015-03-08T09:42:51Z</time>
      </trkpt>
      <trkpt lat="44.4226" lon="1.02229">
        <ele>214.99</ele>
        <time>2015-03-08T09:42:52Z</time>
      </trkpt>
      <trkpt lat="44.42261" lon="1.02228">
        <ele>214.99</ele>
        <time>2015-03-08T09:42:53Z</time>
      </trkpt>
      <trkpt lat="44.42262" lon="1.02227">
        <ele>214.99</ele>
        <time>2015-03-08T09:42:54Z</time>
      </trkpt>
      <trkpt lat="44.42263" lon="1.02225">
        <ele>214.99</ele>
        <time>2015-03-08T09:42:55Z</time>
      </trkpt>
      <trkpt lat="44.42264" lon="1.02224">
        <ele>214.99</ele>
        <time>2015-03-08T09:42:56Z</time>
      </trkpt>
      <trkpt lat="44.42265" lon="1.02222">
        <ele>214.99</ele>
        <time>2015-03-08T09:42:57Z</time>
      </trkpt>
      <trkpt lat="44.42266" lon="1.0222">
        <ele>214.99</ele>
        <time>2015-03-08T09:42:58Z</time>
      </trkpt>
      <trkpt lat="44.42267" lon="1.02219">
        <ele>214.99</ele>
        <time>2015-03-08T09:42:59Z</time>
      </trkpt>
      <trkpt lat="44.42268" lon="1.02218">
        <ele>214.51</ele>
        <time>2015-03-08T09:43:00Z</time>
      </trkpt>
      <trkpt lat="44.42269" lon="1.02216">
        <ele>214.51</ele>
        <time>2015-03-08T09:43:01Z</time>
      </trkpt>
      <trkpt lat="44.4227" lon="1.02215">
        <ele>214.51</ele>
        <time>2015-03-08T09:43:02Z</time>
      </trkpt>
      <trkpt lat="44.42274" lon="1.02211">
        <ele>214.51</ele>
        <time>2015-03-08T09:43:05Z</time>
      </trkpt>
      <trkpt lat="44.42274" lon="1.0221">
        <ele>213.55</ele>
        <time>2015-03-08T09:43:06Z</time>
      </trkpt>
      <trkpt lat="44.42275" lon="1.02209">
        <ele>214.03</ele>
        <time>2015-03-08T09:43:07Z</time>
      </trkpt>
      <trkpt lat="44.42277" lon="1.02208">
        <ele>214.03</ele>
        <time>2015-03-08T09:43:08Z</time>
      </trkpt>
      <trkpt lat="44.42278" lon="1.02206">
        <ele>214.03</ele>
        <time>2015-03-08T09:43:09Z</time>
      </trkpt>
      <trkpt lat="44.42279" lon="1.02205">
        <ele>214.03</ele>
        <time>2015-03-08T09:43:10Z</time>
      </trkpt>
      <trkpt lat="44.4228" lon="1.02203">
        <ele>213.07</ele>
        <time>2015-03-08T09:43:11Z</time>
      </trkpt>
      <trkpt lat="44.42281" lon="1.02202">
        <ele>213.55</ele>
        <time>2015-03-08T09:43:12Z</time>
      </trkpt>
      <trkpt lat="44.42282" lon="1.022">
        <ele>213.55</ele>
        <time>2015-03-08T09:43:13Z</time>
      </trkpt>
      <trkpt lat="44.42283" lon="1.02199">
        <ele>213.55</ele>
        <time>2015-03-08T09:43:14Z</time>
      </trkpt>
      <trkpt lat="44.42284" lon="1.02198">
        <ele>213.55</ele>
        <time>2015-03-08T09:43:15Z</time>
      </trkpt>
      <trkpt lat="44.42285" lon="1.02196">
        <ele>213.55</ele>
        <time>2015-03-08T09:43:16Z</time>
      </trkpt>
      <trkpt lat="44.42286" lon="1.02194">
        <ele>212.59</ele>
        <time>2015-03-08T09:43:17Z</time>
      </trkpt>
      <trkpt lat="44.42287" lon="1.02192">
        <ele>212.59</ele>
        <time>2015-03-08T09:43:18Z</time>
      </trkpt>
      <trkpt lat="44.42289" lon="1.02191">
        <ele>212.59</ele>
        <time>2015-03-08T09:43:19Z</time>
      </trkpt>
      <trkpt lat="44.4229" lon="1.02189">
        <ele>212.59</ele>
        <time>2015-03-08T09:43:20Z</time>
      </trkpt>
      <trkpt lat="44.42291" lon="1.02187">
        <ele>212.59</ele>
        <time>2015-03-08T09:43:21Z</time>
      </trkpt>
      <trkpt lat="44.42292" lon="1.02186">
        <ele>212.11</ele>
        <time>2015-03-08T09:43:22Z</time>
      </trkpt>
      <trkpt lat="44.42293" lon="1.02184">
        <ele>212.11</ele>
        <time>2015-03-08T09:43:23Z</time>
      </trkpt>
      <trkpt lat="44.42295" lon="1.02182">
        <ele>212.11</ele>
        <time>2015-03-08T09:43:24Z</time>
      </trkpt>
      <trkpt lat="44.42295" lon="1.02181">
        <ele>212.11</ele>
        <time>2015-03-08T09:43:25Z</time>
      </trkpt>
      <trkpt lat="44.42296" lon="1.02179">
        <ele>212.11</ele>
        <time>2015-03-08T09:43:26Z</time>
      </trkpt>
      <trkpt lat="44.42297" lon="1.02178">
        <ele>212.11</ele>
        <time>2015-03-08T09:43:27Z</time>
      </trkpt>
      <trkpt lat="44.42298" lon="1.02176">
        <ele>212.11</ele>
        <time>2015-03-08T09:43:28Z</time>
      </trkpt>
      <trkpt lat="44.42299" lon="1.02175">
        <ele>212.11</ele>
        <time>2015-03-08T09:43:29Z</time>
      </trkpt>
      <trkpt lat="44.423" lon="1.02173">
        <ele>211.63</ele>
        <time>2015-03-08T09:43:30Z</time>
      </trkpt>
      <trkpt lat="44.42313" lon="1.02152">
        <ele>211.15</ele>
        <time>2015-03-08T09:43:42Z</time>
      </trkpt>
      <trkpt lat="44.4233" lon="1.02126">
        <ele>210.67</ele>
        <time>2015-03-08T09:43:58Z</time>
      </trkpt>
      <trkpt lat="44.42347" lon="1.02106">
        <ele>210.19</ele>
        <time>2015-03-08T09:44:13Z</time>
      </trkpt>
      <trkpt lat="44.42352" lon="1.02098">
        <ele>210.19</ele>
        <time>2015-03-08T09:44:18Z</time>
      </trkpt>
      <trkpt lat="44.42353" lon="1.02097">
        <ele>210.19</ele>
        <time>2015-03-08T09:44:19Z</time>
      </trkpt>
      <trkpt lat="44.42355" lon="1.02096">
        <ele>210.19</ele>
        <time>2015-03-08T09:44:20Z</time>
      </trkpt>
      <trkpt lat="44.42373" lon="1.02079">
        <ele>210.19</ele>
        <time>2015-03-08T09:44:35Z</time>
      </trkpt>
      <trkpt lat="44.42391" lon="1.02064">
        <ele>209.7</ele>
        <time>2015-03-08T09:44:50Z</time>
      </trkpt>
      <trkpt lat="44.42413" lon="1.02054">
        <ele>209.7</ele>
        <time>2015-03-08T09:45:06Z</time>
      </trkpt>
      <trkpt lat="44.42433" lon="1.02049">
        <ele>209.7</ele>
        <time>2015-03-08T09:45:19Z</time>
      </trkpt>
      <trkpt lat="44.42457" lon="1.02048">
        <ele>208.74</ele>
        <time>2015-03-08T09:45:36Z</time>
      </trkpt>
      <trkpt lat="44.42468" lon="1.02045">
        <ele>208.74</ele>
        <time>2015-03-08T09:45:44Z</time>
      </trkpt>
      <trkpt lat="44.42469" lon="1.02044">
        <ele>208.74</ele>
        <time>2015-03-08T09:45:45Z</time>
      </trkpt>
      <trkpt lat="44.42486" lon="1.02033">
        <ele>208.74</ele>
        <time>2015-03-08T09:45:58Z</time>
      </trkpt>
      <trkpt lat="44.42487" lon="1.02032">
        <ele>208.74</ele>
        <time>2015-03-08T09:45:59Z</time>
      </trkpt>
      <trkpt lat="44.42489" lon="1.02031">
        <ele>208.74</ele>
        <time>2015-03-08T09:46:00Z</time>
      </trkpt>
      <trkpt lat="44.4249" lon="1.02029">
        <ele>208.74</ele>
        <time>2015-03-08T09:46:01Z</time>
      </trkpt>
      <trkpt lat="44.42491" lon="1.02028">
        <ele>208.74</ele>
        <time>2015-03-08T09:46:02Z</time>
      </trkpt>
      <trkpt lat="44.42508" lon="1.02009">
        <ele>208.74</ele>
        <time>2015-03-08T09:46:16Z</time>
      </trkpt>
      <trkpt lat="44.42524" lon="1.01991">
        <ele>208.26</ele>
        <time>2015-03-08T09:46:30Z</time>
      </trkpt>
      <trkpt lat="44.42538" lon="1.01977">
        <ele>207.78</ele>
        <time>2015-03-08T09:46:42Z</time>
      </trkpt>
      <trkpt lat="44.42545" lon="1.01969">
        <ele>207.78</ele>
        <time>2015-03-08T09:46:48Z</time>
      </trkpt>
      <trkpt lat="44.42546" lon="1.01968">
        <ele>207.78</ele>
        <time>2015-03-08T09:46:49Z</time>
      </trkpt>
      <trkpt lat="44.42547" lon="1.01967">
        <ele>207.78</ele>
        <time>2015-03-08T09:46:50Z</time>
      </trkpt>
      <trkpt lat="44.42563" lon="1.01943">
        <ele>207.3</ele>
        <time>2015-03-08T09:47:06Z</time>
      </trkpt>
      <trkpt lat="44.42577" lon="1.01925">
        <ele>206.82</ele>
        <time>2015-03-08T09:47:19Z</time>
      </trkpt>
      <trkpt lat="44.42583" lon="1.01917">
        <ele>205.86</ele>
        <time>2015-03-08T09:47:24Z</time>
      </trkpt>
      <trkpt lat="44.42584" lon="1.01915">
        <ele>206.34</ele>
        <time>2015-03-08T09:47:25Z</time>
      </trkpt>
      <trkpt lat="44.42585" lon="1.01913">
        <ele>206.34</ele>
        <time>2015-03-08T09:47:26Z</time>
      </trkpt>
      <trkpt lat="44.42586" lon="1.01911">
        <ele>206.34</ele>
        <time>2015-03-08T09:47:27Z</time>
      </trkpt>
      <trkpt lat="44.42586" lon="1.01909">
        <ele>206.34</ele>
        <time>2015-03-08T09:47:28Z</time>
      </trkpt>
      <trkpt lat="44.42588" lon="1.01908">
        <ele>206.34</ele>
        <time>2015-03-08T09:47:29Z</time>
      </trkpt>
      <trkpt lat="44.42589" lon="1.01907">
        <ele>206.34</ele>
        <time>2015-03-08T09:47:30Z</time>
      </trkpt>
      <trkpt lat="44.42589" lon="1.01905">
        <ele>206.34</ele>
        <time>2015-03-08T09:47:31Z</time>
      </trkpt>
      <trkpt lat="44.4259" lon="1.01903">
        <ele>206.34</ele>
        <time>2015-03-08T09:47:32Z</time>
      </trkpt>
      <trkpt lat="44.42592" lon="1.01902">
        <ele>206.34</ele>
        <time>2015-03-08T09:47:33Z</time>
      </trkpt>
      <trkpt lat="44.42593" lon="1.019">
        <ele>206.34</ele>
        <time>2015-03-08T09:47:34Z</time>
      </trkpt>
      <trkpt lat="44.42593" lon="1.01898">
        <ele>206.34</ele>
        <time>2015-03-08T09:47:35Z</time>
      </trkpt>
      <trkpt lat="44.42594" lon="1.01897">
        <ele>206.34</ele>
        <time>2015-03-08T09:47:36Z</time>
      </trkpt>
      <trkpt lat="44.42595" lon="1.01895">
        <ele>206.34</ele>
        <time>2015-03-08T09:47:37Z</time>
      </trkpt>
      <trkpt lat="44.42608" lon="1.01876">
        <ele>205.86</ele>
        <time>2015-03-08T09:47:50Z</time>
      </trkpt>
      <trkpt lat="44.42616" lon="1.01864">
        <ele>205.86</ele>
        <time>2015-03-08T09:47:58Z</time>
      </trkpt>
      <trkpt lat="44.42617" lon="1.01863">
        <ele>205.86</ele>
        <time>2015-03-08T09:47:59Z</time>
      </trkpt>
      <trkpt lat="44.4263" lon="1.01845">
        <ele>205.86</ele>
        <time>2015-03-08T09:48:14Z</time>
      </trkpt>
      <trkpt lat="44.42638" lon="1.01833">
        <ele>205.86</ele>
        <time>2015-03-08T09:48:22Z</time>
      </trkpt>
      <trkpt lat="44.42639" lon="1.01831">
        <ele>205.86</ele>
        <time>2015-03-08T09:48:23Z</time>
      </trkpt>
      <trkpt lat="44.4264" lon="1.0183">
        <ele>205.86</ele>
        <time>2015-03-08T09:48:24Z</time>
      </trkpt>
      <trkpt lat="44.42641" lon="1.01829">
        <ele>205.86</ele>
        <time>2015-03-08T09:48:25Z</time>
      </trkpt>
      <trkpt lat="44.42642" lon="1.01827">
        <ele>205.86</ele>
        <time>2015-03-08T09:48:26Z</time>
      </trkpt>
      <trkpt lat="44.42643" lon="1.01826">
        <ele>205.86</ele>
        <time>2015-03-08T09:48:27Z</time>
      </trkpt>
      <trkpt lat="44.42644" lon="1.01825">
        <ele>205.86</ele>
        <time>2015-03-08T09:48:28Z</time>
      </trkpt>
      <trkpt lat="44.42645" lon="1.01823">
        <ele>205.86</ele>
        <time>2015-03-08T09:48:29Z</time>
      </trkpt>
      <trkpt lat="44.42658" lon="1.01806">
        <ele>207.3</ele>
        <time>2015-03-08T09:48:42Z</time>
      </trkpt>
      <trkpt lat="44.4267" lon="1.01785">
        <ele>207.3</ele>
        <time>2015-03-08T09:48:55Z</time>
      </trkpt>
      <trkpt lat="44.42685" lon="1.0176">
        <ele>208.74</ele>
        <time>2015-03-08T09:49:11Z</time>
      </trkpt>
      <trkpt lat="44.42698" lon="1.01742">
        <ele>209.22</ele>
        <time>2015-03-08T09:49:24Z</time>
      </trkpt>
      <trkpt lat="44.42712" lon="1.01721">
        <ele>211.15</ele>
        <time>2015-03-08T09:49:38Z</time>
      </trkpt>
      <trkpt lat="44.42728" lon="1.01699">
        <ele>212.11</ele>
        <time>2015-03-08T09:49:55Z</time>
      </trkpt>
      <trkpt lat="44.4274" lon="1.01681">
        <ele>214.03</ele>
        <time>2015-03-08T09:50:09Z</time>
      </trkpt>
      <trkpt lat="44.42744" lon="1.01676">
        <ele>214.03</ele>
        <time>2015-03-08T09:50:13Z</time>
      </trkpt>
      <trkpt lat="44.42746" lon="1.01675">
        <ele>214.51</ele>
        <time>2015-03-08T09:50:14Z</time>
      </trkpt>
      <trkpt lat="44.42747" lon="1.01674">
        <ele>214.51</ele>
        <time>2015-03-08T09:50:15Z</time>
      </trkpt>
      <trkpt lat="44.42748" lon="1.01673">
        <ele>214.51</ele>
        <time>2015-03-08T09:50:16Z</time>
      </trkpt>
      <trkpt lat="44.42749" lon="1.01672">
        <ele>214.51</ele>
        <time>2015-03-08T09:50:17Z</time>
      </trkpt>
      <trkpt lat="44.4275" lon="1.01671">
        <ele>214.99</ele>
        <time>2015-03-08T09:50:18Z</time>
      </trkpt>
      <trkpt lat="44.42756" lon="1.01664">
        <ele>214.99</ele>
        <time>2015-03-08T09:50:24Z</time>
      </trkpt>
      <trkpt lat="44.42758" lon="1.01663">
        <ele>215.95</ele>
        <time>2015-03-08T09:50:25Z</time>
      </trkpt>
      <trkpt lat="44.42773" lon="1.01651">
        <ele>217.4</ele>
        <time>2015-03-08T09:50:38Z</time>
      </trkpt>
      <trkpt lat="44.42788" lon="1.01643">
        <ele>218.36</ele>
        <time>2015-03-08T09:50:50Z</time>
      </trkpt>
      <trkpt lat="44.42805" lon="1.01634">
        <ele>219.8</ele>
        <time>2015-03-08T09:51:04Z</time>
      </trkpt>
      <trkpt lat="44.42806" lon="1.01634">
        <ele>219.8</ele>
        <time>2015-03-08T09:51:05Z</time>
      </trkpt>
      <trkpt lat="44.42818" lon="1.0163">
        <ele>220.76</ele>
        <time>2015-03-08T09:51:15Z</time>
      </trkpt>
      <trkpt lat="44.42819" lon="1.01629">
        <ele>220.76</ele>
        <time>2015-03-08T09:51:16Z</time>
      </trkpt>
      <trkpt lat="44.42821" lon="1.01628">
        <ele>220.76</ele>
        <time>2015-03-08T09:51:17Z</time>
      </trkpt>
      <trkpt lat="44.42822" lon="1.01628">
        <ele>220.76</ele>
        <time>2015-03-08T09:51:18Z</time>
      </trkpt>
      <trkpt lat="44.42824" lon="1.01628">
        <ele>220.76</ele>
        <time>2015-03-08T09:51:19Z</time>
      </trkpt>
      <trkpt lat="44.42826" lon="1.01628">
        <ele>220.76</ele>
        <time>2015-03-08T09:51:21Z</time>
      </trkpt>
      <trkpt lat="44.42827" lon="1.01628">
        <ele>220.76</ele>
        <time>2015-03-08T09:51:22Z</time>
      </trkpt>
      <trkpt lat="44.42829" lon="1.01628">
        <ele>220.76</ele>
        <time>2015-03-08T09:51:23Z</time>
      </trkpt>
      <trkpt lat="44.4283" lon="1.01628">
        <ele>221.72</ele>
        <time>2015-03-08T09:51:24Z</time>
      </trkpt>
      <trkpt lat="44.42831" lon="1.01628">
        <ele>221.72</ele>
        <time>2015-03-08T09:51:25Z</time>
      </trkpt>
      <trkpt lat="44.42833" lon="1.01628">
        <ele>221.72</ele>
        <time>2015-03-08T09:51:26Z</time>
      </trkpt>
      <trkpt lat="44.42834" lon="1.01629">
        <ele>221.72</ele>
        <time>2015-03-08T09:51:27Z</time>
      </trkpt>
      <trkpt lat="44.42836" lon="1.01629">
        <ele>221.72</ele>
        <time>2015-03-08T09:51:28Z</time>
      </trkpt>
      <trkpt lat="44.42837" lon="1.01629">
        <ele>222.2</ele>
        <time>2015-03-08T09:51:29Z</time>
      </trkpt>
      <trkpt lat="44.42838" lon="1.01628">
        <ele>222.2</ele>
        <time>2015-03-08T09:51:30Z</time>
      </trkpt>
      <trkpt lat="44.4284" lon="1.01628">
        <ele>222.2</ele>
        <time>2015-03-08T09:51:31Z</time>
      </trkpt>
      <trkpt lat="44.42841" lon="1.01628">
        <ele>222.2</ele>
        <time>2015-03-08T09:51:32Z</time>
      </trkpt>
      <trkpt lat="44.42843" lon="1.01627">
        <ele>222.2</ele>
        <time>2015-03-08T09:51:33Z</time>
      </trkpt>
      <trkpt lat="44.42844" lon="1.01626">
        <ele>222.2</ele>
        <time>2015-03-08T09:51:34Z</time>
      </trkpt>
      <trkpt lat="44.42846" lon="1.01626">
        <ele>222.2</ele>
        <time>2015-03-08T09:51:35Z</time>
      </trkpt>
      <trkpt lat="44.42848" lon="1.01626">
        <ele>222.68</ele>
        <time>2015-03-08T09:51:36Z</time>
      </trkpt>
      <trkpt lat="44.42849" lon="1.01626">
        <ele>222.68</ele>
        <time>2015-03-08T09:51:37Z</time>
      </trkpt>
      <trkpt lat="44.4285" lon="1.01626">
        <ele>222.68</ele>
        <time>2015-03-08T09:51:38Z</time>
      </trkpt>
      <trkpt lat="44.42851" lon="1.01626">
        <ele>222.68</ele>
        <time>2015-03-08T09:51:39Z</time>
      </trkpt>
      <trkpt lat="44.42853" lon="1.01626">
        <ele>222.68</ele>
        <time>2015-03-08T09:51:40Z</time>
      </trkpt>
      <trkpt lat="44.42854" lon="1.01625">
        <ele>222.68</ele>
        <time>2015-03-08T09:51:41Z</time>
      </trkpt>
      <trkpt lat="44.42875" lon="1.01622">
        <ele>223.64</ele>
        <time>2015-03-08T09:51:55Z</time>
      </trkpt>
      <trkpt lat="44.42877" lon="1.01622">
        <ele>223.64</ele>
        <time>2015-03-08T09:51:56Z</time>
      </trkpt>
      <trkpt lat="44.42878" lon="1.01623">
        <ele>223.64</ele>
        <time>2015-03-08T09:51:57Z</time>
      </trkpt>
      <trkpt lat="44.42879" lon="1.01623">
        <ele>223.64</ele>
        <time>2015-03-08T09:51:58Z</time>
      </trkpt>
      <trkpt lat="44.4288" lon="1.01622">
        <ele>223.64</ele>
        <time>2015-03-08T09:51:59Z</time>
      </trkpt>
      <trkpt lat="44.42903" lon="1.01621">
        <ele>224.61</ele>
        <time>2015-03-08T09:52:16Z</time>
      </trkpt>
      <trkpt lat="44.42905" lon="1.01619">
        <ele>224.61</ele>
        <time>2015-03-08T09:52:18Z</time>
      </trkpt>
      <trkpt lat="44.42905" lon="1.01618">
        <ele>224.61</ele>
        <time>2015-03-08T09:52:19Z</time>
      </trkpt>
      <trkpt lat="44.42906" lon="1.01613">
        <ele>224.61</ele>
        <time>2015-03-08T09:52:22Z</time>
      </trkpt>
      <trkpt lat="44.42905" lon="1.01599">
        <ele>226.05</ele>
        <time>2015-03-08T09:52:29Z</time>
      </trkpt>
      <trkpt lat="44.42905" lon="1.01597">
        <ele>226.05</ele>
        <time>2015-03-08T09:52:30Z</time>
      </trkpt>
      <trkpt lat="44.42905" lon="1.01595">
        <ele>226.05</ele>
        <time>2015-03-08T09:52:31Z</time>
      </trkpt>
      <trkpt lat="44.42905" lon="1.01593">
        <ele>226.05</ele>
        <time>2015-03-08T09:52:32Z</time>
      </trkpt>
      <trkpt lat="44.42904" lon="1.01591">
        <ele>226.05</ele>
        <time>2015-03-08T09:52:33Z</time>
      </trkpt>
      <trkpt lat="44.42904" lon="1.01589">
        <ele>226.05</ele>
        <time>2015-03-08T09:52:34Z</time>
      </trkpt>
      <trkpt lat="44.42904" lon="1.01587">
        <ele>226.53</ele>
        <time>2015-03-08T09:52:35Z</time>
      </trkpt>
      <trkpt lat="44.42904" lon="1.01585">
        <ele>226.53</ele>
        <time>2015-03-08T09:52:36Z</time>
      </trkpt>
      <trkpt lat="44.42904" lon="1.01584">
        <ele>226.53</ele>
        <time>2015-03-08T09:52:37Z</time>
      </trkpt>
      <trkpt lat="44.42904" lon="1.01582">
        <ele>226.53</ele>
        <time>2015-03-08T09:52:38Z</time>
      </trkpt>
      <trkpt lat="44.42904" lon="1.01574">
        <ele>227.01</ele>
        <time>2015-03-08T09:52:42Z</time>
      </trkpt>
      <trkpt lat="44.42907" lon="1.01554">
        <ele>227.49</ele>
        <time>2015-03-08T09:52:56Z</time>
      </trkpt>
      <trkpt lat="44.42907" lon="1.01553">
        <ele>227.49</ele>
        <time>2015-03-08T09:52:57Z</time>
      </trkpt>
      <trkpt lat="44.42908" lon="1.01551">
        <ele>227.49</ele>
        <time>2015-03-08T09:52:59Z</time>
      </trkpt>
      <trkpt lat="44.42912" lon="1.01539">
        <ele>227.97</ele>
        <time>2015-03-08T09:53:06Z</time>
      </trkpt>
      <trkpt lat="44.42913" lon="1.01537">
        <ele>227.97</ele>
        <time>2015-03-08T09:53:07Z</time>
      </trkpt>
      <trkpt lat="44.42913" lon="1.01536">
        <ele>227.97</ele>
        <time>2015-03-08T09:53:08Z</time>
      </trkpt>
      <trkpt lat="44.42914" lon="1.01534">
        <ele>227.97</ele>
        <time>2015-03-08T09:53:09Z</time>
      </trkpt>
      <trkpt lat="44.42914" lon="1.01532">
        <ele>227.97</ele>
        <time>2015-03-08T09:53:10Z</time>
      </trkpt>
      <trkpt lat="44.42915" lon="1.01531">
        <ele>227.97</ele>
        <time>2015-03-08T09:53:11Z</time>
      </trkpt>
      <trkpt lat="44.42915" lon="1.01529">
        <ele>227.97</ele>
        <time>2015-03-08T09:53:12Z</time>
      </trkpt>
      <trkpt lat="44.42923" lon="1.01521">
        <ele>228.45</ele>
        <time>2015-03-08T09:53:19Z</time>
      </trkpt>
      <trkpt lat="44.42923" lon="1.01519">
        <ele>228.45</ele>
        <time>2015-03-08T09:53:20Z</time>
      </trkpt>
      <trkpt lat="44.42924" lon="1.01518">
        <ele>228.45</ele>
        <time>2015-03-08T09:53:21Z</time>
      </trkpt>
      <trkpt lat="44.42925" lon="1.01516">
        <ele>228.45</ele>
        <time>2015-03-08T09:53:22Z</time>
      </trkpt>
      <trkpt lat="44.42925" lon="1.01515">
        <ele>228.45</ele>
        <time>2015-03-08T09:53:23Z</time>
      </trkpt>
      <trkpt lat="44.42926" lon="1.01513">
        <ele>228.45</ele>
        <time>2015-03-08T09:53:24Z</time>
      </trkpt>
      <trkpt lat="44.42929" lon="1.01507">
        <ele>228.45</ele>
        <time>2015-03-08T09:53:28Z</time>
      </trkpt>
      <trkpt lat="44.4293" lon="1.01505">
        <ele>228.93</ele>
        <time>2015-03-08T09:53:29Z</time>
      </trkpt>
      <trkpt lat="44.4294" lon="1.01486">
        <ele>229.41</ele>
        <time>2015-03-08T09:53:43Z</time>
      </trkpt>
      <trkpt lat="44.42941" lon="1.01486">
        <ele>229.41</ele>
        <time>2015-03-08T09:53:44Z</time>
      </trkpt>
      <trkpt lat="44.42942" lon="1.01485">
        <ele>229.41</ele>
        <time>2015-03-08T09:53:45Z</time>
      </trkpt>
      <trkpt lat="44.42943" lon="1.01484">
        <ele>229.41</ele>
        <time>2015-03-08T09:53:46Z</time>
      </trkpt>
      <trkpt lat="44.42944" lon="1.01484">
        <ele>229.41</ele>
        <time>2015-03-08T09:53:47Z</time>
      </trkpt>
      <trkpt lat="44.42945" lon="1.01483">
        <ele>229.41</ele>
        <time>2015-03-08T09:53:48Z</time>
      </trkpt>
      <trkpt lat="44.42946" lon="1.01482">
        <ele>229.41</ele>
        <time>2015-03-08T09:53:49Z</time>
      </trkpt>
      <trkpt lat="44.42952" lon="1.01465">
        <ele>229.41</ele>
        <time>2015-03-08T09:54:01Z</time>
      </trkpt>
      <trkpt lat="44.42952" lon="1.01464">
        <ele>229.89</ele>
        <time>2015-03-08T09:54:12Z</time>
      </trkpt>
      <trkpt lat="44.42953" lon="1.01464">
        <ele>229.89</ele>
        <time>2015-03-08T09:54:31Z</time>
      </trkpt>
      <trkpt lat="44.42952" lon="1.01463">
        <ele>229.89</ele>
        <time>2015-03-08T09:54:51Z</time>
      </trkpt>
      <trkpt lat="44.42952" lon="1.01462">
        <ele>229.89</ele>
        <time>2015-03-08T09:55:10Z</time>
      </trkpt>
    </trkseg>
  </trk>
</gpx>